<?xml version="1.0" encoding="UTF-8" standalone="no" ?>
<gpx xmlns="http://www.topografix.com/GPX/1/1" xmlns:xsi="http://www.w3.org/2001/XMLSchema-instance" xsi:schemaLocation="http://www.topografix.com/GPX/1/1 http://www.topografix.com/GPX/1/1/gpx.xsd" version="1.1" creator="VisuGPX - https://www.visugpx.com">
  <metadata>
    <name>La sauve - Targon - Capian</name>
    <desc><![CDATA[Randonnée VTT]]></desc>
  </metadata>
  <trk>
    <name><![CDATA[Colinneau sauve targon viera]]></name>
    <trkseg>
      <trkpt lat="44.75555" lon="-0.3124">
        <ele>103</ele>
        <time>2013-04-21T12:18:55Z</time>
      </trkpt>
      <trkpt lat="44.75565" lon="-0.31211">
        <ele>104</ele>
        <time>2013-04-21T12:19:04Z</time>
      </trkpt>
      <trkpt lat="44.75568" lon="-0.31204">
        <ele>104</ele>
        <time>2013-04-21T12:19:07Z</time>
      </trkpt>
      <trkpt lat="44.75577" lon="-0.31201">
        <ele>104</ele>
        <time>2013-04-21T12:19:11Z</time>
      </trkpt>
      <trkpt lat="44.75602" lon="-0.31196">
        <ele>105</ele>
        <time>2013-04-21T12:19:21Z</time>
      </trkpt>
      <trkpt lat="44.7562" lon="-0.31195">
        <ele>106</ele>
        <time>2013-04-21T12:19:28Z</time>
      </trkpt>
      <trkpt lat="44.75635" lon="-0.31195">
        <ele>106</ele>
        <time>2013-04-21T12:19:36Z</time>
      </trkpt>
      <trkpt lat="44.75636" lon="-0.31196">
        <ele>106</ele>
        <time>2013-04-21T12:19:42Z</time>
      </trkpt>
      <trkpt lat="44.75636" lon="-0.31197">
        <ele>106</ele>
        <time>2013-04-21T12:19:52Z</time>
      </trkpt>
      <trkpt lat="44.75636" lon="-0.31196">
        <ele>106</ele>
        <time>2013-04-21T12:20:11Z</time>
      </trkpt>
      <trkpt lat="44.75636" lon="-0.31195">
        <ele>106</ele>
        <time>2013-04-21T12:20:27Z</time>
      </trkpt>
      <trkpt lat="44.75636" lon="-0.31195">
        <ele>106</ele>
        <time>2013-04-21T12:20:38Z</time>
      </trkpt>
      <trkpt lat="44.75636" lon="-0.31195">
        <ele>106</ele>
        <time>2013-04-21T12:20:51Z</time>
      </trkpt>
      <trkpt lat="44.75636" lon="-0.31189">
        <ele>106</ele>
        <time>2013-04-21T12:20:56Z</time>
      </trkpt>
      <trkpt lat="44.75635" lon="-0.31173">
        <ele>106</ele>
        <time>2013-04-21T12:21:03Z</time>
      </trkpt>
      <trkpt lat="44.75639" lon="-0.31157">
        <ele>107</ele>
        <time>2013-04-21T12:21:08Z</time>
      </trkpt>
      <trkpt lat="44.75652" lon="-0.31156">
        <ele>107</ele>
        <time>2013-04-21T12:21:14Z</time>
      </trkpt>
      <trkpt lat="44.7567" lon="-0.31157">
        <ele>107</ele>
        <time>2013-04-21T12:21:22Z</time>
      </trkpt>
      <trkpt lat="44.75693" lon="-0.31158">
        <ele>108</ele>
        <time>2013-04-21T12:21:32Z</time>
      </trkpt>
      <trkpt lat="44.75712" lon="-0.31159">
        <ele>109</ele>
        <time>2013-04-21T12:21:40Z</time>
      </trkpt>
      <trkpt lat="44.75726" lon="-0.31154">
        <ele>109</ele>
        <time>2013-04-21T12:21:48Z</time>
      </trkpt>
      <trkpt lat="44.75728" lon="-0.31153">
        <ele>109</ele>
        <time>2013-04-21T12:21:49Z</time>
      </trkpt>
      <trkpt lat="44.75728" lon="-0.31139">
        <ele>110</ele>
        <time>2013-04-21T12:21:55Z</time>
      </trkpt>
      <trkpt lat="44.75721" lon="-0.31113">
        <ele>110</ele>
        <time>2013-04-21T12:22:03Z</time>
      </trkpt>
      <trkpt lat="44.75715" lon="-0.31077">
        <ele>110</ele>
        <time>2013-04-21T12:22:13Z</time>
      </trkpt>
      <trkpt lat="44.75711" lon="-0.31049">
        <ele>110</ele>
        <time>2013-04-21T12:22:20Z</time>
      </trkpt>
      <trkpt lat="44.75708" lon="-0.31021">
        <ele>110</ele>
        <time>2013-04-21T12:22:27Z</time>
      </trkpt>
      <trkpt lat="44.75704" lon="-0.30987">
        <ele>110</ele>
        <time>2013-04-21T12:22:36Z</time>
      </trkpt>
      <trkpt lat="44.75706" lon="-0.30979">
        <ele>110</ele>
        <time>2013-04-21T12:22:39Z</time>
      </trkpt>
      <trkpt lat="44.75712" lon="-0.30967">
        <ele>110</ele>
        <time>2013-04-21T12:22:44Z</time>
      </trkpt>
      <trkpt lat="44.75717" lon="-0.30933">
        <ele>110</ele>
        <time>2013-04-21T12:22:54Z</time>
      </trkpt>
      <trkpt lat="44.75716" lon="-0.30902">
        <ele>110</ele>
        <time>2013-04-21T12:23:03Z</time>
      </trkpt>
      <trkpt lat="44.75717" lon="-0.30896">
        <ele>110</ele>
        <time>2013-04-21T12:23:05Z</time>
      </trkpt>
      <trkpt lat="44.75727" lon="-0.30893">
        <ele>111</ele>
        <time>2013-04-21T12:23:10Z</time>
      </trkpt>
      <trkpt lat="44.75746" lon="-0.30892">
        <ele>111</ele>
        <time>2013-04-21T12:23:18Z</time>
      </trkpt>
      <trkpt lat="44.75764" lon="-0.30894">
        <ele>111</ele>
        <time>2013-04-21T12:23:25Z</time>
      </trkpt>
      <trkpt lat="44.75788" lon="-0.30898">
        <ele>111</ele>
        <time>2013-04-21T12:23:33Z</time>
      </trkpt>
      <trkpt lat="44.75801" lon="-0.3091">
        <ele>111</ele>
        <time>2013-04-21T12:23:39Z</time>
      </trkpt>
      <trkpt lat="44.75814" lon="-0.30929">
        <ele>111</ele>
        <time>2013-04-21T12:23:46Z</time>
      </trkpt>
      <trkpt lat="44.75824" lon="-0.30944">
        <ele>111</ele>
        <time>2013-04-21T12:23:52Z</time>
      </trkpt>
      <trkpt lat="44.75835" lon="-0.30963">
        <ele>111</ele>
        <time>2013-04-21T12:23:59Z</time>
      </trkpt>
      <trkpt lat="44.75842" lon="-0.30985">
        <ele>111</ele>
        <time>2013-04-21T12:24:06Z</time>
      </trkpt>
      <trkpt lat="44.75847" lon="-0.31006">
        <ele>111</ele>
        <time>2013-04-21T12:24:12Z</time>
      </trkpt>
      <trkpt lat="44.75855" lon="-0.31033">
        <ele>111</ele>
        <time>2013-04-21T12:24:20Z</time>
      </trkpt>
      <trkpt lat="44.7586" lon="-0.31049">
        <ele>111</ele>
        <time>2013-04-21T12:24:26Z</time>
      </trkpt>
      <trkpt lat="44.75868" lon="-0.31078">
        <ele>111</ele>
        <time>2013-04-21T12:24:36Z</time>
      </trkpt>
      <trkpt lat="44.75875" lon="-0.31098">
        <ele>111</ele>
        <time>2013-04-21T12:24:43Z</time>
      </trkpt>
      <trkpt lat="44.75878" lon="-0.31104">
        <ele>111</ele>
        <time>2013-04-21T12:24:49Z</time>
      </trkpt>
      <trkpt lat="44.75882" lon="-0.311">
        <ele>111</ele>
        <time>2013-04-21T12:24:55Z</time>
      </trkpt>
      <trkpt lat="44.75884" lon="-0.31096">
        <ele>111</ele>
        <time>2013-04-21T12:25:01Z</time>
      </trkpt>
      <trkpt lat="44.75881" lon="-0.31083">
        <ele>111</ele>
        <time>2013-04-21T12:25:06Z</time>
      </trkpt>
      <trkpt lat="44.75871" lon="-0.31059">
        <ele>111</ele>
        <time>2013-04-21T12:25:15Z</time>
      </trkpt>
      <trkpt lat="44.75875" lon="-0.3105">
        <ele>111</ele>
        <time>2013-04-21T12:25:19Z</time>
      </trkpt>
      <trkpt lat="44.75877" lon="-0.31035">
        <ele>110</ele>
        <time>2013-04-21T12:25:24Z</time>
      </trkpt>
      <trkpt lat="44.75875" lon="-0.31027">
        <ele>110</ele>
        <time>2013-04-21T12:25:27Z</time>
      </trkpt>
      <trkpt lat="44.7588" lon="-0.31019">
        <ele>109</ele>
        <time>2013-04-21T12:25:32Z</time>
      </trkpt>
      <trkpt lat="44.75895" lon="-0.31008">
        <ele>108</ele>
        <time>2013-04-21T12:25:40Z</time>
      </trkpt>
      <trkpt lat="44.75913" lon="-0.30996">
        <ele>107</ele>
        <time>2013-04-21T12:25:48Z</time>
      </trkpt>
      <trkpt lat="44.75929" lon="-0.30986">
        <ele>105</ele>
        <time>2013-04-21T12:25:54Z</time>
      </trkpt>
      <trkpt lat="44.75934" lon="-0.30983">
        <ele>105</ele>
        <time>2013-04-21T12:25:56Z</time>
      </trkpt>
      <trkpt lat="44.75946" lon="-0.30984">
        <ele>105</ele>
        <time>2013-04-21T12:26:00Z</time>
      </trkpt>
      <trkpt lat="44.75971" lon="-0.30994">
        <ele>105</ele>
        <time>2013-04-21T12:26:10Z</time>
      </trkpt>
      <trkpt lat="44.75976" lon="-0.31015">
        <ele>106</ele>
        <time>2013-04-21T12:26:16Z</time>
      </trkpt>
      <trkpt lat="44.75978" lon="-0.31018">
        <ele>106</ele>
        <time>2013-04-21T12:26:17Z</time>
      </trkpt>
      <trkpt lat="44.75991" lon="-0.31018">
        <ele>106</ele>
        <time>2013-04-21T12:26:22Z</time>
      </trkpt>
      <trkpt lat="44.76019" lon="-0.31017">
        <ele>106</ele>
        <time>2013-04-21T12:26:31Z</time>
      </trkpt>
      <trkpt lat="44.76037" lon="-0.31019">
        <ele>106</ele>
        <time>2013-04-21T12:26:38Z</time>
      </trkpt>
      <trkpt lat="44.76051" lon="-0.31024">
        <ele>106</ele>
        <time>2013-04-21T12:26:44Z</time>
      </trkpt>
      <trkpt lat="44.76074" lon="-0.31031">
        <ele>106</ele>
        <time>2013-04-21T12:26:53Z</time>
      </trkpt>
      <trkpt lat="44.76096" lon="-0.31035">
        <ele>106</ele>
        <time>2013-04-21T12:27:02Z</time>
      </trkpt>
      <trkpt lat="44.761" lon="-0.31034">
        <ele>106</ele>
        <time>2013-04-21T12:27:04Z</time>
      </trkpt>
      <trkpt lat="44.76102" lon="-0.31016">
        <ele>106</ele>
        <time>2013-04-21T12:27:10Z</time>
      </trkpt>
      <trkpt lat="44.76099" lon="-0.3099">
        <ele>105</ele>
        <time>2013-04-21T12:27:18Z</time>
      </trkpt>
      <trkpt lat="44.76112" lon="-0.30987">
        <ele>105</ele>
        <time>2013-04-21T12:27:25Z</time>
      </trkpt>
      <trkpt lat="44.76121" lon="-0.30988">
        <ele>105</ele>
        <time>2013-04-21T12:27:29Z</time>
      </trkpt>
      <trkpt lat="44.76144" lon="-0.30997">
        <ele>104</ele>
        <time>2013-04-21T12:27:39Z</time>
      </trkpt>
      <trkpt lat="44.76163" lon="-0.30994">
        <ele>102</ele>
        <time>2013-04-21T12:27:46Z</time>
      </trkpt>
      <trkpt lat="44.76168" lon="-0.30976">
        <ele>102</ele>
        <time>2013-04-21T12:27:51Z</time>
      </trkpt>
      <trkpt lat="44.76169" lon="-0.30966">
        <ele>103</ele>
        <time>2013-04-21T12:27:54Z</time>
      </trkpt>
      <trkpt lat="44.76178" lon="-0.30963">
        <ele>102</ele>
        <time>2013-04-21T12:27:59Z</time>
      </trkpt>
      <trkpt lat="44.76202" lon="-0.30972">
        <ele>100</ele>
        <time>2013-04-21T12:28:07Z</time>
      </trkpt>
      <trkpt lat="44.76225" lon="-0.30984">
        <ele>97</ele>
        <time>2013-04-21T12:28:14Z</time>
      </trkpt>
      <trkpt lat="44.76239" lon="-0.30992">
        <ele>96</ele>
        <time>2013-04-21T12:28:17Z</time>
      </trkpt>
      <trkpt lat="44.76272" lon="-0.31004">
        <ele>93</ele>
        <time>2013-04-21T12:28:26Z</time>
      </trkpt>
      <trkpt lat="44.76294" lon="-0.31014">
        <ele>92</ele>
        <time>2013-04-21T12:28:34Z</time>
      </trkpt>
      <trkpt lat="44.76299" lon="-0.31013">
        <ele>92</ele>
        <time>2013-04-21T12:28:36Z</time>
      </trkpt>
      <trkpt lat="44.76305" lon="-0.30999">
        <ele>91</ele>
        <time>2013-04-21T12:28:42Z</time>
      </trkpt>
      <trkpt lat="44.7631" lon="-0.30976">
        <ele>90</ele>
        <time>2013-04-21T12:28:49Z</time>
      </trkpt>
      <trkpt lat="44.76312" lon="-0.30971">
        <ele>90</ele>
        <time>2013-04-21T12:28:51Z</time>
      </trkpt>
      <trkpt lat="44.76315" lon="-0.30968">
        <ele>90</ele>
        <time>2013-04-21T12:28:58Z</time>
      </trkpt>
      <trkpt lat="44.76317" lon="-0.3097">
        <ele>90</ele>
        <time>2013-04-21T12:29:03Z</time>
      </trkpt>
      <trkpt lat="44.76319" lon="-0.3097">
        <ele>90</ele>
        <time>2013-04-21T12:29:11Z</time>
      </trkpt>
      <trkpt lat="44.76321" lon="-0.30972">
        <ele>90</ele>
        <time>2013-04-21T12:29:19Z</time>
      </trkpt>
      <trkpt lat="44.76322" lon="-0.30975">
        <ele>90</ele>
        <time>2013-04-21T12:29:25Z</time>
      </trkpt>
      <trkpt lat="44.76323" lon="-0.30975">
        <ele>90</ele>
        <time>2013-04-21T12:29:33Z</time>
      </trkpt>
      <trkpt lat="44.76324" lon="-0.30975">
        <ele>90</ele>
        <time>2013-04-21T12:29:41Z</time>
      </trkpt>
      <trkpt lat="44.76326" lon="-0.30975">
        <ele>90</ele>
        <time>2013-04-21T12:29:48Z</time>
      </trkpt>
      <trkpt lat="44.76327" lon="-0.30974">
        <ele>90</ele>
        <time>2013-04-21T12:29:55Z</time>
      </trkpt>
      <trkpt lat="44.76329" lon="-0.30977">
        <ele>90</ele>
        <time>2013-04-21T12:30:00Z</time>
      </trkpt>
      <trkpt lat="44.7633" lon="-0.30979">
        <ele>90</ele>
        <time>2013-04-21T12:30:06Z</time>
      </trkpt>
      <trkpt lat="44.76331" lon="-0.30979">
        <ele>90</ele>
        <time>2013-04-21T12:30:13Z</time>
      </trkpt>
      <trkpt lat="44.76331" lon="-0.30979">
        <ele>90</ele>
        <time>2013-04-21T12:30:24Z</time>
      </trkpt>
      <trkpt lat="44.76331" lon="-0.30979">
        <ele>90</ele>
        <time>2013-04-21T12:30:36Z</time>
      </trkpt>
      <trkpt lat="44.76331" lon="-0.30979">
        <ele>90</ele>
        <time>2013-04-21T12:30:37Z</time>
      </trkpt>
      <trkpt lat="44.76331" lon="-0.30981">
        <ele>90</ele>
        <time>2013-04-21T12:30:43Z</time>
      </trkpt>
      <trkpt lat="44.76332" lon="-0.30982">
        <ele>90</ele>
        <time>2013-04-21T12:30:46Z</time>
      </trkpt>
      <trkpt lat="44.7633" lon="-0.3099">
        <ele>90</ele>
        <time>2013-04-21T12:30:53Z</time>
      </trkpt>
      <trkpt lat="44.76329" lon="-0.30994">
        <ele>91</ele>
        <time>2013-04-21T12:31:01Z</time>
      </trkpt>
      <trkpt lat="44.76328" lon="-0.31001">
        <ele>91</ele>
        <time>2013-04-21T12:31:08Z</time>
      </trkpt>
      <trkpt lat="44.76329" lon="-0.31">
        <ele>91</ele>
        <time>2013-04-21T12:31:12Z</time>
      </trkpt>
      <trkpt lat="44.7633" lon="-0.30998">
        <ele>91</ele>
        <time>2013-04-21T12:31:14Z</time>
      </trkpt>
      <trkpt lat="44.76332" lon="-0.30993">
        <ele>90</ele>
        <time>2013-04-21T12:31:21Z</time>
      </trkpt>
      <trkpt lat="44.76332" lon="-0.30993">
        <ele>90</ele>
        <time>2013-04-21T12:31:25Z</time>
      </trkpt>
      <trkpt lat="44.76329" lon="-0.31">
        <ele>91</ele>
        <time>2013-04-21T12:31:33Z</time>
      </trkpt>
      <trkpt lat="44.76333" lon="-0.31007">
        <ele>91</ele>
        <time>2013-04-21T12:31:40Z</time>
      </trkpt>
      <trkpt lat="44.76336" lon="-0.31011">
        <ele>92</ele>
        <time>2013-04-21T12:31:47Z</time>
      </trkpt>
      <trkpt lat="44.76342" lon="-0.31022">
        <ele>93</ele>
        <time>2013-04-21T12:31:55Z</time>
      </trkpt>
      <trkpt lat="44.76343" lon="-0.31025">
        <ele>94</ele>
        <time>2013-04-21T12:31:57Z</time>
      </trkpt>
      <trkpt lat="44.76347" lon="-0.3103">
        <ele>95</ele>
        <time>2013-04-21T12:32:04Z</time>
      </trkpt>
      <trkpt lat="44.76349" lon="-0.31032">
        <ele>95</ele>
        <time>2013-04-21T12:32:08Z</time>
      </trkpt>
      <trkpt lat="44.76355" lon="-0.31033">
        <ele>95</ele>
        <time>2013-04-21T12:32:16Z</time>
      </trkpt>
      <trkpt lat="44.76357" lon="-0.31034">
        <ele>95</ele>
        <time>2013-04-21T12:32:23Z</time>
      </trkpt>
      <trkpt lat="44.76361" lon="-0.31034">
        <ele>96</ele>
        <time>2013-04-21T12:32:27Z</time>
      </trkpt>
      <trkpt lat="44.76364" lon="-0.31036">
        <ele>96</ele>
        <time>2013-04-21T12:32:29Z</time>
      </trkpt>
      <trkpt lat="44.76368" lon="-0.31043">
        <ele>97</ele>
        <time>2013-04-21T12:32:33Z</time>
      </trkpt>
      <trkpt lat="44.76381" lon="-0.31056">
        <ele>99</ele>
        <time>2013-04-21T12:32:40Z</time>
      </trkpt>
      <trkpt lat="44.76385" lon="-0.31057">
        <ele>100</ele>
        <time>2013-04-21T12:32:42Z</time>
      </trkpt>
      <trkpt lat="44.7639" lon="-0.31057">
        <ele>100</ele>
        <time>2013-04-21T12:32:46Z</time>
      </trkpt>
      <trkpt lat="44.76398" lon="-0.31071">
        <ele>101</ele>
        <time>2013-04-21T12:32:53Z</time>
      </trkpt>
      <trkpt lat="44.764" lon="-0.31075">
        <ele>101</ele>
        <time>2013-04-21T12:32:55Z</time>
      </trkpt>
      <trkpt lat="44.76404" lon="-0.31088">
        <ele>102</ele>
        <time>2013-04-21T12:33:01Z</time>
      </trkpt>
      <trkpt lat="44.76414" lon="-0.3109">
        <ele>102</ele>
        <time>2013-04-21T12:33:07Z</time>
      </trkpt>
      <trkpt lat="44.76417" lon="-0.31088">
        <ele>102</ele>
        <time>2013-04-21T12:33:09Z</time>
      </trkpt>
      <trkpt lat="44.76436" lon="-0.31083">
        <ele>101</ele>
        <time>2013-04-21T12:33:19Z</time>
      </trkpt>
      <trkpt lat="44.76444" lon="-0.3108">
        <ele>101</ele>
        <time>2013-04-21T12:33:23Z</time>
      </trkpt>
      <trkpt lat="44.7645" lon="-0.31076">
        <ele>101</ele>
        <time>2013-04-21T12:33:30Z</time>
      </trkpt>
      <trkpt lat="44.76452" lon="-0.31076">
        <ele>101</ele>
        <time>2013-04-21T12:33:42Z</time>
      </trkpt>
      <trkpt lat="44.76454" lon="-0.31076">
        <ele>101</ele>
        <time>2013-04-21T12:33:46Z</time>
      </trkpt>
      <trkpt lat="44.76455" lon="-0.31075">
        <ele>100</ele>
        <time>2013-04-21T12:33:48Z</time>
      </trkpt>
      <trkpt lat="44.76466" lon="-0.3107">
        <ele>100</ele>
        <time>2013-04-21T12:33:56Z</time>
      </trkpt>
      <trkpt lat="44.76475" lon="-0.31065">
        <ele>99</ele>
        <time>2013-04-21T12:34:01Z</time>
      </trkpt>
      <trkpt lat="44.76487" lon="-0.31059">
        <ele>99</ele>
        <time>2013-04-21T12:34:08Z</time>
      </trkpt>
      <trkpt lat="44.76494" lon="-0.31057">
        <ele>99</ele>
        <time>2013-04-21T12:34:13Z</time>
      </trkpt>
      <trkpt lat="44.76498" lon="-0.31056">
        <ele>99</ele>
        <time>2013-04-21T12:34:18Z</time>
      </trkpt>
      <trkpt lat="44.76507" lon="-0.31047">
        <ele>99</ele>
        <time>2013-04-21T12:34:25Z</time>
      </trkpt>
      <trkpt lat="44.76511" lon="-0.31045">
        <ele>98</ele>
        <time>2013-04-21T12:34:27Z</time>
      </trkpt>
      <trkpt lat="44.76522" lon="-0.31034">
        <ele>98</ele>
        <time>2013-04-21T12:34:36Z</time>
      </trkpt>
      <trkpt lat="44.76532" lon="-0.31025">
        <ele>97</ele>
        <time>2013-04-21T12:34:44Z</time>
      </trkpt>
      <trkpt lat="44.76533" lon="-0.31023">
        <ele>97</ele>
        <time>2013-04-21T12:34:45Z</time>
      </trkpt>
      <trkpt lat="44.76546" lon="-0.31019">
        <ele>97</ele>
        <time>2013-04-21T12:34:53Z</time>
      </trkpt>
      <trkpt lat="44.76551" lon="-0.31023">
        <ele>97</ele>
        <time>2013-04-21T12:34:59Z</time>
      </trkpt>
      <trkpt lat="44.76553" lon="-0.31027">
        <ele>98</ele>
        <time>2013-04-21T12:35:05Z</time>
      </trkpt>
      <trkpt lat="44.76557" lon="-0.3103">
        <ele>98</ele>
        <time>2013-04-21T12:35:12Z</time>
      </trkpt>
      <trkpt lat="44.76558" lon="-0.31033">
        <ele>98</ele>
        <time>2013-04-21T12:35:15Z</time>
      </trkpt>
      <trkpt lat="44.7656" lon="-0.31034">
        <ele>98</ele>
        <time>2013-04-21T12:35:17Z</time>
      </trkpt>
      <trkpt lat="44.76562" lon="-0.31038">
        <ele>99</ele>
        <time>2013-04-21T12:35:22Z</time>
      </trkpt>
      <trkpt lat="44.76562" lon="-0.3104">
        <ele>99</ele>
        <time>2013-04-21T12:35:27Z</time>
      </trkpt>
      <trkpt lat="44.76565" lon="-0.31051">
        <ele>100</ele>
        <time>2013-04-21T12:35:32Z</time>
      </trkpt>
      <trkpt lat="44.76567" lon="-0.31062">
        <ele>101</ele>
        <time>2013-04-21T12:35:37Z</time>
      </trkpt>
      <trkpt lat="44.76573" lon="-0.3107">
        <ele>102</ele>
        <time>2013-04-21T12:35:43Z</time>
      </trkpt>
      <trkpt lat="44.76583" lon="-0.31065">
        <ele>101</ele>
        <time>2013-04-21T12:35:52Z</time>
      </trkpt>
      <trkpt lat="44.76595" lon="-0.31059">
        <ele>101</ele>
        <time>2013-04-21T12:36:00Z</time>
      </trkpt>
      <trkpt lat="44.76612" lon="-0.31048">
        <ele>100</ele>
        <time>2013-04-21T12:36:07Z</time>
      </trkpt>
      <trkpt lat="44.76624" lon="-0.31038">
        <ele>99</ele>
        <time>2013-04-21T12:36:15Z</time>
      </trkpt>
      <trkpt lat="44.76623" lon="-0.31039">
        <ele>100</ele>
        <time>2013-04-21T12:36:25Z</time>
      </trkpt>
      <trkpt lat="44.76623" lon="-0.31039">
        <ele>100</ele>
        <time>2013-04-21T12:36:38Z</time>
      </trkpt>
      <trkpt lat="44.76623" lon="-0.31038">
        <ele>99</ele>
        <time>2013-04-21T12:36:52Z</time>
      </trkpt>
      <trkpt lat="44.76624" lon="-0.31038">
        <ele>99</ele>
        <time>2013-04-21T12:37:09Z</time>
      </trkpt>
      <trkpt lat="44.76625" lon="-0.31038">
        <ele>99</ele>
        <time>2013-04-21T12:37:26Z</time>
      </trkpt>
      <trkpt lat="44.76625" lon="-0.31038">
        <ele>99</ele>
        <time>2013-04-21T12:37:41Z</time>
      </trkpt>
      <trkpt lat="44.76625" lon="-0.31038">
        <ele>99</ele>
        <time>2013-04-21T12:37:54Z</time>
      </trkpt>
      <trkpt lat="44.76625" lon="-0.31039">
        <ele>100</ele>
        <time>2013-04-21T12:38:05Z</time>
      </trkpt>
      <trkpt lat="44.76628" lon="-0.31044">
        <ele>100</ele>
        <time>2013-04-21T12:38:09Z</time>
      </trkpt>
      <trkpt lat="44.76643" lon="-0.31064">
        <ele>102</ele>
        <time>2013-04-21T12:38:17Z</time>
      </trkpt>
      <trkpt lat="44.76652" lon="-0.31088">
        <ele>103</ele>
        <time>2013-04-21T12:38:24Z</time>
      </trkpt>
      <trkpt lat="44.76664" lon="-0.31091">
        <ele>103</ele>
        <time>2013-04-21T12:38:29Z</time>
      </trkpt>
      <trkpt lat="44.76696" lon="-0.31088">
        <ele>103</ele>
        <time>2013-04-21T12:38:37Z</time>
      </trkpt>
      <trkpt lat="44.76717" lon="-0.31094">
        <ele>103</ele>
        <time>2013-04-21T12:38:42Z</time>
      </trkpt>
      <trkpt lat="44.76721" lon="-0.31096">
        <ele>102</ele>
        <time>2013-04-21T12:38:43Z</time>
      </trkpt>
      <trkpt lat="44.76725" lon="-0.31098">
        <ele>102</ele>
        <time>2013-04-21T12:38:44Z</time>
      </trkpt>
      <trkpt lat="44.76728" lon="-0.311">
        <ele>102</ele>
        <time>2013-04-21T12:38:45Z</time>
      </trkpt>
      <trkpt lat="44.76731" lon="-0.31102">
        <ele>102</ele>
        <time>2013-04-21T12:38:46Z</time>
      </trkpt>
      <trkpt lat="44.76735" lon="-0.31104">
        <ele>102</ele>
        <time>2013-04-21T12:38:47Z</time>
      </trkpt>
      <trkpt lat="44.76746" lon="-0.31122">
        <ele>102</ele>
        <time>2013-04-21T12:38:52Z</time>
      </trkpt>
      <trkpt lat="44.76748" lon="-0.31131">
        <ele>102</ele>
        <time>2013-04-21T12:38:57Z</time>
      </trkpt>
      <trkpt lat="44.76747" lon="-0.31131">
        <ele>102</ele>
        <time>2013-04-21T12:39:08Z</time>
      </trkpt>
      <trkpt lat="44.76747" lon="-0.31131">
        <ele>102</ele>
        <time>2013-04-21T12:39:19Z</time>
      </trkpt>
      <trkpt lat="44.76747" lon="-0.31131">
        <ele>102</ele>
        <time>2013-04-21T12:39:20Z</time>
      </trkpt>
      <trkpt lat="44.76745" lon="-0.31149">
        <ele>102</ele>
        <time>2013-04-21T12:39:27Z</time>
      </trkpt>
      <trkpt lat="44.76741" lon="-0.31172">
        <ele>101</ele>
        <time>2013-04-21T12:39:34Z</time>
      </trkpt>
      <trkpt lat="44.76737" lon="-0.3119">
        <ele>101</ele>
        <time>2013-04-21T12:39:41Z</time>
      </trkpt>
      <trkpt lat="44.76743" lon="-0.31217">
        <ele>99</ele>
        <time>2013-04-21T12:39:47Z</time>
      </trkpt>
      <trkpt lat="44.76743" lon="-0.31223">
        <ele>99</ele>
        <time>2013-04-21T12:39:48Z</time>
      </trkpt>
      <trkpt lat="44.76742" lon="-0.31258">
        <ele>99</ele>
        <time>2013-04-21T12:39:55Z</time>
      </trkpt>
      <trkpt lat="44.76742" lon="-0.31261">
        <ele>99</ele>
        <time>2013-04-21T12:39:56Z</time>
      </trkpt>
      <trkpt lat="44.76748" lon="-0.31269">
        <ele>98</ele>
        <time>2013-04-21T12:40:01Z</time>
      </trkpt>
      <trkpt lat="44.76755" lon="-0.31268">
        <ele>97</ele>
        <time>2013-04-21T12:40:03Z</time>
      </trkpt>
      <trkpt lat="44.76788" lon="-0.31268">
        <ele>94</ele>
        <time>2013-04-21T12:40:10Z</time>
      </trkpt>
      <trkpt lat="44.7683" lon="-0.31273">
        <ele>89</ele>
        <time>2013-04-21T12:40:18Z</time>
      </trkpt>
      <trkpt lat="44.76863" lon="-0.3128">
        <ele>87</ele>
        <time>2013-04-21T12:40:24Z</time>
      </trkpt>
      <trkpt lat="44.7688" lon="-0.31279">
        <ele>86</ele>
        <time>2013-04-21T12:40:29Z</time>
      </trkpt>
      <trkpt lat="44.76883" lon="-0.31276">
        <ele>86</ele>
        <time>2013-04-21T12:40:30Z</time>
      </trkpt>
      <trkpt lat="44.76885" lon="-0.31271">
        <ele>87</ele>
        <time>2013-04-21T12:40:31Z</time>
      </trkpt>
      <trkpt lat="44.76886" lon="-0.31267">
        <ele>88</ele>
        <time>2013-04-21T12:40:32Z</time>
      </trkpt>
      <trkpt lat="44.76887" lon="-0.31262">
        <ele>88</ele>
        <time>2013-04-21T12:40:33Z</time>
      </trkpt>
      <trkpt lat="44.76888" lon="-0.31258">
        <ele>89</ele>
        <time>2013-04-21T12:40:34Z</time>
      </trkpt>
      <trkpt lat="44.7689" lon="-0.31254">
        <ele>89</ele>
        <time>2013-04-21T12:40:35Z</time>
      </trkpt>
      <trkpt lat="44.76891" lon="-0.3125">
        <ele>89</ele>
        <time>2013-04-21T12:40:36Z</time>
      </trkpt>
      <trkpt lat="44.76892" lon="-0.31246">
        <ele>90</ele>
        <time>2013-04-21T12:40:37Z</time>
      </trkpt>
      <trkpt lat="44.76895" lon="-0.31231">
        <ele>91</ele>
        <time>2013-04-21T12:40:43Z</time>
      </trkpt>
      <trkpt lat="44.76896" lon="-0.3123">
        <ele>92</ele>
        <time>2013-04-21T12:40:44Z</time>
      </trkpt>
      <trkpt lat="44.76897" lon="-0.31229">
        <ele>92</ele>
        <time>2013-04-21T12:40:45Z</time>
      </trkpt>
      <trkpt lat="44.76898" lon="-0.31228">
        <ele>92</ele>
        <time>2013-04-21T12:40:46Z</time>
      </trkpt>
      <trkpt lat="44.769" lon="-0.31228">
        <ele>91</ele>
        <time>2013-04-21T12:40:47Z</time>
      </trkpt>
      <trkpt lat="44.76902" lon="-0.31227">
        <ele>91</ele>
        <time>2013-04-21T12:40:48Z</time>
      </trkpt>
      <trkpt lat="44.76904" lon="-0.31227">
        <ele>91</ele>
        <time>2013-04-21T12:40:49Z</time>
      </trkpt>
      <trkpt lat="44.76907" lon="-0.31226">
        <ele>91</ele>
        <time>2013-04-21T12:40:50Z</time>
      </trkpt>
      <trkpt lat="44.76909" lon="-0.31225">
        <ele>90</ele>
        <time>2013-04-21T12:40:51Z</time>
      </trkpt>
      <trkpt lat="44.76911" lon="-0.31225">
        <ele>90</ele>
        <time>2013-04-21T12:40:52Z</time>
      </trkpt>
      <trkpt lat="44.76913" lon="-0.31226">
        <ele>90</ele>
        <time>2013-04-21T12:40:53Z</time>
      </trkpt>
      <trkpt lat="44.76921" lon="-0.31223">
        <ele>89</ele>
        <time>2013-04-21T12:40:56Z</time>
      </trkpt>
      <trkpt lat="44.76926" lon="-0.31218">
        <ele>89</ele>
        <time>2013-04-21T12:40:58Z</time>
      </trkpt>
      <trkpt lat="44.76931" lon="-0.31188">
        <ele>88</ele>
        <time>2013-04-21T12:41:05Z</time>
      </trkpt>
      <trkpt lat="44.76927" lon="-0.3116">
        <ele>89</ele>
        <time>2013-04-21T12:41:12Z</time>
      </trkpt>
      <trkpt lat="44.76926" lon="-0.3113">
        <ele>89</ele>
        <time>2013-04-21T12:41:20Z</time>
      </trkpt>
      <trkpt lat="44.76935" lon="-0.31107">
        <ele>88</ele>
        <time>2013-04-21T12:41:27Z</time>
      </trkpt>
      <trkpt lat="44.76945" lon="-0.31097">
        <ele>86</ele>
        <time>2013-04-21T12:41:34Z</time>
      </trkpt>
      <trkpt lat="44.76949" lon="-0.31092">
        <ele>85</ele>
        <time>2013-04-21T12:41:36Z</time>
      </trkpt>
      <trkpt lat="44.7695" lon="-0.31088">
        <ele>85</ele>
        <time>2013-04-21T12:41:37Z</time>
      </trkpt>
      <trkpt lat="44.76957" lon="-0.31073">
        <ele>84</ele>
        <time>2013-04-21T12:41:40Z</time>
      </trkpt>
      <trkpt lat="44.7696" lon="-0.31069">
        <ele>84</ele>
        <time>2013-04-21T12:41:41Z</time>
      </trkpt>
      <trkpt lat="44.76989" lon="-0.31032">
        <ele>82</ele>
        <time>2013-04-21T12:41:48Z</time>
      </trkpt>
      <trkpt lat="44.77021" lon="-0.30987">
        <ele>79</ele>
        <time>2013-04-21T12:41:55Z</time>
      </trkpt>
      <trkpt lat="44.77038" lon="-0.30957">
        <ele>78</ele>
        <time>2013-04-21T12:42:00Z</time>
      </trkpt>
      <trkpt lat="44.77039" lon="-0.3095">
        <ele>78</ele>
        <time>2013-04-21T12:42:01Z</time>
      </trkpt>
      <trkpt lat="44.77037" lon="-0.30944">
        <ele>78</ele>
        <time>2013-04-21T12:42:02Z</time>
      </trkpt>
      <trkpt lat="44.77035" lon="-0.30939">
        <ele>78</ele>
        <time>2013-04-21T12:42:03Z</time>
      </trkpt>
      <trkpt lat="44.77032" lon="-0.30935">
        <ele>78</ele>
        <time>2013-04-21T12:42:04Z</time>
      </trkpt>
      <trkpt lat="44.77028" lon="-0.3093">
        <ele>78</ele>
        <time>2013-04-21T12:42:05Z</time>
      </trkpt>
      <trkpt lat="44.77024" lon="-0.30925">
        <ele>79</ele>
        <time>2013-04-21T12:42:06Z</time>
      </trkpt>
      <trkpt lat="44.76992" lon="-0.30881">
        <ele>80</ele>
        <time>2013-04-21T12:42:15Z</time>
      </trkpt>
      <trkpt lat="44.76985" lon="-0.30871">
        <ele>80</ele>
        <time>2013-04-21T12:42:17Z</time>
      </trkpt>
      <trkpt lat="44.76982" lon="-0.30866">
        <ele>80</ele>
        <time>2013-04-21T12:42:18Z</time>
      </trkpt>
      <trkpt lat="44.76973" lon="-0.30852">
        <ele>81</ele>
        <time>2013-04-21T12:42:21Z</time>
      </trkpt>
      <trkpt lat="44.76971" lon="-0.30846">
        <ele>81</ele>
        <time>2013-04-21T12:42:22Z</time>
      </trkpt>
      <trkpt lat="44.7697" lon="-0.3084">
        <ele>81</ele>
        <time>2013-04-21T12:42:23Z</time>
      </trkpt>
      <trkpt lat="44.76972" lon="-0.30835">
        <ele>81</ele>
        <time>2013-04-21T12:42:24Z</time>
      </trkpt>
      <trkpt lat="44.76974" lon="-0.30829">
        <ele>81</ele>
        <time>2013-04-21T12:42:25Z</time>
      </trkpt>
      <trkpt lat="44.76996" lon="-0.30783">
        <ele>79</ele>
        <time>2013-04-21T12:42:32Z</time>
      </trkpt>
      <trkpt lat="44.77019" lon="-0.30713">
        <ele>76</ele>
        <time>2013-04-21T12:42:40Z</time>
      </trkpt>
      <trkpt lat="44.77023" lon="-0.30693">
        <ele>75</ele>
        <time>2013-04-21T12:42:42Z</time>
      </trkpt>
      <trkpt lat="44.77023" lon="-0.30683">
        <ele>74</ele>
        <time>2013-04-21T12:42:43Z</time>
      </trkpt>
      <trkpt lat="44.77022" lon="-0.30672">
        <ele>74</ele>
        <time>2013-04-21T12:42:44Z</time>
      </trkpt>
      <trkpt lat="44.77019" lon="-0.30663">
        <ele>73</ele>
        <time>2013-04-21T12:42:45Z</time>
      </trkpt>
      <trkpt lat="44.77014" lon="-0.30656">
        <ele>73</ele>
        <time>2013-04-21T12:42:46Z</time>
      </trkpt>
      <trkpt lat="44.77008" lon="-0.30651">
        <ele>73</ele>
        <time>2013-04-21T12:42:47Z</time>
      </trkpt>
      <trkpt lat="44.77002" lon="-0.30647">
        <ele>73</ele>
        <time>2013-04-21T12:42:48Z</time>
      </trkpt>
      <trkpt lat="44.76995" lon="-0.30644">
        <ele>73</ele>
        <time>2013-04-21T12:42:49Z</time>
      </trkpt>
      <trkpt lat="44.76988" lon="-0.30641">
        <ele>73</ele>
        <time>2013-04-21T12:42:50Z</time>
      </trkpt>
      <trkpt lat="44.76935" lon="-0.30623">
        <ele>72</ele>
        <time>2013-04-21T12:42:58Z</time>
      </trkpt>
      <trkpt lat="44.76924" lon="-0.30618">
        <ele>72</ele>
        <time>2013-04-21T12:43:00Z</time>
      </trkpt>
      <trkpt lat="44.76921" lon="-0.30614">
        <ele>72</ele>
        <time>2013-04-21T12:43:01Z</time>
      </trkpt>
      <trkpt lat="44.76919" lon="-0.30608">
        <ele>72</ele>
        <time>2013-04-21T12:43:02Z</time>
      </trkpt>
      <trkpt lat="44.76919" lon="-0.30601">
        <ele>72</ele>
        <time>2013-04-21T12:43:03Z</time>
      </trkpt>
      <trkpt lat="44.7692" lon="-0.30594">
        <ele>71</ele>
        <time>2013-04-21T12:43:04Z</time>
      </trkpt>
      <trkpt lat="44.76921" lon="-0.30587">
        <ele>71</ele>
        <time>2013-04-21T12:43:05Z</time>
      </trkpt>
      <trkpt lat="44.76923" lon="-0.30581">
        <ele>71</ele>
        <time>2013-04-21T12:43:06Z</time>
      </trkpt>
      <trkpt lat="44.76942" lon="-0.30512">
        <ele>70</ele>
        <time>2013-04-21T12:43:16Z</time>
      </trkpt>
      <trkpt lat="44.76945" lon="-0.30498">
        <ele>70</ele>
        <time>2013-04-21T12:43:18Z</time>
      </trkpt>
      <trkpt lat="44.76962" lon="-0.30412">
        <ele>72</ele>
        <time>2013-04-21T12:43:26Z</time>
      </trkpt>
      <trkpt lat="44.76969" lon="-0.30349">
        <ele>74</ele>
        <time>2013-04-21T12:43:32Z</time>
      </trkpt>
      <trkpt lat="44.7696" lon="-0.3023">
        <ele>78</ele>
        <time>2013-04-21T12:43:33Z</time>
      </trkpt>
      <trkpt lat="44.76908" lon="-0.3006">
        <ele>81</ele>
        <time>2013-04-21T12:43:34Z</time>
      </trkpt>
      <trkpt lat="44.76786" lon="-0.2983">
        <ele>93</ele>
        <time>2013-04-21T12:43:35Z</time>
      </trkpt>
      <trkpt lat="44.76735" lon="-0.29749">
        <ele>100</ele>
        <time>2013-04-21T12:43:37Z</time>
      </trkpt>
      <trkpt lat="44.76664" lon="-0.29765">
        <ele>105</ele>
        <time>2013-04-21T12:53:24Z</time>
      </trkpt>
      <trkpt lat="44.766" lon="-0.29755">
        <ele>106</ele>
        <time>2013-04-21T12:53:29Z</time>
      </trkpt>
      <trkpt lat="44.76492" lon="-0.2975">
        <ele>105</ele>
        <time>2013-04-21T12:53:33Z</time>
      </trkpt>
      <trkpt lat="44.76484" lon="-0.29746">
        <ele>105</ele>
        <time>2013-04-21T12:53:41Z</time>
      </trkpt>
      <trkpt lat="44.76483" lon="-0.29746">
        <ele>105</ele>
        <time>2013-04-21T12:53:49Z</time>
      </trkpt>
      <trkpt lat="44.76483" lon="-0.29746">
        <ele>105</ele>
        <time>2013-04-21T12:54:02Z</time>
      </trkpt>
      <trkpt lat="44.76482" lon="-0.29746">
        <ele>105</ele>
        <time>2013-04-21T12:54:10Z</time>
      </trkpt>
      <trkpt lat="44.7648" lon="-0.29746">
        <ele>105</ele>
        <time>2013-04-21T12:54:18Z</time>
      </trkpt>
      <trkpt lat="44.76476" lon="-0.29746">
        <ele>104</ele>
        <time>2013-04-21T12:54:22Z</time>
      </trkpt>
      <trkpt lat="44.76474" lon="-0.29745">
        <ele>104</ele>
        <time>2013-04-21T12:54:24Z</time>
      </trkpt>
      <trkpt lat="44.7647" lon="-0.29745">
        <ele>104</ele>
        <time>2013-04-21T12:54:27Z</time>
      </trkpt>
      <trkpt lat="44.76456" lon="-0.29734">
        <ele>104</ele>
        <time>2013-04-21T12:54:34Z</time>
      </trkpt>
      <trkpt lat="44.76447" lon="-0.29711">
        <ele>104</ele>
        <time>2013-04-21T12:54:40Z</time>
      </trkpt>
      <trkpt lat="44.76445" lon="-0.2968">
        <ele>105</ele>
        <time>2013-04-21T12:54:47Z</time>
      </trkpt>
      <trkpt lat="44.76441" lon="-0.29672">
        <ele>105</ele>
        <time>2013-04-21T12:54:49Z</time>
      </trkpt>
      <trkpt lat="44.76414" lon="-0.29658">
        <ele>105</ele>
        <time>2013-04-21T12:54:58Z</time>
      </trkpt>
      <trkpt lat="44.76393" lon="-0.29644">
        <ele>105</ele>
        <time>2013-04-21T12:55:05Z</time>
      </trkpt>
      <trkpt lat="44.76375" lon="-0.29629">
        <ele>106</ele>
        <time>2013-04-21T12:55:11Z</time>
      </trkpt>
      <trkpt lat="44.76357" lon="-0.29608">
        <ele>106</ele>
        <time>2013-04-21T12:55:17Z</time>
      </trkpt>
      <trkpt lat="44.76349" lon="-0.29594">
        <ele>105</ele>
        <time>2013-04-21T12:55:20Z</time>
      </trkpt>
      <trkpt lat="44.76331" lon="-0.29568">
        <ele>105</ele>
        <time>2013-04-21T12:55:27Z</time>
      </trkpt>
      <trkpt lat="44.76316" lon="-0.2955">
        <ele>105</ele>
        <time>2013-04-21T12:55:33Z</time>
      </trkpt>
      <trkpt lat="44.76302" lon="-0.29535">
        <ele>105</ele>
        <time>2013-04-21T12:55:38Z</time>
      </trkpt>
      <trkpt lat="44.76286" lon="-0.29516">
        <ele>104</ele>
        <time>2013-04-21T12:55:44Z</time>
      </trkpt>
      <trkpt lat="44.76265" lon="-0.29496">
        <ele>105</ele>
        <time>2013-04-21T12:55:51Z</time>
      </trkpt>
      <trkpt lat="44.76243" lon="-0.29478">
        <ele>105</ele>
        <time>2013-04-21T12:55:59Z</time>
      </trkpt>
      <trkpt lat="44.76221" lon="-0.29464">
        <ele>105</ele>
        <time>2013-04-21T12:56:07Z</time>
      </trkpt>
      <trkpt lat="44.76199" lon="-0.29447">
        <ele>106</ele>
        <time>2013-04-21T12:56:15Z</time>
      </trkpt>
      <trkpt lat="44.76186" lon="-0.29432">
        <ele>107</ele>
        <time>2013-04-21T12:56:21Z</time>
      </trkpt>
      <trkpt lat="44.76172" lon="-0.29401">
        <ele>107</ele>
        <time>2013-04-21T12:56:30Z</time>
      </trkpt>
      <trkpt lat="44.76159" lon="-0.29372">
        <ele>107</ele>
        <time>2013-04-21T12:56:38Z</time>
      </trkpt>
      <trkpt lat="44.76152" lon="-0.29358">
        <ele>107</ele>
        <time>2013-04-21T12:56:43Z</time>
      </trkpt>
      <trkpt lat="44.76146" lon="-0.29349">
        <ele>107</ele>
        <time>2013-04-21T12:56:47Z</time>
      </trkpt>
      <trkpt lat="44.76138" lon="-0.29349">
        <ele>107</ele>
        <time>2013-04-21T12:56:51Z</time>
      </trkpt>
      <trkpt lat="44.76125" lon="-0.29365">
        <ele>107</ele>
        <time>2013-04-21T12:56:58Z</time>
      </trkpt>
      <trkpt lat="44.76104" lon="-0.29393">
        <ele>107</ele>
        <time>2013-04-21T12:57:08Z</time>
      </trkpt>
      <trkpt lat="44.76082" lon="-0.29422">
        <ele>108</ele>
        <time>2013-04-21T12:57:17Z</time>
      </trkpt>
      <trkpt lat="44.76062" lon="-0.29447">
        <ele>109</ele>
        <time>2013-04-21T12:57:25Z</time>
      </trkpt>
      <trkpt lat="44.76031" lon="-0.29488">
        <ele>110</ele>
        <time>2013-04-21T12:57:37Z</time>
      </trkpt>
      <trkpt lat="44.76016" lon="-0.29507">
        <ele>110</ele>
        <time>2013-04-21T12:57:43Z</time>
      </trkpt>
      <trkpt lat="44.75999" lon="-0.29498">
        <ele>109</ele>
        <time>2013-04-21T12:57:48Z</time>
      </trkpt>
      <trkpt lat="44.75989" lon="-0.2949">
        <ele>109</ele>
        <time>2013-04-21T12:57:51Z</time>
      </trkpt>
      <trkpt lat="44.75951" lon="-0.29462">
        <ele>107</ele>
        <time>2013-04-21T12:58:00Z</time>
      </trkpt>
      <trkpt lat="44.75916" lon="-0.29427">
        <ele>106</ele>
        <time>2013-04-21T12:58:08Z</time>
      </trkpt>
      <trkpt lat="44.75879" lon="-0.29377">
        <ele>107</ele>
        <time>2013-04-21T12:58:17Z</time>
      </trkpt>
      <trkpt lat="44.75864" lon="-0.29357">
        <ele>107</ele>
        <time>2013-04-21T12:58:21Z</time>
      </trkpt>
      <trkpt lat="44.7586" lon="-0.29353">
        <ele>107</ele>
        <time>2013-04-21T12:58:22Z</time>
      </trkpt>
      <trkpt lat="44.75856" lon="-0.29349">
        <ele>107</ele>
        <time>2013-04-21T12:58:23Z</time>
      </trkpt>
      <trkpt lat="44.75852" lon="-0.29347">
        <ele>107</ele>
        <time>2013-04-21T12:58:24Z</time>
      </trkpt>
      <trkpt lat="44.75848" lon="-0.29347">
        <ele>107</ele>
        <time>2013-04-21T12:58:25Z</time>
      </trkpt>
      <trkpt lat="44.75844" lon="-0.29348">
        <ele>108</ele>
        <time>2013-04-21T12:58:26Z</time>
      </trkpt>
      <trkpt lat="44.75841" lon="-0.29351">
        <ele>108</ele>
        <time>2013-04-21T12:58:27Z</time>
      </trkpt>
      <trkpt lat="44.75838" lon="-0.29355">
        <ele>108</ele>
        <time>2013-04-21T12:58:28Z</time>
      </trkpt>
      <trkpt lat="44.75835" lon="-0.29359">
        <ele>108</ele>
        <time>2013-04-21T12:58:29Z</time>
      </trkpt>
      <trkpt lat="44.75832" lon="-0.29364">
        <ele>108</ele>
        <time>2013-04-21T12:58:30Z</time>
      </trkpt>
      <trkpt lat="44.75829" lon="-0.29369">
        <ele>108</ele>
        <time>2013-04-21T12:58:31Z</time>
      </trkpt>
      <trkpt lat="44.75826" lon="-0.29374">
        <ele>108</ele>
        <time>2013-04-21T12:58:32Z</time>
      </trkpt>
      <trkpt lat="44.75802" lon="-0.2941">
        <ele>107</ele>
        <time>2013-04-21T12:58:39Z</time>
      </trkpt>
      <trkpt lat="44.7578" lon="-0.29445">
        <ele>106</ele>
        <time>2013-04-21T12:58:45Z</time>
      </trkpt>
      <trkpt lat="44.75773" lon="-0.29454">
        <ele>106</ele>
        <time>2013-04-21T12:58:47Z</time>
      </trkpt>
      <trkpt lat="44.75761" lon="-0.29469">
        <ele>105</ele>
        <time>2013-04-21T12:58:51Z</time>
      </trkpt>
      <trkpt lat="44.75761" lon="-0.29475">
        <ele>105</ele>
        <time>2013-04-21T12:58:52Z</time>
      </trkpt>
      <trkpt lat="44.75762" lon="-0.29481">
        <ele>105</ele>
        <time>2013-04-21T12:58:53Z</time>
      </trkpt>
      <trkpt lat="44.75766" lon="-0.29498">
        <ele>104</ele>
        <time>2013-04-21T12:58:56Z</time>
      </trkpt>
      <trkpt lat="44.75765" lon="-0.29505">
        <ele>104</ele>
        <time>2013-04-21T12:58:57Z</time>
      </trkpt>
      <trkpt lat="44.75762" lon="-0.29511">
        <ele>104</ele>
        <time>2013-04-21T12:58:58Z</time>
      </trkpt>
      <trkpt lat="44.75758" lon="-0.29516">
        <ele>104</ele>
        <time>2013-04-21T12:58:59Z</time>
      </trkpt>
      <trkpt lat="44.75755" lon="-0.29521">
        <ele>104</ele>
        <time>2013-04-21T12:59:00Z</time>
      </trkpt>
      <trkpt lat="44.75752" lon="-0.29526">
        <ele>104</ele>
        <time>2013-04-21T12:59:01Z</time>
      </trkpt>
      <trkpt lat="44.7575" lon="-0.2953">
        <ele>104</ele>
        <time>2013-04-21T12:59:02Z</time>
      </trkpt>
      <trkpt lat="44.75748" lon="-0.29535">
        <ele>104</ele>
        <time>2013-04-21T12:59:03Z</time>
      </trkpt>
      <trkpt lat="44.75747" lon="-0.29539">
        <ele>104</ele>
        <time>2013-04-21T12:59:04Z</time>
      </trkpt>
      <trkpt lat="44.75745" lon="-0.29541">
        <ele>104</ele>
        <time>2013-04-21T12:59:05Z</time>
      </trkpt>
      <trkpt lat="44.75738" lon="-0.29549">
        <ele>104</ele>
        <time>2013-04-21T12:59:11Z</time>
      </trkpt>
      <trkpt lat="44.75737" lon="-0.29553">
        <ele>104</ele>
        <time>2013-04-21T12:59:18Z</time>
      </trkpt>
      <trkpt lat="44.75736" lon="-0.29555">
        <ele>105</ele>
        <time>2013-04-21T12:59:30Z</time>
      </trkpt>
      <trkpt lat="44.75735" lon="-0.29555">
        <ele>105</ele>
        <time>2013-04-21T12:59:40Z</time>
      </trkpt>
      <trkpt lat="44.75735" lon="-0.29555">
        <ele>105</ele>
        <time>2013-04-21T12:59:57Z</time>
      </trkpt>
      <trkpt lat="44.75734" lon="-0.29555">
        <ele>105</ele>
        <time>2013-04-21T13:00:17Z</time>
      </trkpt>
      <trkpt lat="44.75733" lon="-0.29556">
        <ele>105</ele>
        <time>2013-04-21T13:00:19Z</time>
      </trkpt>
      <trkpt lat="44.75733" lon="-0.29558">
        <ele>105</ele>
        <time>2013-04-21T13:00:20Z</time>
      </trkpt>
      <trkpt lat="44.75733" lon="-0.29559">
        <ele>105</ele>
        <time>2013-04-21T13:00:21Z</time>
      </trkpt>
      <trkpt lat="44.75728" lon="-0.29567">
        <ele>105</ele>
        <time>2013-04-21T13:00:25Z</time>
      </trkpt>
      <trkpt lat="44.75721" lon="-0.29579">
        <ele>105</ele>
        <time>2013-04-21T13:00:31Z</time>
      </trkpt>
      <trkpt lat="44.75722" lon="-0.29596">
        <ele>104</ele>
        <time>2013-04-21T13:00:35Z</time>
      </trkpt>
      <trkpt lat="44.75736" lon="-0.29619">
        <ele>102</ele>
        <time>2013-04-21T13:00:42Z</time>
      </trkpt>
      <trkpt lat="44.75745" lon="-0.29637">
        <ele>101</ele>
        <time>2013-04-21T13:00:48Z</time>
      </trkpt>
      <trkpt lat="44.7574" lon="-0.29655">
        <ele>101</ele>
        <time>2013-04-21T13:00:54Z</time>
      </trkpt>
      <trkpt lat="44.75725" lon="-0.2967">
        <ele>102</ele>
        <time>2013-04-21T13:01:01Z</time>
      </trkpt>
      <trkpt lat="44.75723" lon="-0.29672">
        <ele>102</ele>
        <time>2013-04-21T13:01:02Z</time>
      </trkpt>
      <trkpt lat="44.75713" lon="-0.29691">
        <ele>103</ele>
        <time>2013-04-21T13:01:10Z</time>
      </trkpt>
      <trkpt lat="44.75702" lon="-0.29699">
        <ele>104</ele>
        <time>2013-04-21T13:01:16Z</time>
      </trkpt>
      <trkpt lat="44.75689" lon="-0.29697">
        <ele>105</ele>
        <time>2013-04-21T13:01:24Z</time>
      </trkpt>
      <trkpt lat="44.75684" lon="-0.29696">
        <ele>105</ele>
        <time>2013-04-21T13:01:29Z</time>
      </trkpt>
      <trkpt lat="44.75679" lon="-0.29705">
        <ele>106</ele>
        <time>2013-04-21T13:01:35Z</time>
      </trkpt>
      <trkpt lat="44.75671" lon="-0.29716">
        <ele>107</ele>
        <time>2013-04-21T13:01:42Z</time>
      </trkpt>
      <trkpt lat="44.75663" lon="-0.29724">
        <ele>107</ele>
        <time>2013-04-21T13:01:48Z</time>
      </trkpt>
      <trkpt lat="44.75648" lon="-0.29733">
        <ele>108</ele>
        <time>2013-04-21T13:01:56Z</time>
      </trkpt>
      <trkpt lat="44.75634" lon="-0.29739">
        <ele>108</ele>
        <time>2013-04-21T13:02:04Z</time>
      </trkpt>
      <trkpt lat="44.75617" lon="-0.29746">
        <ele>108</ele>
        <time>2013-04-21T13:02:13Z</time>
      </trkpt>
      <trkpt lat="44.75615" lon="-0.29747">
        <ele>108</ele>
        <time>2013-04-21T13:02:14Z</time>
      </trkpt>
      <trkpt lat="44.75608" lon="-0.29744">
        <ele>108</ele>
        <time>2013-04-21T13:02:18Z</time>
      </trkpt>
      <trkpt lat="44.75603" lon="-0.29739">
        <ele>108</ele>
        <time>2013-04-21T13:02:21Z</time>
      </trkpt>
      <trkpt lat="44.75593" lon="-0.29727">
        <ele>108</ele>
        <time>2013-04-21T13:02:28Z</time>
      </trkpt>
      <trkpt lat="44.75586" lon="-0.29724">
        <ele>108</ele>
        <time>2013-04-21T13:02:33Z</time>
      </trkpt>
      <trkpt lat="44.75582" lon="-0.29707">
        <ele>109</ele>
        <time>2013-04-21T13:02:39Z</time>
      </trkpt>
      <trkpt lat="44.75581" lon="-0.29688">
        <ele>109</ele>
        <time>2013-04-21T13:02:46Z</time>
      </trkpt>
      <trkpt lat="44.75579" lon="-0.29682">
        <ele>110</ele>
        <time>2013-04-21T13:02:52Z</time>
      </trkpt>
      <trkpt lat="44.75577" lon="-0.29676">
        <ele>110</ele>
        <time>2013-04-21T13:02:58Z</time>
      </trkpt>
      <trkpt lat="44.75575" lon="-0.29672">
        <ele>110</ele>
        <time>2013-04-21T13:03:05Z</time>
      </trkpt>
      <trkpt lat="44.75573" lon="-0.29663">
        <ele>110</ele>
        <time>2013-04-21T13:03:11Z</time>
      </trkpt>
      <trkpt lat="44.75573" lon="-0.29663">
        <ele>110</ele>
        <time>2013-04-21T13:03:12Z</time>
      </trkpt>
      <trkpt lat="44.7557" lon="-0.29661">
        <ele>110</ele>
        <time>2013-04-21T13:03:19Z</time>
      </trkpt>
      <trkpt lat="44.75569" lon="-0.29658">
        <ele>110</ele>
        <time>2013-04-21T13:03:29Z</time>
      </trkpt>
      <trkpt lat="44.75566" lon="-0.29659">
        <ele>110</ele>
        <time>2013-04-21T13:03:36Z</time>
      </trkpt>
      <trkpt lat="44.75565" lon="-0.29658">
        <ele>110</ele>
        <time>2013-04-21T13:03:42Z</time>
      </trkpt>
      <trkpt lat="44.75564" lon="-0.29658">
        <ele>110</ele>
        <time>2013-04-21T13:03:51Z</time>
      </trkpt>
      <trkpt lat="44.75564" lon="-0.29658">
        <ele>110</ele>
        <time>2013-04-21T13:03:52Z</time>
      </trkpt>
      <trkpt lat="44.75561" lon="-0.2966">
        <ele>109</ele>
        <time>2013-04-21T13:03:55Z</time>
      </trkpt>
      <trkpt lat="44.75557" lon="-0.2966">
        <ele>109</ele>
        <time>2013-04-21T13:03:58Z</time>
      </trkpt>
      <trkpt lat="44.75552" lon="-0.29656">
        <ele>109</ele>
        <time>2013-04-21T13:04:05Z</time>
      </trkpt>
      <trkpt lat="44.75551" lon="-0.29654">
        <ele>109</ele>
        <time>2013-04-21T13:04:08Z</time>
      </trkpt>
      <trkpt lat="44.75547" lon="-0.29653">
        <ele>109</ele>
        <time>2013-04-21T13:04:14Z</time>
      </trkpt>
      <trkpt lat="44.75546" lon="-0.29653">
        <ele>108</ele>
        <time>2013-04-21T13:04:20Z</time>
      </trkpt>
      <trkpt lat="44.75541" lon="-0.29654">
        <ele>108</ele>
        <time>2013-04-21T13:04:25Z</time>
      </trkpt>
      <trkpt lat="44.75535" lon="-0.29653">
        <ele>107</ele>
        <time>2013-04-21T13:04:31Z</time>
      </trkpt>
      <trkpt lat="44.75534" lon="-0.2965">
        <ele>107</ele>
        <time>2013-04-21T13:04:33Z</time>
      </trkpt>
      <trkpt lat="44.75533" lon="-0.2964">
        <ele>108</ele>
        <time>2013-04-21T13:04:40Z</time>
      </trkpt>
      <trkpt lat="44.75531" lon="-0.29633">
        <ele>108</ele>
        <time>2013-04-21T13:04:47Z</time>
      </trkpt>
      <trkpt lat="44.75532" lon="-0.2963">
        <ele>108</ele>
        <time>2013-04-21T13:04:55Z</time>
      </trkpt>
      <trkpt lat="44.75533" lon="-0.29627">
        <ele>108</ele>
        <time>2013-04-21T13:05:00Z</time>
      </trkpt>
      <trkpt lat="44.75534" lon="-0.29622">
        <ele>108</ele>
        <time>2013-04-21T13:05:05Z</time>
      </trkpt>
      <trkpt lat="44.75535" lon="-0.2962">
        <ele>108</ele>
        <time>2013-04-21T13:05:10Z</time>
      </trkpt>
      <trkpt lat="44.75535" lon="-0.29618">
        <ele>108</ele>
        <time>2013-04-21T13:05:14Z</time>
      </trkpt>
      <trkpt lat="44.75537" lon="-0.29604">
        <ele>108</ele>
        <time>2013-04-21T13:05:21Z</time>
      </trkpt>
      <trkpt lat="44.75539" lon="-0.29595">
        <ele>108</ele>
        <time>2013-04-21T13:05:26Z</time>
      </trkpt>
      <trkpt lat="44.75539" lon="-0.29583">
        <ele>108</ele>
        <time>2013-04-21T13:05:33Z</time>
      </trkpt>
      <trkpt lat="44.75537" lon="-0.29568">
        <ele>109</ele>
        <time>2013-04-21T13:05:40Z</time>
      </trkpt>
      <trkpt lat="44.7554" lon="-0.2955">
        <ele>109</ele>
        <time>2013-04-21T13:05:46Z</time>
      </trkpt>
      <trkpt lat="44.7554" lon="-0.29547">
        <ele>109</ele>
        <time>2013-04-21T13:05:47Z</time>
      </trkpt>
      <trkpt lat="44.75539" lon="-0.29539">
        <ele>109</ele>
        <time>2013-04-21T13:05:54Z</time>
      </trkpt>
      <trkpt lat="44.75538" lon="-0.29536">
        <ele>109</ele>
        <time>2013-04-21T13:06:03Z</time>
      </trkpt>
      <trkpt lat="44.75538" lon="-0.29536">
        <ele>109</ele>
        <time>2013-04-21T13:06:16Z</time>
      </trkpt>
      <trkpt lat="44.75537" lon="-0.29537">
        <ele>109</ele>
        <time>2013-04-21T13:06:26Z</time>
      </trkpt>
      <trkpt lat="44.75536" lon="-0.29536">
        <ele>109</ele>
        <time>2013-04-21T13:06:39Z</time>
      </trkpt>
      <trkpt lat="44.75537" lon="-0.29537">
        <ele>109</ele>
        <time>2013-04-21T13:06:47Z</time>
      </trkpt>
      <trkpt lat="44.75536" lon="-0.29536">
        <ele>109</ele>
        <time>2013-04-21T13:06:59Z</time>
      </trkpt>
      <trkpt lat="44.75536" lon="-0.29536">
        <ele>109</ele>
        <time>2013-04-21T13:07:09Z</time>
      </trkpt>
      <trkpt lat="44.75537" lon="-0.29535">
        <ele>109</ele>
        <time>2013-04-21T13:07:22Z</time>
      </trkpt>
      <trkpt lat="44.75536" lon="-0.29535">
        <ele>109</ele>
        <time>2013-04-21T13:07:35Z</time>
      </trkpt>
      <trkpt lat="44.75518" lon="-0.29535">
        <ele>108</ele>
        <time>2013-04-21T13:07:43Z</time>
      </trkpt>
      <trkpt lat="44.755" lon="-0.29532">
        <ele>105</ele>
        <time>2013-04-21T13:07:49Z</time>
      </trkpt>
      <trkpt lat="44.75493" lon="-0.29525">
        <ele>104</ele>
        <time>2013-04-21T13:07:54Z</time>
      </trkpt>
      <trkpt lat="44.75493" lon="-0.2951">
        <ele>104</ele>
        <time>2013-04-21T13:07:58Z</time>
      </trkpt>
      <trkpt lat="44.75492" lon="-0.29476">
        <ele>105</ele>
        <time>2013-04-21T13:08:06Z</time>
      </trkpt>
      <trkpt lat="44.75489" lon="-0.29448">
        <ele>105</ele>
        <time>2013-04-21T13:08:13Z</time>
      </trkpt>
      <trkpt lat="44.75488" lon="-0.29422">
        <ele>106</ele>
        <time>2013-04-21T13:08:20Z</time>
      </trkpt>
      <trkpt lat="44.75477" lon="-0.29411">
        <ele>105</ele>
        <time>2013-04-21T13:08:27Z</time>
      </trkpt>
      <trkpt lat="44.75473" lon="-0.29401">
        <ele>106</ele>
        <time>2013-04-21T13:08:33Z</time>
      </trkpt>
      <trkpt lat="44.75471" lon="-0.29393">
        <ele>106</ele>
        <time>2013-04-21T13:08:36Z</time>
      </trkpt>
      <trkpt lat="44.75468" lon="-0.29367">
        <ele>107</ele>
        <time>2013-04-21T13:08:45Z</time>
      </trkpt>
      <trkpt lat="44.75466" lon="-0.29346">
        <ele>108</ele>
        <time>2013-04-21T13:08:53Z</time>
      </trkpt>
      <trkpt lat="44.75466" lon="-0.29326">
        <ele>109</ele>
        <time>2013-04-21T13:09:00Z</time>
      </trkpt>
      <trkpt lat="44.75458" lon="-0.29309">
        <ele>110</ele>
        <time>2013-04-21T13:09:07Z</time>
      </trkpt>
      <trkpt lat="44.75451" lon="-0.29306">
        <ele>110</ele>
        <time>2013-04-21T13:09:11Z</time>
      </trkpt>
      <trkpt lat="44.75431" lon="-0.29309">
        <ele>110</ele>
        <time>2013-04-21T13:09:21Z</time>
      </trkpt>
      <trkpt lat="44.75424" lon="-0.29309">
        <ele>111</ele>
        <time>2013-04-21T13:09:25Z</time>
      </trkpt>
      <trkpt lat="44.75422" lon="-0.2929">
        <ele>111</ele>
        <time>2013-04-21T13:09:33Z</time>
      </trkpt>
      <trkpt lat="44.75419" lon="-0.2927">
        <ele>112</ele>
        <time>2013-04-21T13:09:40Z</time>
      </trkpt>
      <trkpt lat="44.7541" lon="-0.29263">
        <ele>113</ele>
        <time>2013-04-21T13:09:46Z</time>
      </trkpt>
      <trkpt lat="44.75402" lon="-0.29264">
        <ele>113</ele>
        <time>2013-04-21T13:09:51Z</time>
      </trkpt>
      <trkpt lat="44.75389" lon="-0.29269">
        <ele>114</ele>
        <time>2013-04-21T13:09:59Z</time>
      </trkpt>
      <trkpt lat="44.75384" lon="-0.29272">
        <ele>115</ele>
        <time>2013-04-21T13:10:02Z</time>
      </trkpt>
      <trkpt lat="44.75374" lon="-0.2928">
        <ele>115</ele>
        <time>2013-04-21T13:10:08Z</time>
      </trkpt>
      <trkpt lat="44.7536" lon="-0.2929">
        <ele>116</ele>
        <time>2013-04-21T13:10:16Z</time>
      </trkpt>
      <trkpt lat="44.75347" lon="-0.293">
        <ele>117</ele>
        <time>2013-04-21T13:10:23Z</time>
      </trkpt>
      <trkpt lat="44.75336" lon="-0.29311">
        <ele>117</ele>
        <time>2013-04-21T13:10:29Z</time>
      </trkpt>
      <trkpt lat="44.75334" lon="-0.29312">
        <ele>117</ele>
        <time>2013-04-21T13:10:30Z</time>
      </trkpt>
      <trkpt lat="44.75325" lon="-0.29308">
        <ele>117</ele>
        <time>2013-04-21T13:10:35Z</time>
      </trkpt>
      <trkpt lat="44.75317" lon="-0.29312">
        <ele>117</ele>
        <time>2013-04-21T13:10:40Z</time>
      </trkpt>
      <trkpt lat="44.75307" lon="-0.29318">
        <ele>117</ele>
        <time>2013-04-21T13:10:47Z</time>
      </trkpt>
      <trkpt lat="44.75308" lon="-0.29318">
        <ele>117</ele>
        <time>2013-04-21T13:10:58Z</time>
      </trkpt>
      <trkpt lat="44.75308" lon="-0.29318">
        <ele>117</ele>
        <time>2013-04-21T13:11:10Z</time>
      </trkpt>
      <trkpt lat="44.75308" lon="-0.29318">
        <ele>117</ele>
        <time>2013-04-21T13:11:22Z</time>
      </trkpt>
      <trkpt lat="44.75307" lon="-0.29317">
        <ele>117</ele>
        <time>2013-04-21T13:11:34Z</time>
      </trkpt>
      <trkpt lat="44.75307" lon="-0.29317">
        <ele>117</ele>
        <time>2013-04-21T13:11:42Z</time>
      </trkpt>
      <trkpt lat="44.75303" lon="-0.29326">
        <ele>117</ele>
        <time>2013-04-21T13:11:46Z</time>
      </trkpt>
      <trkpt lat="44.75287" lon="-0.29346">
        <ele>116</ele>
        <time>2013-04-21T13:11:53Z</time>
      </trkpt>
      <trkpt lat="44.75264" lon="-0.29367">
        <ele>115</ele>
        <time>2013-04-21T13:11:59Z</time>
      </trkpt>
      <trkpt lat="44.7526" lon="-0.2937">
        <ele>115</ele>
        <time>2013-04-21T13:12:00Z</time>
      </trkpt>
      <trkpt lat="44.75255" lon="-0.29372">
        <ele>115</ele>
        <time>2013-04-21T13:12:01Z</time>
      </trkpt>
      <trkpt lat="44.7525" lon="-0.29373">
        <ele>115</ele>
        <time>2013-04-21T13:12:02Z</time>
      </trkpt>
      <trkpt lat="44.75245" lon="-0.29374">
        <ele>115</ele>
        <time>2013-04-21T13:12:03Z</time>
      </trkpt>
      <trkpt lat="44.75194" lon="-0.29382">
        <ele>113</ele>
        <time>2013-04-21T13:12:12Z</time>
      </trkpt>
      <trkpt lat="44.75176" lon="-0.29386">
        <ele>112</ele>
        <time>2013-04-21T13:12:15Z</time>
      </trkpt>
      <trkpt lat="44.75133" lon="-0.29395">
        <ele>109</ele>
        <time>2013-04-21T13:12:22Z</time>
      </trkpt>
      <trkpt lat="44.75119" lon="-0.29395">
        <ele>108</ele>
        <time>2013-04-21T13:12:24Z</time>
      </trkpt>
      <trkpt lat="44.75112" lon="-0.29394">
        <ele>108</ele>
        <time>2013-04-21T13:12:25Z</time>
      </trkpt>
      <trkpt lat="44.75106" lon="-0.29392">
        <ele>107</ele>
        <time>2013-04-21T13:12:26Z</time>
      </trkpt>
      <trkpt lat="44.75099" lon="-0.29388">
        <ele>107</ele>
        <time>2013-04-21T13:12:27Z</time>
      </trkpt>
      <trkpt lat="44.75092" lon="-0.29384">
        <ele>107</ele>
        <time>2013-04-21T13:12:28Z</time>
      </trkpt>
      <trkpt lat="44.75031" lon="-0.29343">
        <ele>106</ele>
        <time>2013-04-21T13:12:37Z</time>
      </trkpt>
      <trkpt lat="44.74986" lon="-0.29309">
        <ele>106</ele>
        <time>2013-04-21T13:12:44Z</time>
      </trkpt>
      <trkpt lat="44.74939" lon="-0.29266">
        <ele>107</ele>
        <time>2013-04-21T13:12:52Z</time>
      </trkpt>
      <trkpt lat="44.74928" lon="-0.29257">
        <ele>108</ele>
        <time>2013-04-21T13:12:54Z</time>
      </trkpt>
      <trkpt lat="44.74902" lon="-0.29241">
        <ele>108</ele>
        <time>2013-04-21T13:12:58Z</time>
      </trkpt>
      <trkpt lat="44.74853" lon="-0.29224">
        <ele>106</ele>
        <time>2013-04-21T13:13:06Z</time>
      </trkpt>
      <trkpt lat="44.74847" lon="-0.29223">
        <ele>106</ele>
        <time>2013-04-21T13:13:07Z</time>
      </trkpt>
      <trkpt lat="44.74793" lon="-0.29218">
        <ele>108</ele>
        <time>2013-04-21T13:13:16Z</time>
      </trkpt>
      <trkpt lat="44.74753" lon="-0.29214">
        <ele>109</ele>
        <time>2013-04-21T13:13:24Z</time>
      </trkpt>
      <trkpt lat="44.74714" lon="-0.29208">
        <ele>109</ele>
        <time>2013-04-21T13:13:34Z</time>
      </trkpt>
      <trkpt lat="44.74706" lon="-0.29192">
        <ele>110</ele>
        <time>2013-04-21T13:13:38Z</time>
      </trkpt>
      <trkpt lat="44.74706" lon="-0.29165">
        <ele>111</ele>
        <time>2013-04-21T13:13:46Z</time>
      </trkpt>
      <trkpt lat="44.74705" lon="-0.29141">
        <ele>111</ele>
        <time>2013-04-21T13:13:54Z</time>
      </trkpt>
      <trkpt lat="44.74705" lon="-0.29109">
        <ele>111</ele>
        <time>2013-04-21T13:14:04Z</time>
      </trkpt>
      <trkpt lat="44.74705" lon="-0.29089">
        <ele>111</ele>
        <time>2013-04-21T13:14:10Z</time>
      </trkpt>
      <trkpt lat="44.74704" lon="-0.29058">
        <ele>111</ele>
        <time>2013-04-21T13:14:18Z</time>
      </trkpt>
      <trkpt lat="44.74703" lon="-0.29055">
        <ele>111</ele>
        <time>2013-04-21T13:14:19Z</time>
      </trkpt>
      <trkpt lat="44.74693" lon="-0.29024">
        <ele>111</ele>
        <time>2013-04-21T13:14:27Z</time>
      </trkpt>
      <trkpt lat="44.74684" lon="-0.29005">
        <ele>110</ele>
        <time>2013-04-21T13:14:34Z</time>
      </trkpt>
      <trkpt lat="44.74685" lon="-0.29002">
        <ele>110</ele>
        <time>2013-04-21T13:14:39Z</time>
      </trkpt>
      <trkpt lat="44.74685" lon="-0.29002">
        <ele>110</ele>
        <time>2013-04-21T13:14:46Z</time>
      </trkpt>
      <trkpt lat="44.74685" lon="-0.29002">
        <ele>110</ele>
        <time>2013-04-21T13:14:56Z</time>
      </trkpt>
      <trkpt lat="44.74685" lon="-0.29004">
        <ele>110</ele>
        <time>2013-04-21T13:15:12Z</time>
      </trkpt>
      <trkpt lat="44.74685" lon="-0.29004">
        <ele>110</ele>
        <time>2013-04-21T13:15:26Z</time>
      </trkpt>
      <trkpt lat="44.74685" lon="-0.29004">
        <ele>110</ele>
        <time>2013-04-21T13:15:37Z</time>
      </trkpt>
      <trkpt lat="44.74685" lon="-0.29004">
        <ele>110</ele>
        <time>2013-04-21T13:15:50Z</time>
      </trkpt>
      <trkpt lat="44.74685" lon="-0.29005">
        <ele>110</ele>
        <time>2013-04-21T13:16:02Z</time>
      </trkpt>
      <trkpt lat="44.74685" lon="-0.29003">
        <ele>110</ele>
        <time>2013-04-21T13:16:11Z</time>
      </trkpt>
      <trkpt lat="44.74685" lon="-0.29003">
        <ele>110</ele>
        <time>2013-04-21T13:16:19Z</time>
      </trkpt>
      <trkpt lat="44.74688" lon="-0.29002">
        <ele>110</ele>
        <time>2013-04-21T13:16:24Z</time>
      </trkpt>
      <trkpt lat="44.74694" lon="-0.28987">
        <ele>110</ele>
        <time>2013-04-21T13:16:28Z</time>
      </trkpt>
      <trkpt lat="44.74701" lon="-0.28977">
        <ele>110</ele>
        <time>2013-04-21T13:16:30Z</time>
      </trkpt>
      <trkpt lat="44.74715" lon="-0.28952">
        <ele>109</ele>
        <time>2013-04-21T13:16:34Z</time>
      </trkpt>
      <trkpt lat="44.74733" lon="-0.28925">
        <ele>107</ele>
        <time>2013-04-21T13:16:39Z</time>
      </trkpt>
      <trkpt lat="44.74737" lon="-0.28919">
        <ele>107</ele>
        <time>2013-04-21T13:16:40Z</time>
      </trkpt>
      <trkpt lat="44.74758" lon="-0.28888">
        <ele>104</ele>
        <time>2013-04-21T13:16:45Z</time>
      </trkpt>
      <trkpt lat="44.7478" lon="-0.28856">
        <ele>101</ele>
        <time>2013-04-21T13:16:51Z</time>
      </trkpt>
      <trkpt lat="44.74793" lon="-0.28835">
        <ele>99</ele>
        <time>2013-04-21T13:16:57Z</time>
      </trkpt>
      <trkpt lat="44.74801" lon="-0.28823">
        <ele>97</ele>
        <time>2013-04-21T13:17:00Z</time>
      </trkpt>
      <trkpt lat="44.74821" lon="-0.28793">
        <ele>92</ele>
        <time>2013-04-21T13:17:04Z</time>
      </trkpt>
      <trkpt lat="44.74854" lon="-0.28745">
        <ele>87</ele>
        <time>2013-04-21T13:17:09Z</time>
      </trkpt>
      <trkpt lat="44.74862" lon="-0.28728">
        <ele>87</ele>
        <time>2013-04-21T13:17:12Z</time>
      </trkpt>
      <trkpt lat="44.74863" lon="-0.28717">
        <ele>88</ele>
        <time>2013-04-21T13:17:16Z</time>
      </trkpt>
      <trkpt lat="44.74863" lon="-0.28715">
        <ele>88</ele>
        <time>2013-04-21T13:17:17Z</time>
      </trkpt>
      <trkpt lat="44.74863" lon="-0.28713">
        <ele>88</ele>
        <time>2013-04-21T13:17:18Z</time>
      </trkpt>
      <trkpt lat="44.74863" lon="-0.28711">
        <ele>88</ele>
        <time>2013-04-21T13:17:19Z</time>
      </trkpt>
      <trkpt lat="44.74861" lon="-0.28706">
        <ele>88</ele>
        <time>2013-04-21T13:17:23Z</time>
      </trkpt>
      <trkpt lat="44.74861" lon="-0.28702">
        <ele>88</ele>
        <time>2013-04-21T13:17:28Z</time>
      </trkpt>
      <trkpt lat="44.74861" lon="-0.28701">
        <ele>88</ele>
        <time>2013-04-21T13:17:36Z</time>
      </trkpt>
      <trkpt lat="44.74861" lon="-0.28696">
        <ele>88</ele>
        <time>2013-04-21T13:17:48Z</time>
      </trkpt>
      <trkpt lat="44.74861" lon="-0.28695">
        <ele>88</ele>
        <time>2013-04-21T13:17:49Z</time>
      </trkpt>
      <trkpt lat="44.74861" lon="-0.28693">
        <ele>88</ele>
        <time>2013-04-21T13:17:50Z</time>
      </trkpt>
      <trkpt lat="44.74861" lon="-0.2869">
        <ele>88</ele>
        <time>2013-04-21T13:17:51Z</time>
      </trkpt>
      <trkpt lat="44.7486" lon="-0.28688">
        <ele>88</ele>
        <time>2013-04-21T13:17:52Z</time>
      </trkpt>
      <trkpt lat="44.74858" lon="-0.28686">
        <ele>88</ele>
        <time>2013-04-21T13:17:53Z</time>
      </trkpt>
      <trkpt lat="44.74857" lon="-0.28683">
        <ele>88</ele>
        <time>2013-04-21T13:17:54Z</time>
      </trkpt>
      <trkpt lat="44.74856" lon="-0.2868">
        <ele>88</ele>
        <time>2013-04-21T13:17:55Z</time>
      </trkpt>
      <trkpt lat="44.74842" lon="-0.28648">
        <ele>88</ele>
        <time>2013-04-21T13:18:03Z</time>
      </trkpt>
      <trkpt lat="44.74828" lon="-0.28629">
        <ele>87</ele>
        <time>2013-04-21T13:18:09Z</time>
      </trkpt>
      <trkpt lat="44.74811" lon="-0.28605">
        <ele>86</ele>
        <time>2013-04-21T13:18:16Z</time>
      </trkpt>
      <trkpt lat="44.74788" lon="-0.28573">
        <ele>85</ele>
        <time>2013-04-21T13:18:25Z</time>
      </trkpt>
      <trkpt lat="44.74771" lon="-0.28548">
        <ele>83</ele>
        <time>2013-04-21T13:18:33Z</time>
      </trkpt>
      <trkpt lat="44.74762" lon="-0.28535">
        <ele>83</ele>
        <time>2013-04-21T13:18:36Z</time>
      </trkpt>
      <trkpt lat="44.74749" lon="-0.28509">
        <ele>83</ele>
        <time>2013-04-21T13:18:41Z</time>
      </trkpt>
      <trkpt lat="44.74747" lon="-0.28503">
        <ele>83</ele>
        <time>2013-04-21T13:18:42Z</time>
      </trkpt>
      <trkpt lat="44.74738" lon="-0.28467">
        <ele>82</ele>
        <time>2013-04-21T13:18:49Z</time>
      </trkpt>
      <trkpt lat="44.74734" lon="-0.28437">
        <ele>83</ele>
        <time>2013-04-21T13:18:57Z</time>
      </trkpt>
      <trkpt lat="44.74734" lon="-0.2843">
        <ele>83</ele>
        <time>2013-04-21T13:19:00Z</time>
      </trkpt>
      <trkpt lat="44.74734" lon="-0.28428">
        <ele>83</ele>
        <time>2013-04-21T13:19:01Z</time>
      </trkpt>
      <trkpt lat="44.74734" lon="-0.28426">
        <ele>83</ele>
        <time>2013-04-21T13:19:02Z</time>
      </trkpt>
      <trkpt lat="44.74734" lon="-0.28424">
        <ele>83</ele>
        <time>2013-04-21T13:19:03Z</time>
      </trkpt>
      <trkpt lat="44.74734" lon="-0.28422">
        <ele>83</ele>
        <time>2013-04-21T13:19:04Z</time>
      </trkpt>
      <trkpt lat="44.74734" lon="-0.28416">
        <ele>83</ele>
        <time>2013-04-21T13:19:11Z</time>
      </trkpt>
      <trkpt lat="44.74733" lon="-0.28416">
        <ele>83</ele>
        <time>2013-04-21T13:19:17Z</time>
      </trkpt>
      <trkpt lat="44.74733" lon="-0.28416">
        <ele>83</ele>
        <time>2013-04-21T13:19:23Z</time>
      </trkpt>
      <trkpt lat="44.74733" lon="-0.28417">
        <ele>83</ele>
        <time>2013-04-21T13:19:34Z</time>
      </trkpt>
      <trkpt lat="44.74731" lon="-0.28417">
        <ele>83</ele>
        <time>2013-04-21T13:19:38Z</time>
      </trkpt>
      <trkpt lat="44.74718" lon="-0.28426">
        <ele>81</ele>
        <time>2013-04-21T13:19:44Z</time>
      </trkpt>
      <trkpt lat="44.74709" lon="-0.28433">
        <ele>81</ele>
        <time>2013-04-21T13:19:47Z</time>
      </trkpt>
      <trkpt lat="44.74705" lon="-0.28437">
        <ele>80</ele>
        <time>2013-04-21T13:19:48Z</time>
      </trkpt>
      <trkpt lat="44.74676" lon="-0.2846">
        <ele>78</ele>
        <time>2013-04-21T13:19:55Z</time>
      </trkpt>
      <trkpt lat="44.7465" lon="-0.28481">
        <ele>77</ele>
        <time>2013-04-21T13:20:02Z</time>
      </trkpt>
      <trkpt lat="44.74645" lon="-0.28486">
        <ele>77</ele>
        <time>2013-04-21T13:20:04Z</time>
      </trkpt>
      <trkpt lat="44.74639" lon="-0.28488">
        <ele>76</ele>
        <time>2013-04-21T13:20:09Z</time>
      </trkpt>
      <trkpt lat="44.74631" lon="-0.28486">
        <ele>76</ele>
        <time>2013-04-21T13:20:17Z</time>
      </trkpt>
      <trkpt lat="44.7463" lon="-0.28488">
        <ele>77</ele>
        <time>2013-04-21T13:20:23Z</time>
      </trkpt>
      <trkpt lat="44.74629" lon="-0.28489">
        <ele>77</ele>
        <time>2013-04-21T13:20:29Z</time>
      </trkpt>
      <trkpt lat="44.74628" lon="-0.28489">
        <ele>77</ele>
        <time>2013-04-21T13:20:37Z</time>
      </trkpt>
      <trkpt lat="44.74628" lon="-0.2849">
        <ele>77</ele>
        <time>2013-04-21T13:20:44Z</time>
      </trkpt>
      <trkpt lat="44.74626" lon="-0.28492">
        <ele>77</ele>
        <time>2013-04-21T13:20:51Z</time>
      </trkpt>
      <trkpt lat="44.74626" lon="-0.28493">
        <ele>77</ele>
        <time>2013-04-21T13:20:59Z</time>
      </trkpt>
      <trkpt lat="44.74624" lon="-0.28497">
        <ele>77</ele>
        <time>2013-04-21T13:21:05Z</time>
      </trkpt>
      <trkpt lat="44.7462" lon="-0.28502">
        <ele>77</ele>
        <time>2013-04-21T13:21:14Z</time>
      </trkpt>
      <trkpt lat="44.7462" lon="-0.28507">
        <ele>77</ele>
        <time>2013-04-21T13:21:20Z</time>
      </trkpt>
      <trkpt lat="44.74616" lon="-0.28513">
        <ele>77</ele>
        <time>2013-04-21T13:21:27Z</time>
      </trkpt>
      <trkpt lat="44.74613" lon="-0.28517">
        <ele>77</ele>
        <time>2013-04-21T13:21:33Z</time>
      </trkpt>
      <trkpt lat="44.74612" lon="-0.28521">
        <ele>78</ele>
        <time>2013-04-21T13:21:37Z</time>
      </trkpt>
      <trkpt lat="44.74611" lon="-0.28533">
        <ele>78</ele>
        <time>2013-04-21T13:21:45Z</time>
      </trkpt>
      <trkpt lat="44.74608" lon="-0.28534">
        <ele>78</ele>
        <time>2013-04-21T13:21:53Z</time>
      </trkpt>
      <trkpt lat="44.74608" lon="-0.28534">
        <ele>78</ele>
        <time>2013-04-21T13:22:00Z</time>
      </trkpt>
      <trkpt lat="44.74607" lon="-0.28535">
        <ele>78</ele>
        <time>2013-04-21T13:22:07Z</time>
      </trkpt>
      <trkpt lat="44.74606" lon="-0.28536">
        <ele>78</ele>
        <time>2013-04-21T13:22:08Z</time>
      </trkpt>
      <trkpt lat="44.74601" lon="-0.28545">
        <ele>79</ele>
        <time>2013-04-21T13:22:15Z</time>
      </trkpt>
      <trkpt lat="44.74599" lon="-0.28547">
        <ele>79</ele>
        <time>2013-04-21T13:22:17Z</time>
      </trkpt>
      <trkpt lat="44.74592" lon="-0.28554">
        <ele>80</ele>
        <time>2013-04-21T13:22:23Z</time>
      </trkpt>
      <trkpt lat="44.74584" lon="-0.28561">
        <ele>81</ele>
        <time>2013-04-21T13:22:30Z</time>
      </trkpt>
      <trkpt lat="44.74574" lon="-0.2857">
        <ele>82</ele>
        <time>2013-04-21T13:22:37Z</time>
      </trkpt>
      <trkpt lat="44.74565" lon="-0.28576">
        <ele>83</ele>
        <time>2013-04-21T13:22:43Z</time>
      </trkpt>
      <trkpt lat="44.74555" lon="-0.28587">
        <ele>84</ele>
        <time>2013-04-21T13:22:52Z</time>
      </trkpt>
      <trkpt lat="44.74546" lon="-0.28594">
        <ele>85</ele>
        <time>2013-04-21T13:23:00Z</time>
      </trkpt>
      <trkpt lat="44.74545" lon="-0.28595">
        <ele>85</ele>
        <time>2013-04-21T13:23:01Z</time>
      </trkpt>
      <trkpt lat="44.7454" lon="-0.28597">
        <ele>86</ele>
        <time>2013-04-21T13:23:08Z</time>
      </trkpt>
      <trkpt lat="44.74536" lon="-0.28598">
        <ele>86</ele>
        <time>2013-04-21T13:23:14Z</time>
      </trkpt>
      <trkpt lat="44.74535" lon="-0.28596">
        <ele>86</ele>
        <time>2013-04-21T13:23:19Z</time>
      </trkpt>
      <trkpt lat="44.74532" lon="-0.28592">
        <ele>86</ele>
        <time>2013-04-21T13:23:24Z</time>
      </trkpt>
      <trkpt lat="44.74524" lon="-0.28582">
        <ele>86</ele>
        <time>2013-04-21T13:24:20Z</time>
      </trkpt>
      <trkpt lat="44.74518" lon="-0.28573">
        <ele>87</ele>
        <time>2013-04-21T13:24:28Z</time>
      </trkpt>
      <trkpt lat="44.74511" lon="-0.28566">
        <ele>87</ele>
        <time>2013-04-21T13:24:33Z</time>
      </trkpt>
      <trkpt lat="44.74508" lon="-0.28558">
        <ele>87</ele>
        <time>2013-04-21T13:24:37Z</time>
      </trkpt>
      <trkpt lat="44.74507" lon="-0.28554">
        <ele>87</ele>
        <time>2013-04-21T13:24:39Z</time>
      </trkpt>
      <trkpt lat="44.74498" lon="-0.28547">
        <ele>88</ele>
        <time>2013-04-21T13:24:46Z</time>
      </trkpt>
      <trkpt lat="44.74494" lon="-0.28547">
        <ele>89</ele>
        <time>2013-04-21T13:24:52Z</time>
      </trkpt>
      <trkpt lat="44.74493" lon="-0.28545">
        <ele>89</ele>
        <time>2013-04-21T13:24:58Z</time>
      </trkpt>
      <trkpt lat="44.74493" lon="-0.28543">
        <ele>89</ele>
        <time>2013-04-21T13:25:04Z</time>
      </trkpt>
      <trkpt lat="44.74492" lon="-0.28543">
        <ele>89</ele>
        <time>2013-04-21T13:25:15Z</time>
      </trkpt>
      <trkpt lat="44.74492" lon="-0.28543">
        <ele>89</ele>
        <time>2013-04-21T13:25:30Z</time>
      </trkpt>
      <trkpt lat="44.74492" lon="-0.28543">
        <ele>89</ele>
        <time>2013-04-21T13:25:44Z</time>
      </trkpt>
      <trkpt lat="44.74492" lon="-0.28544">
        <ele>89</ele>
        <time>2013-04-21T13:25:54Z</time>
      </trkpt>
      <trkpt lat="44.7449" lon="-0.28541">
        <ele>89</ele>
        <time>2013-04-21T13:26:02Z</time>
      </trkpt>
      <trkpt lat="44.74486" lon="-0.28528">
        <ele>89</ele>
        <time>2013-04-21T13:26:07Z</time>
      </trkpt>
      <trkpt lat="44.74479" lon="-0.28504">
        <ele>89</ele>
        <time>2013-04-21T13:26:13Z</time>
      </trkpt>
      <trkpt lat="44.74467" lon="-0.28471">
        <ele>88</ele>
        <time>2013-04-21T13:26:19Z</time>
      </trkpt>
      <trkpt lat="44.74459" lon="-0.28455">
        <ele>87</ele>
        <time>2013-04-21T13:26:22Z</time>
      </trkpt>
      <trkpt lat="44.74445" lon="-0.28417">
        <ele>87</ele>
        <time>2013-04-21T13:26:28Z</time>
      </trkpt>
      <trkpt lat="44.74438" lon="-0.28397">
        <ele>86</ele>
        <time>2013-04-21T13:26:31Z</time>
      </trkpt>
      <trkpt lat="44.74424" lon="-0.28365">
        <ele>85</ele>
        <time>2013-04-21T13:26:36Z</time>
      </trkpt>
      <trkpt lat="44.7442" lon="-0.28359">
        <ele>85</ele>
        <time>2013-04-21T13:26:37Z</time>
      </trkpt>
      <trkpt lat="44.74418" lon="-0.28352">
        <ele>84</ele>
        <time>2013-04-21T13:26:38Z</time>
      </trkpt>
      <trkpt lat="44.74415" lon="-0.28346">
        <ele>84</ele>
        <time>2013-04-21T13:26:39Z</time>
      </trkpt>
      <trkpt lat="44.74412" lon="-0.2834">
        <ele>84</ele>
        <time>2013-04-21T13:26:40Z</time>
      </trkpt>
      <trkpt lat="44.74403" lon="-0.28313">
        <ele>83</ele>
        <time>2013-04-21T13:26:44Z</time>
      </trkpt>
      <trkpt lat="44.74401" lon="-0.28306">
        <ele>83</ele>
        <time>2013-04-21T13:26:45Z</time>
      </trkpt>
      <trkpt lat="44.74401" lon="-0.28298">
        <ele>82</ele>
        <time>2013-04-21T13:26:46Z</time>
      </trkpt>
      <trkpt lat="44.74401" lon="-0.28289">
        <ele>82</ele>
        <time>2013-04-21T13:26:47Z</time>
      </trkpt>
      <trkpt lat="44.74402" lon="-0.2828">
        <ele>82</ele>
        <time>2013-04-21T13:26:48Z</time>
      </trkpt>
      <trkpt lat="44.74403" lon="-0.28272">
        <ele>81</ele>
        <time>2013-04-21T13:26:49Z</time>
      </trkpt>
      <trkpt lat="44.74404" lon="-0.28263">
        <ele>81</ele>
        <time>2013-04-21T13:26:50Z</time>
      </trkpt>
      <trkpt lat="44.74404" lon="-0.28247">
        <ele>81</ele>
        <time>2013-04-21T13:26:52Z</time>
      </trkpt>
      <trkpt lat="44.74403" lon="-0.2824">
        <ele>81</ele>
        <time>2013-04-21T13:26:53Z</time>
      </trkpt>
      <trkpt lat="44.74402" lon="-0.28233">
        <ele>81</ele>
        <time>2013-04-21T13:26:54Z</time>
      </trkpt>
      <trkpt lat="44.74399" lon="-0.2822">
        <ele>81</ele>
        <time>2013-04-21T13:26:56Z</time>
      </trkpt>
      <trkpt lat="44.74383" lon="-0.28154">
        <ele>81</ele>
        <time>2013-04-21T13:27:05Z</time>
      </trkpt>
      <trkpt lat="44.74369" lon="-0.28085">
        <ele>80</ele>
        <time>2013-04-21T13:27:14Z</time>
      </trkpt>
      <trkpt lat="44.74364" lon="-0.28052">
        <ele>79</ele>
        <time>2013-04-21T13:27:18Z</time>
      </trkpt>
      <trkpt lat="44.74356" lon="-0.27971">
        <ele>77</ele>
        <time>2013-04-21T13:27:27Z</time>
      </trkpt>
      <trkpt lat="44.74344" lon="-0.27897">
        <ele>75</ele>
        <time>2013-04-21T13:27:34Z</time>
      </trkpt>
      <trkpt lat="44.74338" lon="-0.27819">
        <ele>74</ele>
        <time>2013-04-21T13:27:41Z</time>
      </trkpt>
      <trkpt lat="44.74336" lon="-0.27736">
        <ele>72</ele>
        <time>2013-04-21T13:27:49Z</time>
      </trkpt>
      <trkpt lat="44.74333" lon="-0.27709">
        <ele>72</ele>
        <time>2013-04-21T13:27:52Z</time>
      </trkpt>
      <trkpt lat="44.74333" lon="-0.27701">
        <ele>72</ele>
        <time>2013-04-21T13:27:53Z</time>
      </trkpt>
      <trkpt lat="44.74334" lon="-0.27693">
        <ele>72</ele>
        <time>2013-04-21T13:27:54Z</time>
      </trkpt>
      <trkpt lat="44.74335" lon="-0.27685">
        <ele>72</ele>
        <time>2013-04-21T13:27:55Z</time>
      </trkpt>
      <trkpt lat="44.74337" lon="-0.27678">
        <ele>71</ele>
        <time>2013-04-21T13:27:56Z</time>
      </trkpt>
      <trkpt lat="44.74339" lon="-0.27671">
        <ele>71</ele>
        <time>2013-04-21T13:27:57Z</time>
      </trkpt>
      <trkpt lat="44.74342" lon="-0.27663">
        <ele>71</ele>
        <time>2013-04-21T13:27:58Z</time>
      </trkpt>
      <trkpt lat="44.74346" lon="-0.27656">
        <ele>71</ele>
        <time>2013-04-21T13:27:59Z</time>
      </trkpt>
      <trkpt lat="44.7435" lon="-0.27649">
        <ele>70</ele>
        <time>2013-04-21T13:28:00Z</time>
      </trkpt>
      <trkpt lat="44.74354" lon="-0.27641">
        <ele>70</ele>
        <time>2013-04-21T13:28:01Z</time>
      </trkpt>
      <trkpt lat="44.74357" lon="-0.27632">
        <ele>69</ele>
        <time>2013-04-21T13:28:02Z</time>
      </trkpt>
      <trkpt lat="44.74361" lon="-0.27622">
        <ele>68</ele>
        <time>2013-04-21T13:28:03Z</time>
      </trkpt>
      <trkpt lat="44.74364" lon="-0.27611">
        <ele>67</ele>
        <time>2013-04-21T13:28:04Z</time>
      </trkpt>
      <trkpt lat="44.7437" lon="-0.27575">
        <ele>65</ele>
        <time>2013-04-21T13:28:07Z</time>
      </trkpt>
      <trkpt lat="44.74374" lon="-0.27562">
        <ele>64</ele>
        <time>2013-04-21T13:28:08Z</time>
      </trkpt>
      <trkpt lat="44.74379" lon="-0.2755">
        <ele>64</ele>
        <time>2013-04-21T13:28:09Z</time>
      </trkpt>
      <trkpt lat="44.74388" lon="-0.27528">
        <ele>63</ele>
        <time>2013-04-21T13:28:11Z</time>
      </trkpt>
      <trkpt lat="44.7439" lon="-0.27517">
        <ele>63</ele>
        <time>2013-04-21T13:28:12Z</time>
      </trkpt>
      <trkpt lat="44.74391" lon="-0.27507">
        <ele>63</ele>
        <time>2013-04-21T13:28:13Z</time>
      </trkpt>
      <trkpt lat="44.74391" lon="-0.27496">
        <ele>63</ele>
        <time>2013-04-21T13:28:14Z</time>
      </trkpt>
      <trkpt lat="44.74392" lon="-0.27486">
        <ele>63</ele>
        <time>2013-04-21T13:28:15Z</time>
      </trkpt>
      <trkpt lat="44.74393" lon="-0.27461">
        <ele>63</ele>
        <time>2013-04-21T13:28:18Z</time>
      </trkpt>
      <trkpt lat="44.74396" lon="-0.27448">
        <ele>63</ele>
        <time>2013-04-21T13:28:20Z</time>
      </trkpt>
      <trkpt lat="44.744" lon="-0.27422">
        <ele>63</ele>
        <time>2013-04-21T13:28:26Z</time>
      </trkpt>
      <trkpt lat="44.74398" lon="-0.2742">
        <ele>63</ele>
        <time>2013-04-21T13:28:27Z</time>
      </trkpt>
      <trkpt lat="44.74378" lon="-0.27406">
        <ele>62</ele>
        <time>2013-04-21T13:28:34Z</time>
      </trkpt>
      <trkpt lat="44.74345" lon="-0.27383">
        <ele>62</ele>
        <time>2013-04-21T13:28:43Z</time>
      </trkpt>
      <trkpt lat="44.7431" lon="-0.27356">
        <ele>62</ele>
        <time>2013-04-21T13:28:52Z</time>
      </trkpt>
      <trkpt lat="44.74287" lon="-0.27331">
        <ele>63</ele>
        <time>2013-04-21T13:28:59Z</time>
      </trkpt>
      <trkpt lat="44.74259" lon="-0.27304">
        <ele>63</ele>
        <time>2013-04-21T13:29:07Z</time>
      </trkpt>
      <trkpt lat="44.74232" lon="-0.27283">
        <ele>63</ele>
        <time>2013-04-21T13:29:14Z</time>
      </trkpt>
      <trkpt lat="44.74228" lon="-0.2728">
        <ele>63</ele>
        <time>2013-04-21T13:29:15Z</time>
      </trkpt>
      <trkpt lat="44.74224" lon="-0.27277">
        <ele>63</ele>
        <time>2013-04-21T13:29:16Z</time>
      </trkpt>
      <trkpt lat="44.74202" lon="-0.27258">
        <ele>64</ele>
        <time>2013-04-21T13:29:22Z</time>
      </trkpt>
      <trkpt lat="44.74167" lon="-0.27231">
        <ele>64</ele>
        <time>2013-04-21T13:29:31Z</time>
      </trkpt>
      <trkpt lat="44.74138" lon="-0.27207">
        <ele>65</ele>
        <time>2013-04-21T13:29:39Z</time>
      </trkpt>
      <trkpt lat="44.74111" lon="-0.27185">
        <ele>65</ele>
        <time>2013-04-21T13:29:46Z</time>
      </trkpt>
      <trkpt lat="44.74107" lon="-0.27181">
        <ele>65</ele>
        <time>2013-04-21T13:29:47Z</time>
      </trkpt>
      <trkpt lat="44.74073" lon="-0.27149">
        <ele>64</ele>
        <time>2013-04-21T13:29:56Z</time>
      </trkpt>
      <trkpt lat="44.74031" lon="-0.27116">
        <ele>65</ele>
        <time>2013-04-21T13:30:06Z</time>
      </trkpt>
      <trkpt lat="44.73985" lon="-0.27088">
        <ele>66</ele>
        <time>2013-04-21T13:30:16Z</time>
      </trkpt>
      <trkpt lat="44.73948" lon="-0.27068">
        <ele>66</ele>
        <time>2013-04-21T13:30:24Z</time>
      </trkpt>
      <trkpt lat="44.7391" lon="-0.27048">
        <ele>67</ele>
        <time>2013-04-21T13:30:33Z</time>
      </trkpt>
      <trkpt lat="44.73866" lon="-0.27023">
        <ele>66</ele>
        <time>2013-04-21T13:30:43Z</time>
      </trkpt>
      <trkpt lat="44.73819" lon="-0.2699">
        <ele>66</ele>
        <time>2013-04-21T13:30:54Z</time>
      </trkpt>
      <trkpt lat="44.7378" lon="-0.26956">
        <ele>66</ele>
        <time>2013-04-21T13:31:03Z</time>
      </trkpt>
      <trkpt lat="44.73757" lon="-0.26934">
        <ele>66</ele>
        <time>2013-04-21T13:31:09Z</time>
      </trkpt>
      <trkpt lat="44.73754" lon="-0.2693">
        <ele>66</ele>
        <time>2013-04-21T13:31:10Z</time>
      </trkpt>
      <trkpt lat="44.73748" lon="-0.26922">
        <ele>66</ele>
        <time>2013-04-21T13:31:12Z</time>
      </trkpt>
      <trkpt lat="44.73744" lon="-0.26917">
        <ele>66</ele>
        <time>2013-04-21T13:31:13Z</time>
      </trkpt>
      <trkpt lat="44.73723" lon="-0.26881">
        <ele>66</ele>
        <time>2013-04-21T13:31:20Z</time>
      </trkpt>
      <trkpt lat="44.73694" lon="-0.2682">
        <ele>65</ele>
        <time>2013-04-21T13:31:29Z</time>
      </trkpt>
      <trkpt lat="44.73686" lon="-0.26804">
        <ele>65</ele>
        <time>2013-04-21T13:31:31Z</time>
      </trkpt>
      <trkpt lat="44.73661" lon="-0.26753">
        <ele>65</ele>
        <time>2013-04-21T13:31:37Z</time>
      </trkpt>
      <trkpt lat="44.73627" lon="-0.26684">
        <ele>66</ele>
        <time>2013-04-21T13:31:45Z</time>
      </trkpt>
      <trkpt lat="44.73596" lon="-0.26622">
        <ele>67</ele>
        <time>2013-04-21T13:31:54Z</time>
      </trkpt>
      <trkpt lat="44.73578" lon="-0.26568">
        <ele>69</ele>
        <time>2013-04-21T13:32:02Z</time>
      </trkpt>
      <trkpt lat="44.73565" lon="-0.26513">
        <ele>70</ele>
        <time>2013-04-21T13:32:11Z</time>
      </trkpt>
      <trkpt lat="44.73555" lon="-0.2647">
        <ele>70</ele>
        <time>2013-04-21T13:32:18Z</time>
      </trkpt>
      <trkpt lat="44.73552" lon="-0.2646">
        <ele>70</ele>
        <time>2013-04-21T13:32:20Z</time>
      </trkpt>
      <trkpt lat="44.73541" lon="-0.26416">
        <ele>70</ele>
        <time>2013-04-21T13:32:29Z</time>
      </trkpt>
      <trkpt lat="44.73537" lon="-0.26393">
        <ele>70</ele>
        <time>2013-04-21T13:32:36Z</time>
      </trkpt>
      <trkpt lat="44.73535" lon="-0.26392">
        <ele>70</ele>
        <time>2013-04-21T13:32:37Z</time>
      </trkpt>
      <trkpt lat="44.73532" lon="-0.2639">
        <ele>70</ele>
        <time>2013-04-21T13:32:38Z</time>
      </trkpt>
      <trkpt lat="44.73529" lon="-0.26388">
        <ele>70</ele>
        <time>2013-04-21T13:32:39Z</time>
      </trkpt>
      <trkpt lat="44.73526" lon="-0.26387">
        <ele>70</ele>
        <time>2013-04-21T13:32:40Z</time>
      </trkpt>
      <trkpt lat="44.73495" lon="-0.26373">
        <ele>69</ele>
        <time>2013-04-21T13:32:48Z</time>
      </trkpt>
      <trkpt lat="44.73483" lon="-0.26368">
        <ele>69</ele>
        <time>2013-04-21T13:32:51Z</time>
      </trkpt>
      <trkpt lat="44.73475" lon="-0.26365">
        <ele>68</ele>
        <time>2013-04-21T13:32:53Z</time>
      </trkpt>
      <trkpt lat="44.73471" lon="-0.26366">
        <ele>68</ele>
        <time>2013-04-21T13:32:54Z</time>
      </trkpt>
      <trkpt lat="44.73467" lon="-0.26369">
        <ele>68</ele>
        <time>2013-04-21T13:32:55Z</time>
      </trkpt>
      <trkpt lat="44.73453" lon="-0.26381">
        <ele>68</ele>
        <time>2013-04-21T13:33:00Z</time>
      </trkpt>
      <trkpt lat="44.73434" lon="-0.26382">
        <ele>67</ele>
        <time>2013-04-21T13:33:06Z</time>
      </trkpt>
      <trkpt lat="44.73425" lon="-0.26384">
        <ele>67</ele>
        <time>2013-04-21T13:33:10Z</time>
      </trkpt>
      <trkpt lat="44.73424" lon="-0.26385">
        <ele>67</ele>
        <time>2013-04-21T13:33:11Z</time>
      </trkpt>
      <trkpt lat="44.73422" lon="-0.26387">
        <ele>67</ele>
        <time>2013-04-21T13:33:12Z</time>
      </trkpt>
      <trkpt lat="44.73421" lon="-0.26389">
        <ele>67</ele>
        <time>2013-04-21T13:33:13Z</time>
      </trkpt>
      <trkpt lat="44.7342" lon="-0.26392">
        <ele>67</ele>
        <time>2013-04-21T13:33:14Z</time>
      </trkpt>
      <trkpt lat="44.73419" lon="-0.26394">
        <ele>66</ele>
        <time>2013-04-21T13:33:15Z</time>
      </trkpt>
      <trkpt lat="44.73418" lon="-0.26398">
        <ele>66</ele>
        <time>2013-04-21T13:33:16Z</time>
      </trkpt>
      <trkpt lat="44.73417" lon="-0.26401">
        <ele>66</ele>
        <time>2013-04-21T13:33:17Z</time>
      </trkpt>
      <trkpt lat="44.73416" lon="-0.26405">
        <ele>66</ele>
        <time>2013-04-21T13:33:18Z</time>
      </trkpt>
      <trkpt lat="44.73408" lon="-0.26438">
        <ele>65</ele>
        <time>2013-04-21T13:33:25Z</time>
      </trkpt>
      <trkpt lat="44.73394" lon="-0.26485">
        <ele>62</ele>
        <time>2013-04-21T13:33:33Z</time>
      </trkpt>
      <trkpt lat="44.73383" lon="-0.26523">
        <ele>61</ele>
        <time>2013-04-21T13:33:39Z</time>
      </trkpt>
      <trkpt lat="44.73381" lon="-0.2653">
        <ele>60</ele>
        <time>2013-04-21T13:33:40Z</time>
      </trkpt>
      <trkpt lat="44.73362" lon="-0.26593">
        <ele>57</ele>
        <time>2013-04-21T13:33:48Z</time>
      </trkpt>
      <trkpt lat="44.73346" lon="-0.26645">
        <ele>53</ele>
        <time>2013-04-21T13:33:54Z</time>
      </trkpt>
      <trkpt lat="44.73326" lon="-0.26715">
        <ele>52</ele>
        <time>2013-04-21T13:34:02Z</time>
      </trkpt>
      <trkpt lat="44.7331" lon="-0.26773">
        <ele>56</ele>
        <time>2013-04-21T13:34:10Z</time>
      </trkpt>
      <trkpt lat="44.73296" lon="-0.2682">
        <ele>60</ele>
        <time>2013-04-21T13:34:18Z</time>
      </trkpt>
      <trkpt lat="44.73284" lon="-0.26864">
        <ele>63</ele>
        <time>2013-04-21T13:34:27Z</time>
      </trkpt>
      <trkpt lat="44.73274" lon="-0.26898">
        <ele>64</ele>
        <time>2013-04-21T13:34:36Z</time>
      </trkpt>
      <trkpt lat="44.73263" lon="-0.26933">
        <ele>64</ele>
        <time>2013-04-21T13:34:46Z</time>
      </trkpt>
      <trkpt lat="44.73255" lon="-0.26959">
        <ele>65</ele>
        <time>2013-04-21T13:34:54Z</time>
      </trkpt>
      <trkpt lat="44.73247" lon="-0.26989">
        <ele>67</ele>
        <time>2013-04-21T13:35:03Z</time>
      </trkpt>
      <trkpt lat="44.73236" lon="-0.27025">
        <ele>69</ele>
        <time>2013-04-21T13:35:14Z</time>
      </trkpt>
      <trkpt lat="44.73229" lon="-0.27049">
        <ele>70</ele>
        <time>2013-04-21T13:35:21Z</time>
      </trkpt>
      <trkpt lat="44.73221" lon="-0.27086">
        <ele>72</ele>
        <time>2013-04-21T13:35:31Z</time>
      </trkpt>
      <trkpt lat="44.73219" lon="-0.27118">
        <ele>74</ele>
        <time>2013-04-21T13:35:40Z</time>
      </trkpt>
      <trkpt lat="44.73222" lon="-0.27161">
        <ele>73</ele>
        <time>2013-04-21T13:35:50Z</time>
      </trkpt>
      <trkpt lat="44.73226" lon="-0.27201">
        <ele>72</ele>
        <time>2013-04-21T13:35:59Z</time>
      </trkpt>
      <trkpt lat="44.73231" lon="-0.27243">
        <ele>71</ele>
        <time>2013-04-21T13:36:08Z</time>
      </trkpt>
      <trkpt lat="44.73236" lon="-0.27275">
        <ele>71</ele>
        <time>2013-04-21T13:36:15Z</time>
      </trkpt>
      <trkpt lat="44.73242" lon="-0.27322">
        <ele>71</ele>
        <time>2013-04-21T13:36:25Z</time>
      </trkpt>
      <trkpt lat="44.73246" lon="-0.27359">
        <ele>72</ele>
        <time>2013-04-21T13:36:33Z</time>
      </trkpt>
      <trkpt lat="44.7325" lon="-0.27391">
        <ele>73</ele>
        <time>2013-04-21T13:36:40Z</time>
      </trkpt>
      <trkpt lat="44.73255" lon="-0.2743">
        <ele>74</ele>
        <time>2013-04-21T13:36:49Z</time>
      </trkpt>
      <trkpt lat="44.73258" lon="-0.27469">
        <ele>75</ele>
        <time>2013-04-21T13:36:58Z</time>
      </trkpt>
      <trkpt lat="44.73254" lon="-0.27512">
        <ele>76</ele>
        <time>2013-04-21T13:37:08Z</time>
      </trkpt>
      <trkpt lat="44.73247" lon="-0.27551">
        <ele>76</ele>
        <time>2013-04-21T13:37:17Z</time>
      </trkpt>
      <trkpt lat="44.73234" lon="-0.27582">
        <ele>77</ele>
        <time>2013-04-21T13:37:25Z</time>
      </trkpt>
      <trkpt lat="44.73216" lon="-0.27615">
        <ele>78</ele>
        <time>2013-04-21T13:37:34Z</time>
      </trkpt>
      <trkpt lat="44.732" lon="-0.27645">
        <ele>78</ele>
        <time>2013-04-21T13:37:43Z</time>
      </trkpt>
      <trkpt lat="44.73182" lon="-0.27676">
        <ele>79</ele>
        <time>2013-04-21T13:37:54Z</time>
      </trkpt>
      <trkpt lat="44.73177" lon="-0.2768">
        <ele>78</ele>
        <time>2013-04-21T13:37:59Z</time>
      </trkpt>
      <trkpt lat="44.73176" lon="-0.27679">
        <ele>78</ele>
        <time>2013-04-21T13:38:11Z</time>
      </trkpt>
      <trkpt lat="44.73174" lon="-0.27677">
        <ele>78</ele>
        <time>2013-04-21T13:38:17Z</time>
      </trkpt>
      <trkpt lat="44.73167" lon="-0.27674">
        <ele>77</ele>
        <time>2013-04-21T13:38:20Z</time>
      </trkpt>
      <trkpt lat="44.73131" lon="-0.27646">
        <ele>72</ele>
        <time>2013-04-21T13:38:30Z</time>
      </trkpt>
      <trkpt lat="44.7311" lon="-0.27628">
        <ele>70</ele>
        <time>2013-04-21T13:38:36Z</time>
      </trkpt>
      <trkpt lat="44.73072" lon="-0.27603">
        <ele>68</ele>
        <time>2013-04-21T13:38:46Z</time>
      </trkpt>
      <trkpt lat="44.73051" lon="-0.27588">
        <ele>68</ele>
        <time>2013-04-21T13:38:52Z</time>
      </trkpt>
      <trkpt lat="44.73011" lon="-0.27558">
        <ele>66</ele>
        <time>2013-04-21T13:39:02Z</time>
      </trkpt>
      <trkpt lat="44.72967" lon="-0.27525">
        <ele>65</ele>
        <time>2013-04-21T13:39:11Z</time>
      </trkpt>
      <trkpt lat="44.7292" lon="-0.27489">
        <ele>64</ele>
        <time>2013-04-21T13:39:21Z</time>
      </trkpt>
      <trkpt lat="44.72884" lon="-0.27462">
        <ele>62</ele>
        <time>2013-04-21T13:39:30Z</time>
      </trkpt>
      <trkpt lat="44.72844" lon="-0.27433">
        <ele>60</ele>
        <time>2013-04-21T13:39:39Z</time>
      </trkpt>
      <trkpt lat="44.72836" lon="-0.27422">
        <ele>59</ele>
        <time>2013-04-21T13:39:44Z</time>
      </trkpt>
      <trkpt lat="44.72826" lon="-0.27413">
        <ele>59</ele>
        <time>2013-04-21T13:39:49Z</time>
      </trkpt>
      <trkpt lat="44.72803" lon="-0.27405">
        <ele>57</ele>
        <time>2013-04-21T13:39:57Z</time>
      </trkpt>
      <trkpt lat="44.72785" lon="-0.27398">
        <ele>56</ele>
        <time>2013-04-21T13:40:04Z</time>
      </trkpt>
      <trkpt lat="44.72771" lon="-0.27395">
        <ele>55</ele>
        <time>2013-04-21T13:40:11Z</time>
      </trkpt>
      <trkpt lat="44.72762" lon="-0.27394">
        <ele>55</ele>
        <time>2013-04-21T13:40:16Z</time>
      </trkpt>
      <trkpt lat="44.7276" lon="-0.27393">
        <ele>55</ele>
        <time>2013-04-21T13:40:17Z</time>
      </trkpt>
      <trkpt lat="44.72756" lon="-0.27391">
        <ele>55</ele>
        <time>2013-04-21T13:40:24Z</time>
      </trkpt>
      <trkpt lat="44.72755" lon="-0.27392">
        <ele>55</ele>
        <time>2013-04-21T13:40:30Z</time>
      </trkpt>
      <trkpt lat="44.72755" lon="-0.27392">
        <ele>55</ele>
        <time>2013-04-21T13:40:39Z</time>
      </trkpt>
      <trkpt lat="44.72755" lon="-0.27391">
        <ele>55</ele>
        <time>2013-04-21T13:40:47Z</time>
      </trkpt>
      <trkpt lat="44.72754" lon="-0.2739">
        <ele>55</ele>
        <time>2013-04-21T13:40:57Z</time>
      </trkpt>
      <trkpt lat="44.72752" lon="-0.27389">
        <ele>55</ele>
        <time>2013-04-21T13:41:12Z</time>
      </trkpt>
      <trkpt lat="44.72753" lon="-0.27388">
        <ele>55</ele>
        <time>2013-04-21T13:41:28Z</time>
      </trkpt>
      <trkpt lat="44.72755" lon="-0.27389">
        <ele>55</ele>
        <time>2013-04-21T13:41:45Z</time>
      </trkpt>
      <trkpt lat="44.72754" lon="-0.27389">
        <ele>55</ele>
        <time>2013-04-21T13:41:54Z</time>
      </trkpt>
      <trkpt lat="44.72753" lon="-0.27391">
        <ele>55</ele>
        <time>2013-04-21T13:42:02Z</time>
      </trkpt>
      <trkpt lat="44.72752" lon="-0.27392">
        <ele>55</ele>
        <time>2013-04-21T13:42:10Z</time>
      </trkpt>
      <trkpt lat="44.7275" lon="-0.27393">
        <ele>55</ele>
        <time>2013-04-21T13:42:17Z</time>
      </trkpt>
      <trkpt lat="44.72746" lon="-0.27394">
        <ele>54</ele>
        <time>2013-04-21T13:42:24Z</time>
      </trkpt>
      <trkpt lat="44.72744" lon="-0.27393">
        <ele>54</ele>
        <time>2013-04-21T13:42:32Z</time>
      </trkpt>
      <trkpt lat="44.72741" lon="-0.27392">
        <ele>54</ele>
        <time>2013-04-21T13:42:39Z</time>
      </trkpt>
      <trkpt lat="44.72738" lon="-0.27391">
        <ele>54</ele>
        <time>2013-04-21T13:42:42Z</time>
      </trkpt>
      <trkpt lat="44.72733" lon="-0.27391">
        <ele>54</ele>
        <time>2013-04-21T13:42:49Z</time>
      </trkpt>
      <trkpt lat="44.72725" lon="-0.2739">
        <ele>55</ele>
        <time>2013-04-21T13:42:55Z</time>
      </trkpt>
      <trkpt lat="44.72719" lon="-0.27391">
        <ele>55</ele>
        <time>2013-04-21T13:43:02Z</time>
      </trkpt>
      <trkpt lat="44.72718" lon="-0.2739">
        <ele>55</ele>
        <time>2013-04-21T13:43:11Z</time>
      </trkpt>
      <trkpt lat="44.72715" lon="-0.27388">
        <ele>55</ele>
        <time>2013-04-21T13:43:18Z</time>
      </trkpt>
      <trkpt lat="44.72713" lon="-0.27389">
        <ele>55</ele>
        <time>2013-04-21T13:43:21Z</time>
      </trkpt>
      <trkpt lat="44.7271" lon="-0.27392">
        <ele>56</ele>
        <time>2013-04-21T13:43:28Z</time>
      </trkpt>
      <trkpt lat="44.72709" lon="-0.27392">
        <ele>56</ele>
        <time>2013-04-21T13:43:34Z</time>
      </trkpt>
      <trkpt lat="44.727" lon="-0.27396">
        <ele>56</ele>
        <time>2013-04-21T13:43:42Z</time>
      </trkpt>
      <trkpt lat="44.72696" lon="-0.27396">
        <ele>56</ele>
        <time>2013-04-21T13:43:45Z</time>
      </trkpt>
      <trkpt lat="44.7268" lon="-0.27393">
        <ele>57</ele>
        <time>2013-04-21T13:43:53Z</time>
      </trkpt>
      <trkpt lat="44.72677" lon="-0.27392">
        <ele>57</ele>
        <time>2013-04-21T13:43:54Z</time>
      </trkpt>
      <trkpt lat="44.72666" lon="-0.27392">
        <ele>58</ele>
        <time>2013-04-21T13:43:59Z</time>
      </trkpt>
      <trkpt lat="44.72648" lon="-0.27392">
        <ele>59</ele>
        <time>2013-04-21T13:44:08Z</time>
      </trkpt>
      <trkpt lat="44.72644" lon="-0.27391">
        <ele>59</ele>
        <time>2013-04-21T13:44:10Z</time>
      </trkpt>
      <trkpt lat="44.72632" lon="-0.27393">
        <ele>60</ele>
        <time>2013-04-21T13:44:17Z</time>
      </trkpt>
      <trkpt lat="44.72621" lon="-0.27392">
        <ele>61</ele>
        <time>2013-04-21T13:44:23Z</time>
      </trkpt>
      <trkpt lat="44.72613" lon="-0.27392">
        <ele>61</ele>
        <time>2013-04-21T13:44:27Z</time>
      </trkpt>
      <trkpt lat="44.72598" lon="-0.2739">
        <ele>62</ele>
        <time>2013-04-21T13:44:34Z</time>
      </trkpt>
      <trkpt lat="44.72583" lon="-0.2739">
        <ele>63</ele>
        <time>2013-04-21T13:44:42Z</time>
      </trkpt>
      <trkpt lat="44.72577" lon="-0.27389">
        <ele>64</ele>
        <time>2013-04-21T13:44:46Z</time>
      </trkpt>
      <trkpt lat="44.72562" lon="-0.27392">
        <ele>65</ele>
        <time>2013-04-21T13:44:53Z</time>
      </trkpt>
      <trkpt lat="44.72551" lon="-0.27393">
        <ele>66</ele>
        <time>2013-04-21T13:44:59Z</time>
      </trkpt>
      <trkpt lat="44.72546" lon="-0.27393">
        <ele>66</ele>
        <time>2013-04-21T13:45:02Z</time>
      </trkpt>
      <trkpt lat="44.72538" lon="-0.27393">
        <ele>67</ele>
        <time>2013-04-21T13:45:06Z</time>
      </trkpt>
      <trkpt lat="44.72528" lon="-0.27393">
        <ele>67</ele>
        <time>2013-04-21T13:45:12Z</time>
      </trkpt>
      <trkpt lat="44.72523" lon="-0.27393">
        <ele>68</ele>
        <time>2013-04-21T13:45:15Z</time>
      </trkpt>
      <trkpt lat="44.72521" lon="-0.27393">
        <ele>68</ele>
        <time>2013-04-21T13:45:17Z</time>
      </trkpt>
      <trkpt lat="44.72506" lon="-0.27392">
        <ele>68</ele>
        <time>2013-04-21T13:45:26Z</time>
      </trkpt>
      <trkpt lat="44.72502" lon="-0.27391">
        <ele>69</ele>
        <time>2013-04-21T13:45:29Z</time>
      </trkpt>
      <trkpt lat="44.72488" lon="-0.27387">
        <ele>69</ele>
        <time>2013-04-21T13:45:37Z</time>
      </trkpt>
      <trkpt lat="44.72486" lon="-0.27386">
        <ele>69</ele>
        <time>2013-04-21T13:45:38Z</time>
      </trkpt>
      <trkpt lat="44.72472" lon="-0.27384">
        <ele>70</ele>
        <time>2013-04-21T13:45:46Z</time>
      </trkpt>
      <trkpt lat="44.72464" lon="-0.27384">
        <ele>70</ele>
        <time>2013-04-21T13:45:52Z</time>
      </trkpt>
      <trkpt lat="44.72462" lon="-0.27383">
        <ele>71</ele>
        <time>2013-04-21T13:45:53Z</time>
      </trkpt>
      <trkpt lat="44.72447" lon="-0.27376">
        <ele>71</ele>
        <time>2013-04-21T13:46:01Z</time>
      </trkpt>
      <trkpt lat="44.72433" lon="-0.27372">
        <ele>72</ele>
        <time>2013-04-21T13:46:08Z</time>
      </trkpt>
      <trkpt lat="44.72416" lon="-0.27369">
        <ele>72</ele>
        <time>2013-04-21T13:46:17Z</time>
      </trkpt>
      <trkpt lat="44.72405" lon="-0.27366">
        <ele>73</ele>
        <time>2013-04-21T13:46:23Z</time>
      </trkpt>
      <trkpt lat="44.72388" lon="-0.27358">
        <ele>74</ele>
        <time>2013-04-21T13:46:31Z</time>
      </trkpt>
      <trkpt lat="44.72371" lon="-0.27356">
        <ele>75</ele>
        <time>2013-04-21T13:46:38Z</time>
      </trkpt>
      <trkpt lat="44.72355" lon="-0.27352">
        <ele>75</ele>
        <time>2013-04-21T13:46:45Z</time>
      </trkpt>
      <trkpt lat="44.72336" lon="-0.27349">
        <ele>76</ele>
        <time>2013-04-21T13:46:53Z</time>
      </trkpt>
      <trkpt lat="44.72317" lon="-0.27347">
        <ele>76</ele>
        <time>2013-04-21T13:47:01Z</time>
      </trkpt>
      <trkpt lat="44.72302" lon="-0.27345">
        <ele>77</ele>
        <time>2013-04-21T13:47:07Z</time>
      </trkpt>
      <trkpt lat="44.72279" lon="-0.27346">
        <ele>78</ele>
        <time>2013-04-21T13:47:16Z</time>
      </trkpt>
      <trkpt lat="44.72257" lon="-0.27347">
        <ele>79</ele>
        <time>2013-04-21T13:47:24Z</time>
      </trkpt>
      <trkpt lat="44.72232" lon="-0.27351">
        <ele>80</ele>
        <time>2013-04-21T13:47:33Z</time>
      </trkpt>
      <trkpt lat="44.72211" lon="-0.27355">
        <ele>80</ele>
        <time>2013-04-21T13:47:41Z</time>
      </trkpt>
      <trkpt lat="44.72199" lon="-0.27354">
        <ele>80</ele>
        <time>2013-04-21T13:47:48Z</time>
      </trkpt>
      <trkpt lat="44.72196" lon="-0.27353">
        <ele>80</ele>
        <time>2013-04-21T13:47:53Z</time>
      </trkpt>
      <trkpt lat="44.72196" lon="-0.27354">
        <ele>80</ele>
        <time>2013-04-21T13:48:03Z</time>
      </trkpt>
      <trkpt lat="44.72195" lon="-0.27354">
        <ele>80</ele>
        <time>2013-04-21T13:48:16Z</time>
      </trkpt>
      <trkpt lat="44.72195" lon="-0.27354">
        <ele>80</ele>
        <time>2013-04-21T13:48:19Z</time>
      </trkpt>
      <trkpt lat="44.72192" lon="-0.2734">
        <ele>80</ele>
        <time>2013-04-21T13:48:25Z</time>
      </trkpt>
      <trkpt lat="44.72193" lon="-0.27335">
        <ele>80</ele>
        <time>2013-04-21T13:48:27Z</time>
      </trkpt>
      <trkpt lat="44.72183" lon="-0.27324">
        <ele>80</ele>
        <time>2013-04-21T13:48:34Z</time>
      </trkpt>
      <trkpt lat="44.72169" lon="-0.27319">
        <ele>80</ele>
        <time>2013-04-21T13:48:40Z</time>
      </trkpt>
      <trkpt lat="44.72149" lon="-0.2732">
        <ele>79</ele>
        <time>2013-04-21T13:48:48Z</time>
      </trkpt>
      <trkpt lat="44.72126" lon="-0.27317">
        <ele>78</ele>
        <time>2013-04-21T13:48:56Z</time>
      </trkpt>
      <trkpt lat="44.72106" lon="-0.27319">
        <ele>78</ele>
        <time>2013-04-21T13:49:02Z</time>
      </trkpt>
      <trkpt lat="44.7208" lon="-0.27319">
        <ele>74</ele>
        <time>2013-04-21T13:49:08Z</time>
      </trkpt>
      <trkpt lat="44.72042" lon="-0.2732">
        <ele>72</ele>
        <time>2013-04-21T13:49:17Z</time>
      </trkpt>
      <trkpt lat="44.72034" lon="-0.27322">
        <ele>73</ele>
        <time>2013-04-21T13:49:19Z</time>
      </trkpt>
      <trkpt lat="44.72007" lon="-0.27323">
        <ele>75</ele>
        <time>2013-04-21T13:49:26Z</time>
      </trkpt>
      <trkpt lat="44.71986" lon="-0.27323">
        <ele>77</ele>
        <time>2013-04-21T13:49:33Z</time>
      </trkpt>
      <trkpt lat="44.7197" lon="-0.27324">
        <ele>78</ele>
        <time>2013-04-21T13:49:40Z</time>
      </trkpt>
      <trkpt lat="44.71964" lon="-0.27323">
        <ele>78</ele>
        <time>2013-04-21T13:49:44Z</time>
      </trkpt>
      <trkpt lat="44.7196" lon="-0.27318">
        <ele>78</ele>
        <time>2013-04-21T13:49:49Z</time>
      </trkpt>
      <trkpt lat="44.71958" lon="-0.27303">
        <ele>77</ele>
        <time>2013-04-21T13:49:55Z</time>
      </trkpt>
      <trkpt lat="44.71959" lon="-0.27274">
        <ele>75</ele>
        <time>2013-04-21T13:50:02Z</time>
      </trkpt>
      <trkpt lat="44.71957" lon="-0.27261">
        <ele>74</ele>
        <time>2013-04-21T13:50:08Z</time>
      </trkpt>
      <trkpt lat="44.71957" lon="-0.27251">
        <ele>73</ele>
        <time>2013-04-21T13:50:12Z</time>
      </trkpt>
      <trkpt lat="44.71951" lon="-0.27237">
        <ele>73</ele>
        <time>2013-04-21T13:50:19Z</time>
      </trkpt>
      <trkpt lat="44.71946" lon="-0.2724">
        <ele>73</ele>
        <time>2013-04-21T13:50:26Z</time>
      </trkpt>
      <trkpt lat="44.71945" lon="-0.27241">
        <ele>74</ele>
        <time>2013-04-21T13:50:30Z</time>
      </trkpt>
      <trkpt lat="44.71942" lon="-0.27248">
        <ele>74</ele>
        <time>2013-04-21T13:50:36Z</time>
      </trkpt>
      <trkpt lat="44.71935" lon="-0.27251">
        <ele>75</ele>
        <time>2013-04-21T13:50:44Z</time>
      </trkpt>
      <trkpt lat="44.71934" lon="-0.27252">
        <ele>75</ele>
        <time>2013-04-21T13:50:51Z</time>
      </trkpt>
      <trkpt lat="44.71932" lon="-0.27253">
        <ele>75</ele>
        <time>2013-04-21T13:50:52Z</time>
      </trkpt>
      <trkpt lat="44.7192" lon="-0.27257">
        <ele>76</ele>
        <time>2013-04-21T13:50:59Z</time>
      </trkpt>
      <trkpt lat="44.71903" lon="-0.27265">
        <ele>78</ele>
        <time>2013-04-21T13:51:08Z</time>
      </trkpt>
      <trkpt lat="44.71883" lon="-0.27273">
        <ele>79</ele>
        <time>2013-04-21T13:51:18Z</time>
      </trkpt>
      <trkpt lat="44.71868" lon="-0.27278">
        <ele>79</ele>
        <time>2013-04-21T13:51:26Z</time>
      </trkpt>
      <trkpt lat="44.71865" lon="-0.27291">
        <ele>79</ele>
        <time>2013-04-21T13:51:33Z</time>
      </trkpt>
      <trkpt lat="44.71861" lon="-0.27282">
        <ele>79</ele>
        <time>2013-04-21T13:51:38Z</time>
      </trkpt>
      <trkpt lat="44.71856" lon="-0.2727">
        <ele>78</ele>
        <time>2013-04-21T13:51:43Z</time>
      </trkpt>
      <trkpt lat="44.71853" lon="-0.27248">
        <ele>77</ele>
        <time>2013-04-21T13:51:50Z</time>
      </trkpt>
      <trkpt lat="44.71851" lon="-0.27233">
        <ele>77</ele>
        <time>2013-04-21T13:51:57Z</time>
      </trkpt>
      <trkpt lat="44.71838" lon="-0.27233">
        <ele>77</ele>
        <time>2013-04-21T13:52:02Z</time>
      </trkpt>
      <trkpt lat="44.71814" lon="-0.27262">
        <ele>76</ele>
        <time>2013-04-21T13:52:10Z</time>
      </trkpt>
      <trkpt lat="44.71804" lon="-0.27276">
        <ele>75</ele>
        <time>2013-04-21T13:52:13Z</time>
      </trkpt>
      <trkpt lat="44.718" lon="-0.2728">
        <ele>75</ele>
        <time>2013-04-21T13:52:14Z</time>
      </trkpt>
      <trkpt lat="44.71796" lon="-0.27283">
        <ele>75</ele>
        <time>2013-04-21T13:52:15Z</time>
      </trkpt>
      <trkpt lat="44.71784" lon="-0.27291">
        <ele>75</ele>
        <time>2013-04-21T13:52:18Z</time>
      </trkpt>
      <trkpt lat="44.71779" lon="-0.27292">
        <ele>75</ele>
        <time>2013-04-21T13:52:19Z</time>
      </trkpt>
      <trkpt lat="44.71763" lon="-0.27297">
        <ele>76</ele>
        <time>2013-04-21T13:52:24Z</time>
      </trkpt>
      <trkpt lat="44.71742" lon="-0.27302">
        <ele>77</ele>
        <time>2013-04-21T13:52:31Z</time>
      </trkpt>
      <trkpt lat="44.71732" lon="-0.27306">
        <ele>78</ele>
        <time>2013-04-21T13:52:36Z</time>
      </trkpt>
      <trkpt lat="44.71731" lon="-0.27308">
        <ele>78</ele>
        <time>2013-04-21T13:52:37Z</time>
      </trkpt>
      <trkpt lat="44.71731" lon="-0.27313">
        <ele>78</ele>
        <time>2013-04-21T13:52:39Z</time>
      </trkpt>
      <trkpt lat="44.71736" lon="-0.27338">
        <ele>79</ele>
        <time>2013-04-21T13:52:48Z</time>
      </trkpt>
      <trkpt lat="44.71742" lon="-0.27363">
        <ele>80</ele>
        <time>2013-04-21T13:52:57Z</time>
      </trkpt>
      <trkpt lat="44.71748" lon="-0.27388">
        <ele>80</ele>
        <time>2013-04-21T13:53:05Z</time>
      </trkpt>
      <trkpt lat="44.71755" lon="-0.27419">
        <ele>81</ele>
        <time>2013-04-21T13:53:14Z</time>
      </trkpt>
      <trkpt lat="44.71761" lon="-0.27444">
        <ele>82</ele>
        <time>2013-04-21T13:53:22Z</time>
      </trkpt>
      <trkpt lat="44.71767" lon="-0.2747">
        <ele>82</ele>
        <time>2013-04-21T13:53:31Z</time>
      </trkpt>
      <trkpt lat="44.71769" lon="-0.2748">
        <ele>82</ele>
        <time>2013-04-21T13:53:35Z</time>
      </trkpt>
      <trkpt lat="44.71783" lon="-0.27492">
        <ele>82</ele>
        <time>2013-04-21T13:53:45Z</time>
      </trkpt>
      <trkpt lat="44.71792" lon="-0.2751">
        <ele>83</ele>
        <time>2013-04-21T13:53:53Z</time>
      </trkpt>
      <trkpt lat="44.718" lon="-0.27533">
        <ele>83</ele>
        <time>2013-04-21T13:54:02Z</time>
      </trkpt>
      <trkpt lat="44.71808" lon="-0.27555">
        <ele>84</ele>
        <time>2013-04-21T13:54:10Z</time>
      </trkpt>
      <trkpt lat="44.71814" lon="-0.2758">
        <ele>84</ele>
        <time>2013-04-21T13:54:19Z</time>
      </trkpt>
      <trkpt lat="44.7182" lon="-0.27599">
        <ele>85</ele>
        <time>2013-04-21T13:54:27Z</time>
      </trkpt>
      <trkpt lat="44.71825" lon="-0.27617">
        <ele>86</ele>
        <time>2013-04-21T13:54:34Z</time>
      </trkpt>
      <trkpt lat="44.71832" lon="-0.27638">
        <ele>86</ele>
        <time>2013-04-21T13:54:43Z</time>
      </trkpt>
      <trkpt lat="44.71838" lon="-0.27656">
        <ele>87</ele>
        <time>2013-04-21T13:54:51Z</time>
      </trkpt>
      <trkpt lat="44.71843" lon="-0.27674">
        <ele>87</ele>
        <time>2013-04-21T13:54:59Z</time>
      </trkpt>
      <trkpt lat="44.71848" lon="-0.27687">
        <ele>88</ele>
        <time>2013-04-21T13:55:06Z</time>
      </trkpt>
      <trkpt lat="44.71851" lon="-0.277">
        <ele>88</ele>
        <time>2013-04-21T13:55:12Z</time>
      </trkpt>
      <trkpt lat="44.71856" lon="-0.27717">
        <ele>88</ele>
        <time>2013-04-21T13:55:20Z</time>
      </trkpt>
      <trkpt lat="44.71863" lon="-0.27738">
        <ele>89</ele>
        <time>2013-04-21T13:55:30Z</time>
      </trkpt>
      <trkpt lat="44.71868" lon="-0.27754">
        <ele>89</ele>
        <time>2013-04-21T13:55:38Z</time>
      </trkpt>
      <trkpt lat="44.71874" lon="-0.2777">
        <ele>89</ele>
        <time>2013-04-21T13:55:45Z</time>
      </trkpt>
      <trkpt lat="44.71879" lon="-0.27786">
        <ele>89</ele>
        <time>2013-04-21T13:55:52Z</time>
      </trkpt>
      <trkpt lat="44.71886" lon="-0.27804">
        <ele>89</ele>
        <time>2013-04-21T13:56:00Z</time>
      </trkpt>
      <trkpt lat="44.71893" lon="-0.27822">
        <ele>89</ele>
        <time>2013-04-21T13:56:10Z</time>
      </trkpt>
      <trkpt lat="44.71893" lon="-0.27829">
        <ele>89</ele>
        <time>2013-04-21T13:56:13Z</time>
      </trkpt>
      <trkpt lat="44.7188" lon="-0.27843">
        <ele>88</ele>
        <time>2013-04-21T13:56:19Z</time>
      </trkpt>
      <trkpt lat="44.71876" lon="-0.27846">
        <ele>88</ele>
        <time>2013-04-21T13:56:20Z</time>
      </trkpt>
      <trkpt lat="44.71836" lon="-0.27882">
        <ele>83</ele>
        <time>2013-04-21T13:56:29Z</time>
      </trkpt>
      <trkpt lat="44.71804" lon="-0.27909">
        <ele>81</ele>
        <time>2013-04-21T13:56:37Z</time>
      </trkpt>
      <trkpt lat="44.71782" lon="-0.27927">
        <ele>79</ele>
        <time>2013-04-21T13:56:43Z</time>
      </trkpt>
      <trkpt lat="44.71779" lon="-0.27931">
        <ele>79</ele>
        <time>2013-04-21T13:56:44Z</time>
      </trkpt>
      <trkpt lat="44.71754" lon="-0.27956">
        <ele>76</ele>
        <time>2013-04-21T13:56:52Z</time>
      </trkpt>
      <trkpt lat="44.71753" lon="-0.27958">
        <ele>76</ele>
        <time>2013-04-21T13:56:53Z</time>
      </trkpt>
      <trkpt lat="44.71753" lon="-0.27961">
        <ele>76</ele>
        <time>2013-04-21T13:56:54Z</time>
      </trkpt>
      <trkpt lat="44.71753" lon="-0.27963">
        <ele>76</ele>
        <time>2013-04-21T13:56:55Z</time>
      </trkpt>
      <trkpt lat="44.71753" lon="-0.27965">
        <ele>76</ele>
        <time>2013-04-21T13:56:56Z</time>
      </trkpt>
      <trkpt lat="44.71753" lon="-0.27968">
        <ele>76</ele>
        <time>2013-04-21T13:56:57Z</time>
      </trkpt>
      <trkpt lat="44.71752" lon="-0.2797">
        <ele>76</ele>
        <time>2013-04-21T13:56:58Z</time>
      </trkpt>
      <trkpt lat="44.71752" lon="-0.27971">
        <ele>76</ele>
        <time>2013-04-21T13:56:59Z</time>
      </trkpt>
      <trkpt lat="44.7175" lon="-0.27988">
        <ele>76</ele>
        <time>2013-04-21T13:57:08Z</time>
      </trkpt>
      <trkpt lat="44.7175" lon="-0.28006">
        <ele>76</ele>
        <time>2013-04-21T13:57:15Z</time>
      </trkpt>
      <trkpt lat="44.71749" lon="-0.28028">
        <ele>77</ele>
        <time>2013-04-21T13:57:23Z</time>
      </trkpt>
      <trkpt lat="44.71749" lon="-0.28052">
        <ele>77</ele>
        <time>2013-04-21T13:57:32Z</time>
      </trkpt>
      <trkpt lat="44.71749" lon="-0.28072">
        <ele>78</ele>
        <time>2013-04-21T13:57:40Z</time>
      </trkpt>
      <trkpt lat="44.71748" lon="-0.28092">
        <ele>78</ele>
        <time>2013-04-21T13:57:47Z</time>
      </trkpt>
      <trkpt lat="44.71748" lon="-0.28102">
        <ele>78</ele>
        <time>2013-04-21T13:57:51Z</time>
      </trkpt>
      <trkpt lat="44.71749" lon="-0.28104">
        <ele>78</ele>
        <time>2013-04-21T13:57:52Z</time>
      </trkpt>
      <trkpt lat="44.7175" lon="-0.28106">
        <ele>78</ele>
        <time>2013-04-21T13:57:53Z</time>
      </trkpt>
      <trkpt lat="44.71757" lon="-0.28102">
        <ele>78</ele>
        <time>2013-04-21T13:57:57Z</time>
      </trkpt>
      <trkpt lat="44.71758" lon="-0.28101">
        <ele>79</ele>
        <time>2013-04-21T13:57:58Z</time>
      </trkpt>
      <trkpt lat="44.71774" lon="-0.28087">
        <ele>80</ele>
        <time>2013-04-21T13:58:08Z</time>
      </trkpt>
      <trkpt lat="44.71786" lon="-0.28077">
        <ele>81</ele>
        <time>2013-04-21T13:58:16Z</time>
      </trkpt>
      <trkpt lat="44.71797" lon="-0.28067">
        <ele>82</ele>
        <time>2013-04-21T13:58:23Z</time>
      </trkpt>
      <trkpt lat="44.71807" lon="-0.28058">
        <ele>83</ele>
        <time>2013-04-21T13:58:30Z</time>
      </trkpt>
      <trkpt lat="44.71819" lon="-0.28047">
        <ele>84</ele>
        <time>2013-04-21T13:58:39Z</time>
      </trkpt>
      <trkpt lat="44.7183" lon="-0.28038">
        <ele>84</ele>
        <time>2013-04-21T13:58:46Z</time>
      </trkpt>
      <trkpt lat="44.71842" lon="-0.28027">
        <ele>85</ele>
        <time>2013-04-21T13:58:54Z</time>
      </trkpt>
      <trkpt lat="44.71853" lon="-0.28018">
        <ele>86</ele>
        <time>2013-04-21T13:59:02Z</time>
      </trkpt>
      <trkpt lat="44.71859" lon="-0.28013">
        <ele>87</ele>
        <time>2013-04-21T13:59:07Z</time>
      </trkpt>
      <trkpt lat="44.71867" lon="-0.28019">
        <ele>87</ele>
        <time>2013-04-21T13:59:13Z</time>
      </trkpt>
      <trkpt lat="44.71875" lon="-0.28036">
        <ele>89</ele>
        <time>2013-04-21T13:59:24Z</time>
      </trkpt>
      <trkpt lat="44.71883" lon="-0.28055">
        <ele>90</ele>
        <time>2013-04-21T13:59:35Z</time>
      </trkpt>
      <trkpt lat="44.71889" lon="-0.28071">
        <ele>91</ele>
        <time>2013-04-21T13:59:44Z</time>
      </trkpt>
      <trkpt lat="44.71894" lon="-0.28084">
        <ele>92</ele>
        <time>2013-04-21T13:59:52Z</time>
      </trkpt>
      <trkpt lat="44.71901" lon="-0.28099">
        <ele>93</ele>
        <time>2013-04-21T14:00:01Z</time>
      </trkpt>
      <trkpt lat="44.71909" lon="-0.28114">
        <ele>93</ele>
        <time>2013-04-21T14:00:11Z</time>
      </trkpt>
      <trkpt lat="44.71915" lon="-0.28127">
        <ele>94</ele>
        <time>2013-04-21T14:00:19Z</time>
      </trkpt>
      <trkpt lat="44.71921" lon="-0.28139">
        <ele>95</ele>
        <time>2013-04-21T14:00:27Z</time>
      </trkpt>
      <trkpt lat="44.71927" lon="-0.28152">
        <ele>96</ele>
        <time>2013-04-21T14:00:36Z</time>
      </trkpt>
      <trkpt lat="44.71934" lon="-0.28169">
        <ele>97</ele>
        <time>2013-04-21T14:00:45Z</time>
      </trkpt>
      <trkpt lat="44.71941" lon="-0.28185">
        <ele>97</ele>
        <time>2013-04-21T14:00:54Z</time>
      </trkpt>
      <trkpt lat="44.71948" lon="-0.28202">
        <ele>98</ele>
        <time>2013-04-21T14:01:03Z</time>
      </trkpt>
      <trkpt lat="44.71955" lon="-0.28219">
        <ele>98</ele>
        <time>2013-04-21T14:01:13Z</time>
      </trkpt>
      <trkpt lat="44.71961" lon="-0.28235">
        <ele>99</ele>
        <time>2013-04-21T14:01:21Z</time>
      </trkpt>
      <trkpt lat="44.71968" lon="-0.28252">
        <ele>99</ele>
        <time>2013-04-21T14:01:29Z</time>
      </trkpt>
      <trkpt lat="44.71976" lon="-0.28269">
        <ele>100</ele>
        <time>2013-04-21T14:01:38Z</time>
      </trkpt>
      <trkpt lat="44.71984" lon="-0.28285">
        <ele>101</ele>
        <time>2013-04-21T14:01:46Z</time>
      </trkpt>
      <trkpt lat="44.71992" lon="-0.28306">
        <ele>102</ele>
        <time>2013-04-21T14:01:56Z</time>
      </trkpt>
      <trkpt lat="44.72001" lon="-0.28324">
        <ele>102</ele>
        <time>2013-04-21T14:02:05Z</time>
      </trkpt>
      <trkpt lat="44.72006" lon="-0.28333">
        <ele>103</ele>
        <time>2013-04-21T14:02:10Z</time>
      </trkpt>
      <trkpt lat="44.72011" lon="-0.28331">
        <ele>103</ele>
        <time>2013-04-21T14:02:14Z</time>
      </trkpt>
      <trkpt lat="44.72014" lon="-0.2833">
        <ele>104</ele>
        <time>2013-04-21T14:02:16Z</time>
      </trkpt>
      <trkpt lat="44.72021" lon="-0.2833">
        <ele>104</ele>
        <time>2013-04-21T14:02:21Z</time>
      </trkpt>
      <trkpt lat="44.72038" lon="-0.28322">
        <ele>106</ele>
        <time>2013-04-21T14:02:31Z</time>
      </trkpt>
      <trkpt lat="44.72048" lon="-0.28317">
        <ele>106</ele>
        <time>2013-04-21T14:02:37Z</time>
      </trkpt>
      <trkpt lat="44.72057" lon="-0.28314">
        <ele>106</ele>
        <time>2013-04-21T14:02:42Z</time>
      </trkpt>
      <trkpt lat="44.72065" lon="-0.28314">
        <ele>106</ele>
        <time>2013-04-21T14:02:49Z</time>
      </trkpt>
      <trkpt lat="44.72065" lon="-0.28314">
        <ele>106</ele>
        <time>2013-04-21T14:02:58Z</time>
      </trkpt>
      <trkpt lat="44.72066" lon="-0.28314">
        <ele>106</ele>
        <time>2013-04-21T14:03:06Z</time>
      </trkpt>
      <trkpt lat="44.72066" lon="-0.28315">
        <ele>106</ele>
        <time>2013-04-21T14:03:13Z</time>
      </trkpt>
      <trkpt lat="44.72066" lon="-0.28316">
        <ele>106</ele>
        <time>2013-04-21T14:03:31Z</time>
      </trkpt>
      <trkpt lat="44.72066" lon="-0.28316">
        <ele>106</ele>
        <time>2013-04-21T14:03:43Z</time>
      </trkpt>
      <trkpt lat="44.72066" lon="-0.28316">
        <ele>106</ele>
        <time>2013-04-21T14:03:53Z</time>
      </trkpt>
      <trkpt lat="44.72065" lon="-0.28315">
        <ele>106</ele>
        <time>2013-04-21T14:04:04Z</time>
      </trkpt>
      <trkpt lat="44.72065" lon="-0.28315">
        <ele>106</ele>
        <time>2013-04-21T14:04:22Z</time>
      </trkpt>
      <trkpt lat="44.72065" lon="-0.28315">
        <ele>106</ele>
        <time>2013-04-21T14:04:38Z</time>
      </trkpt>
      <trkpt lat="44.72065" lon="-0.28316">
        <ele>106</ele>
        <time>2013-04-21T14:04:54Z</time>
      </trkpt>
      <trkpt lat="44.72068" lon="-0.28317">
        <ele>106</ele>
        <time>2013-04-21T14:05:04Z</time>
      </trkpt>
      <trkpt lat="44.72078" lon="-0.28318">
        <ele>106</ele>
        <time>2013-04-21T14:05:10Z</time>
      </trkpt>
      <trkpt lat="44.72081" lon="-0.28317">
        <ele>106</ele>
        <time>2013-04-21T14:05:12Z</time>
      </trkpt>
      <trkpt lat="44.72091" lon="-0.28315">
        <ele>105</ele>
        <time>2013-04-21T14:05:19Z</time>
      </trkpt>
      <trkpt lat="44.72091" lon="-0.28314">
        <ele>105</ele>
        <time>2013-04-21T14:05:20Z</time>
      </trkpt>
      <trkpt lat="44.72096" lon="-0.28317">
        <ele>105</ele>
        <time>2013-04-21T14:05:26Z</time>
      </trkpt>
      <trkpt lat="44.72098" lon="-0.28318">
        <ele>104</ele>
        <time>2013-04-21T14:05:30Z</time>
      </trkpt>
      <trkpt lat="44.72104" lon="-0.28329">
        <ele>104</ele>
        <time>2013-04-21T14:05:35Z</time>
      </trkpt>
      <trkpt lat="44.7211" lon="-0.28358">
        <ele>102</ele>
        <time>2013-04-21T14:05:42Z</time>
      </trkpt>
      <trkpt lat="44.72113" lon="-0.2837">
        <ele>102</ele>
        <time>2013-04-21T14:05:44Z</time>
      </trkpt>
      <trkpt lat="44.7213" lon="-0.28431">
        <ele>98</ele>
        <time>2013-04-21T14:05:53Z</time>
      </trkpt>
      <trkpt lat="44.72143" lon="-0.28473">
        <ele>96</ele>
        <time>2013-04-21T14:06:00Z</time>
      </trkpt>
      <trkpt lat="44.72149" lon="-0.28511">
        <ele>96</ele>
        <time>2013-04-21T14:06:08Z</time>
      </trkpt>
      <trkpt lat="44.72151" lon="-0.28539">
        <ele>96</ele>
        <time>2013-04-21T14:06:15Z</time>
      </trkpt>
      <trkpt lat="44.72151" lon="-0.28561">
        <ele>96</ele>
        <time>2013-04-21T14:06:21Z</time>
      </trkpt>
      <trkpt lat="44.72151" lon="-0.2858">
        <ele>97</ele>
        <time>2013-04-21T14:06:27Z</time>
      </trkpt>
      <trkpt lat="44.7215" lon="-0.28602">
        <ele>97</ele>
        <time>2013-04-21T14:06:34Z</time>
      </trkpt>
      <trkpt lat="44.72149" lon="-0.28622">
        <ele>98</ele>
        <time>2013-04-21T14:06:41Z</time>
      </trkpt>
      <trkpt lat="44.7215" lon="-0.28634">
        <ele>98</ele>
        <time>2013-04-21T14:06:45Z</time>
      </trkpt>
      <trkpt lat="44.72148" lon="-0.28655">
        <ele>99</ele>
        <time>2013-04-21T14:06:52Z</time>
      </trkpt>
      <trkpt lat="44.72148" lon="-0.28679">
        <ele>99</ele>
        <time>2013-04-21T14:07:00Z</time>
      </trkpt>
      <trkpt lat="44.72147" lon="-0.28703">
        <ele>99</ele>
        <time>2013-04-21T14:07:08Z</time>
      </trkpt>
      <trkpt lat="44.72146" lon="-0.28726">
        <ele>99</ele>
        <time>2013-04-21T14:07:16Z</time>
      </trkpt>
      <trkpt lat="44.72146" lon="-0.28748">
        <ele>99</ele>
        <time>2013-04-21T14:07:23Z</time>
      </trkpt>
      <trkpt lat="44.72146" lon="-0.28764">
        <ele>99</ele>
        <time>2013-04-21T14:07:29Z</time>
      </trkpt>
      <trkpt lat="44.72146" lon="-0.28783">
        <ele>99</ele>
        <time>2013-04-21T14:07:36Z</time>
      </trkpt>
      <trkpt lat="44.72146" lon="-0.28807">
        <ele>99</ele>
        <time>2013-04-21T14:07:44Z</time>
      </trkpt>
      <trkpt lat="44.72145" lon="-0.28829">
        <ele>99</ele>
        <time>2013-04-21T14:07:52Z</time>
      </trkpt>
      <trkpt lat="44.72145" lon="-0.28848">
        <ele>99</ele>
        <time>2013-04-21T14:07:59Z</time>
      </trkpt>
      <trkpt lat="44.72144" lon="-0.2887">
        <ele>99</ele>
        <time>2013-04-21T14:08:07Z</time>
      </trkpt>
      <trkpt lat="44.72144" lon="-0.28873">
        <ele>99</ele>
        <time>2013-04-21T14:08:08Z</time>
      </trkpt>
      <trkpt lat="44.72142" lon="-0.28886">
        <ele>100</ele>
        <time>2013-04-21T14:08:13Z</time>
      </trkpt>
      <trkpt lat="44.72143" lon="-0.28908">
        <ele>100</ele>
        <time>2013-04-21T14:08:20Z</time>
      </trkpt>
      <trkpt lat="44.72143" lon="-0.28924">
        <ele>100</ele>
        <time>2013-04-21T14:08:26Z</time>
      </trkpt>
      <trkpt lat="44.72143" lon="-0.28949">
        <ele>99</ele>
        <time>2013-04-21T14:08:35Z</time>
      </trkpt>
      <trkpt lat="44.72142" lon="-0.28956">
        <ele>99</ele>
        <time>2013-04-21T14:08:37Z</time>
      </trkpt>
      <trkpt lat="44.72128" lon="-0.28962">
        <ele>101</ele>
        <time>2013-04-21T14:08:45Z</time>
      </trkpt>
      <trkpt lat="44.72111" lon="-0.28964">
        <ele>104</ele>
        <time>2013-04-21T14:08:55Z</time>
      </trkpt>
      <trkpt lat="44.721" lon="-0.28969">
        <ele>105</ele>
        <time>2013-04-21T14:09:02Z</time>
      </trkpt>
      <trkpt lat="44.72099" lon="-0.2897">
        <ele>105</ele>
        <time>2013-04-21T14:09:03Z</time>
      </trkpt>
      <trkpt lat="44.72099" lon="-0.2899">
        <ele>105</ele>
        <time>2013-04-21T14:09:12Z</time>
      </trkpt>
      <trkpt lat="44.72101" lon="-0.29014">
        <ele>104</ele>
        <time>2013-04-21T14:09:21Z</time>
      </trkpt>
      <trkpt lat="44.72101" lon="-0.2904">
        <ele>104</ele>
        <time>2013-04-21T14:09:29Z</time>
      </trkpt>
      <trkpt lat="44.72102" lon="-0.29061">
        <ele>104</ele>
        <time>2013-04-21T14:09:35Z</time>
      </trkpt>
      <trkpt lat="44.72102" lon="-0.29091">
        <ele>104</ele>
        <time>2013-04-21T14:09:44Z</time>
      </trkpt>
      <trkpt lat="44.72104" lon="-0.29124">
        <ele>104</ele>
        <time>2013-04-21T14:09:53Z</time>
      </trkpt>
      <trkpt lat="44.72104" lon="-0.29153">
        <ele>103</ele>
        <time>2013-04-21T14:10:01Z</time>
      </trkpt>
      <trkpt lat="44.72104" lon="-0.2918">
        <ele>103</ele>
        <time>2013-04-21T14:10:08Z</time>
      </trkpt>
      <trkpt lat="44.72104" lon="-0.29206">
        <ele>103</ele>
        <time>2013-04-21T14:10:15Z</time>
      </trkpt>
      <trkpt lat="44.72105" lon="-0.29236">
        <ele>103</ele>
        <time>2013-04-21T14:10:23Z</time>
      </trkpt>
      <trkpt lat="44.72106" lon="-0.29271">
        <ele>104</ele>
        <time>2013-04-21T14:10:32Z</time>
      </trkpt>
      <trkpt lat="44.72105" lon="-0.29279">
        <ele>105</ele>
        <time>2013-04-21T14:10:34Z</time>
      </trkpt>
      <trkpt lat="44.72095" lon="-0.29288">
        <ele>106</ele>
        <time>2013-04-21T14:10:39Z</time>
      </trkpt>
      <trkpt lat="44.72069" lon="-0.29292">
        <ele>108</ele>
        <time>2013-04-21T14:10:49Z</time>
      </trkpt>
      <trkpt lat="44.72059" lon="-0.29296">
        <ele>109</ele>
        <time>2013-04-21T14:10:56Z</time>
      </trkpt>
      <trkpt lat="44.72057" lon="-0.29297">
        <ele>109</ele>
        <time>2013-04-21T14:10:57Z</time>
      </trkpt>
      <trkpt lat="44.72058" lon="-0.29306">
        <ele>109</ele>
        <time>2013-04-21T14:11:01Z</time>
      </trkpt>
      <trkpt lat="44.7206" lon="-0.2931">
        <ele>109</ele>
        <time>2013-04-21T14:11:07Z</time>
      </trkpt>
      <trkpt lat="44.72059" lon="-0.2931">
        <ele>109</ele>
        <time>2013-04-21T14:11:16Z</time>
      </trkpt>
      <trkpt lat="44.72057" lon="-0.2931">
        <ele>109</ele>
        <time>2013-04-21T14:11:21Z</time>
      </trkpt>
      <trkpt lat="44.72056" lon="-0.29309">
        <ele>109</ele>
        <time>2013-04-21T14:11:28Z</time>
      </trkpt>
      <trkpt lat="44.72055" lon="-0.29308">
        <ele>109</ele>
        <time>2013-04-21T14:11:39Z</time>
      </trkpt>
      <trkpt lat="44.72055" lon="-0.29307">
        <ele>109</ele>
        <time>2013-04-21T14:11:46Z</time>
      </trkpt>
      <trkpt lat="44.72055" lon="-0.29307">
        <ele>109</ele>
        <time>2013-04-21T14:11:56Z</time>
      </trkpt>
      <trkpt lat="44.72055" lon="-0.29307">
        <ele>109</ele>
        <time>2013-04-21T14:12:15Z</time>
      </trkpt>
      <trkpt lat="44.72056" lon="-0.29307">
        <ele>109</ele>
        <time>2013-04-21T14:12:32Z</time>
      </trkpt>
      <trkpt lat="44.72056" lon="-0.29307">
        <ele>109</ele>
        <time>2013-04-21T14:12:54Z</time>
      </trkpt>
      <trkpt lat="44.72056" lon="-0.29307">
        <ele>109</ele>
        <time>2013-04-21T14:13:04Z</time>
      </trkpt>
      <trkpt lat="44.72056" lon="-0.29307">
        <ele>109</ele>
        <time>2013-04-21T14:13:16Z</time>
      </trkpt>
      <trkpt lat="44.72059" lon="-0.29311">
        <ele>109</ele>
        <time>2013-04-21T14:13:21Z</time>
      </trkpt>
      <trkpt lat="44.7206" lon="-0.29318">
        <ele>109</ele>
        <time>2013-04-21T14:13:25Z</time>
      </trkpt>
      <trkpt lat="44.72065" lon="-0.29338">
        <ele>110</ele>
        <time>2013-04-21T14:13:32Z</time>
      </trkpt>
      <trkpt lat="44.7207" lon="-0.29361">
        <ele>110</ele>
        <time>2013-04-21T14:13:39Z</time>
      </trkpt>
      <trkpt lat="44.72075" lon="-0.2939">
        <ele>110</ele>
        <time>2013-04-21T14:13:46Z</time>
      </trkpt>
      <trkpt lat="44.72081" lon="-0.29415">
        <ele>110</ele>
        <time>2013-04-21T14:13:52Z</time>
      </trkpt>
      <trkpt lat="44.72092" lon="-0.29462">
        <ele>111</ele>
        <time>2013-04-21T14:14:04Z</time>
      </trkpt>
      <trkpt lat="44.72104" lon="-0.29495">
        <ele>111</ele>
        <time>2013-04-21T14:14:13Z</time>
      </trkpt>
      <trkpt lat="44.72106" lon="-0.29499">
        <ele>111</ele>
        <time>2013-04-21T14:14:14Z</time>
      </trkpt>
      <trkpt lat="44.72099" lon="-0.29521">
        <ele>111</ele>
        <time>2013-04-21T14:14:19Z</time>
      </trkpt>
      <trkpt lat="44.72086" lon="-0.2954">
        <ele>111</ele>
        <time>2013-04-21T14:14:24Z</time>
      </trkpt>
      <trkpt lat="44.72064" lon="-0.29582">
        <ele>110</ele>
        <time>2013-04-21T14:14:33Z</time>
      </trkpt>
      <trkpt lat="44.72035" lon="-0.29638">
        <ele>110</ele>
        <time>2013-04-21T14:14:43Z</time>
      </trkpt>
      <trkpt lat="44.72008" lon="-0.29694">
        <ele>109</ele>
        <time>2013-04-21T14:14:52Z</time>
      </trkpt>
      <trkpt lat="44.71979" lon="-0.29758">
        <ele>109</ele>
        <time>2013-04-21T14:15:02Z</time>
      </trkpt>
      <trkpt lat="44.7195" lon="-0.29824">
        <ele>109</ele>
        <time>2013-04-21T14:15:13Z</time>
      </trkpt>
      <trkpt lat="44.71927" lon="-0.29867">
        <ele>110</ele>
        <time>2013-04-21T14:15:21Z</time>
      </trkpt>
      <trkpt lat="44.71895" lon="-0.29892">
        <ele>111</ele>
        <time>2013-04-21T14:15:29Z</time>
      </trkpt>
      <trkpt lat="44.71848" lon="-0.2992">
        <ele>112</ele>
        <time>2013-04-21T14:15:40Z</time>
      </trkpt>
      <trkpt lat="44.71819" lon="-0.29937">
        <ele>112</ele>
        <time>2013-04-21T14:15:48Z</time>
      </trkpt>
      <trkpt lat="44.71789" lon="-0.29954">
        <ele>112</ele>
        <time>2013-04-21T14:15:57Z</time>
      </trkpt>
      <trkpt lat="44.71775" lon="-0.29961">
        <ele>112</ele>
        <time>2013-04-21T14:16:02Z</time>
      </trkpt>
      <trkpt lat="44.71774" lon="-0.29963">
        <ele>112</ele>
        <time>2013-04-21T14:16:03Z</time>
      </trkpt>
      <trkpt lat="44.71773" lon="-0.29966">
        <ele>112</ele>
        <time>2013-04-21T14:16:04Z</time>
      </trkpt>
      <trkpt lat="44.71773" lon="-0.29969">
        <ele>112</ele>
        <time>2013-04-21T14:16:05Z</time>
      </trkpt>
      <trkpt lat="44.71773" lon="-0.29972">
        <ele>112</ele>
        <time>2013-04-21T14:16:06Z</time>
      </trkpt>
      <trkpt lat="44.71774" lon="-0.29976">
        <ele>112</ele>
        <time>2013-04-21T14:16:07Z</time>
      </trkpt>
      <trkpt lat="44.71777" lon="-0.29994">
        <ele>112</ele>
        <time>2013-04-21T14:16:13Z</time>
      </trkpt>
      <trkpt lat="44.71786" lon="-0.30032">
        <ele>111</ele>
        <time>2013-04-21T14:16:22Z</time>
      </trkpt>
      <trkpt lat="44.71793" lon="-0.30063">
        <ele>109</ele>
        <time>2013-04-21T14:16:29Z</time>
      </trkpt>
      <trkpt lat="44.71801" lon="-0.30093">
        <ele>108</ele>
        <time>2013-04-21T14:16:38Z</time>
      </trkpt>
      <trkpt lat="44.71809" lon="-0.30123">
        <ele>105</ele>
        <time>2013-04-21T14:16:45Z</time>
      </trkpt>
      <trkpt lat="44.71814" lon="-0.30148">
        <ele>103</ele>
        <time>2013-04-21T14:16:53Z</time>
      </trkpt>
      <trkpt lat="44.71814" lon="-0.30153">
        <ele>103</ele>
        <time>2013-04-21T14:16:55Z</time>
      </trkpt>
      <trkpt lat="44.71815" lon="-0.30155">
        <ele>102</ele>
        <time>2013-04-21T14:16:56Z</time>
      </trkpt>
      <trkpt lat="44.71817" lon="-0.30158">
        <ele>102</ele>
        <time>2013-04-21T14:16:57Z</time>
      </trkpt>
      <trkpt lat="44.71819" lon="-0.30162">
        <ele>102</ele>
        <time>2013-04-21T14:16:58Z</time>
      </trkpt>
      <trkpt lat="44.7182" lon="-0.30167">
        <ele>102</ele>
        <time>2013-04-21T14:16:59Z</time>
      </trkpt>
      <trkpt lat="44.71822" lon="-0.30172">
        <ele>101</ele>
        <time>2013-04-21T14:17:00Z</time>
      </trkpt>
      <trkpt lat="44.71825" lon="-0.30177">
        <ele>101</ele>
        <time>2013-04-21T14:17:01Z</time>
      </trkpt>
      <trkpt lat="44.71836" lon="-0.3021">
        <ele>98</ele>
        <time>2013-04-21T14:17:08Z</time>
      </trkpt>
      <trkpt lat="44.71842" lon="-0.30226">
        <ele>96</ele>
        <time>2013-04-21T14:17:11Z</time>
      </trkpt>
      <trkpt lat="44.71861" lon="-0.30271">
        <ele>90</ele>
        <time>2013-04-21T14:17:19Z</time>
      </trkpt>
      <trkpt lat="44.71863" lon="-0.30277">
        <ele>89</ele>
        <time>2013-04-21T14:17:20Z</time>
      </trkpt>
      <trkpt lat="44.71865" lon="-0.30283">
        <ele>88</ele>
        <time>2013-04-21T14:17:21Z</time>
      </trkpt>
      <trkpt lat="44.71872" lon="-0.30299">
        <ele>87</ele>
        <time>2013-04-21T14:17:24Z</time>
      </trkpt>
      <trkpt lat="44.71874" lon="-0.30305">
        <ele>87</ele>
        <time>2013-04-21T14:17:25Z</time>
      </trkpt>
      <trkpt lat="44.71878" lon="-0.30315">
        <ele>87</ele>
        <time>2013-04-21T14:17:27Z</time>
      </trkpt>
      <trkpt lat="44.71881" lon="-0.3032">
        <ele>86</ele>
        <time>2013-04-21T14:17:28Z</time>
      </trkpt>
      <trkpt lat="44.71899" lon="-0.30361">
        <ele>82</ele>
        <time>2013-04-21T14:17:36Z</time>
      </trkpt>
      <trkpt lat="44.7191" lon="-0.30382">
        <ele>82</ele>
        <time>2013-04-21T14:17:40Z</time>
      </trkpt>
      <trkpt lat="44.71913" lon="-0.30387">
        <ele>82</ele>
        <time>2013-04-21T14:17:41Z</time>
      </trkpt>
      <trkpt lat="44.71931" lon="-0.30417">
        <ele>79</ele>
        <time>2013-04-21T14:17:48Z</time>
      </trkpt>
      <trkpt lat="44.71944" lon="-0.30441">
        <ele>77</ele>
        <time>2013-04-21T14:17:54Z</time>
      </trkpt>
      <trkpt lat="44.71965" lon="-0.30473">
        <ele>76</ele>
        <time>2013-04-21T14:18:02Z</time>
      </trkpt>
      <trkpt lat="44.71984" lon="-0.305">
        <ele>74</ele>
        <time>2013-04-21T14:18:08Z</time>
      </trkpt>
      <trkpt lat="44.71992" lon="-0.30522">
        <ele>73</ele>
        <time>2013-04-21T14:18:12Z</time>
      </trkpt>
      <trkpt lat="44.72001" lon="-0.30582">
        <ele>72</ele>
        <time>2013-04-21T14:18:22Z</time>
      </trkpt>
      <trkpt lat="44.72013" lon="-0.30637">
        <ele>70</ele>
        <time>2013-04-21T14:18:31Z</time>
      </trkpt>
      <trkpt lat="44.72015" lon="-0.30643">
        <ele>70</ele>
        <time>2013-04-21T14:18:32Z</time>
      </trkpt>
      <trkpt lat="44.7202" lon="-0.30674">
        <ele>69</ele>
        <time>2013-04-21T14:18:39Z</time>
      </trkpt>
      <trkpt lat="44.7202" lon="-0.30678">
        <ele>69</ele>
        <time>2013-04-21T14:18:44Z</time>
      </trkpt>
      <trkpt lat="44.7202" lon="-0.30678">
        <ele>69</ele>
        <time>2013-04-21T14:18:51Z</time>
      </trkpt>
      <trkpt lat="44.7202" lon="-0.30677">
        <ele>69</ele>
        <time>2013-04-21T14:19:04Z</time>
      </trkpt>
      <trkpt lat="44.72019" lon="-0.30677">
        <ele>69</ele>
        <time>2013-04-21T14:19:20Z</time>
      </trkpt>
      <trkpt lat="44.7202" lon="-0.3068">
        <ele>69</ele>
        <time>2013-04-21T14:19:27Z</time>
      </trkpt>
      <trkpt lat="44.72019" lon="-0.30681">
        <ele>70</ele>
        <time>2013-04-21T14:19:33Z</time>
      </trkpt>
      <trkpt lat="44.72018" lon="-0.30681">
        <ele>70</ele>
        <time>2013-04-21T14:19:41Z</time>
      </trkpt>
      <trkpt lat="44.72017" lon="-0.30681">
        <ele>70</ele>
        <time>2013-04-21T14:19:47Z</time>
      </trkpt>
      <trkpt lat="44.72015" lon="-0.30681">
        <ele>70</ele>
        <time>2013-04-21T14:19:53Z</time>
      </trkpt>
      <trkpt lat="44.72014" lon="-0.30681">
        <ele>70</ele>
        <time>2013-04-21T14:19:54Z</time>
      </trkpt>
      <trkpt lat="44.72012" lon="-0.3068">
        <ele>70</ele>
        <time>2013-04-21T14:19:55Z</time>
      </trkpt>
      <trkpt lat="44.72011" lon="-0.3068">
        <ele>70</ele>
        <time>2013-04-21T14:19:56Z</time>
      </trkpt>
      <trkpt lat="44.72009" lon="-0.3068">
        <ele>70</ele>
        <time>2013-04-21T14:19:57Z</time>
      </trkpt>
      <trkpt lat="44.72008" lon="-0.30679">
        <ele>70</ele>
        <time>2013-04-21T14:19:58Z</time>
      </trkpt>
      <trkpt lat="44.72005" lon="-0.30678">
        <ele>70</ele>
        <time>2013-04-21T14:20:00Z</time>
      </trkpt>
      <trkpt lat="44.72004" lon="-0.30678">
        <ele>71</ele>
        <time>2013-04-21T14:20:01Z</time>
      </trkpt>
      <trkpt lat="44.72002" lon="-0.30677">
        <ele>71</ele>
        <time>2013-04-21T14:20:02Z</time>
      </trkpt>
      <trkpt lat="44.72001" lon="-0.30676">
        <ele>71</ele>
        <time>2013-04-21T14:20:03Z</time>
      </trkpt>
      <trkpt lat="44.71999" lon="-0.30675">
        <ele>71</ele>
        <time>2013-04-21T14:20:04Z</time>
      </trkpt>
      <trkpt lat="44.71997" lon="-0.30674">
        <ele>71</ele>
        <time>2013-04-21T14:20:05Z</time>
      </trkpt>
      <trkpt lat="44.71982" lon="-0.30663">
        <ele>72</ele>
        <time>2013-04-21T14:20:13Z</time>
      </trkpt>
      <trkpt lat="44.71967" lon="-0.30654">
        <ele>74</ele>
        <time>2013-04-21T14:20:21Z</time>
      </trkpt>
      <trkpt lat="44.71953" lon="-0.30645">
        <ele>76</ele>
        <time>2013-04-21T14:20:30Z</time>
      </trkpt>
      <trkpt lat="44.71949" lon="-0.30644">
        <ele>76</ele>
        <time>2013-04-21T14:20:32Z</time>
      </trkpt>
      <trkpt lat="44.71948" lon="-0.30645">
        <ele>76</ele>
        <time>2013-04-21T14:20:33Z</time>
      </trkpt>
      <trkpt lat="44.71947" lon="-0.30649">
        <ele>76</ele>
        <time>2013-04-21T14:20:35Z</time>
      </trkpt>
      <trkpt lat="44.71947" lon="-0.30666">
        <ele>76</ele>
        <time>2013-04-21T14:20:42Z</time>
      </trkpt>
      <trkpt lat="44.71947" lon="-0.30682">
        <ele>77</ele>
        <time>2013-04-21T14:20:48Z</time>
      </trkpt>
      <trkpt lat="44.71948" lon="-0.30704">
        <ele>77</ele>
        <time>2013-04-21T14:20:56Z</time>
      </trkpt>
      <trkpt lat="44.71948" lon="-0.30727">
        <ele>78</ele>
        <time>2013-04-21T14:21:04Z</time>
      </trkpt>
      <trkpt lat="44.71947" lon="-0.30747">
        <ele>78</ele>
        <time>2013-04-21T14:21:11Z</time>
      </trkpt>
      <trkpt lat="44.71948" lon="-0.30775">
        <ele>78</ele>
        <time>2013-04-21T14:21:20Z</time>
      </trkpt>
      <trkpt lat="44.71948" lon="-0.30802">
        <ele>78</ele>
        <time>2013-04-21T14:21:28Z</time>
      </trkpt>
      <trkpt lat="44.71949" lon="-0.30834">
        <ele>78</ele>
        <time>2013-04-21T14:21:37Z</time>
      </trkpt>
      <trkpt lat="44.71949" lon="-0.30873">
        <ele>76</ele>
        <time>2013-04-21T14:21:45Z</time>
      </trkpt>
      <trkpt lat="44.7195" lon="-0.30907">
        <ele>75</ele>
        <time>2013-04-21T14:21:51Z</time>
      </trkpt>
      <trkpt lat="44.7195" lon="-0.30951">
        <ele>73</ele>
        <time>2013-04-21T14:21:58Z</time>
      </trkpt>
      <trkpt lat="44.71949" lon="-0.30991">
        <ele>71</ele>
        <time>2013-04-21T14:22:06Z</time>
      </trkpt>
      <trkpt lat="44.71949" lon="-0.31002">
        <ele>70</ele>
        <time>2013-04-21T14:22:08Z</time>
      </trkpt>
      <trkpt lat="44.7195" lon="-0.31014">
        <ele>70</ele>
        <time>2013-04-21T14:22:10Z</time>
      </trkpt>
      <trkpt lat="44.7195" lon="-0.31093">
        <ele>66</ele>
        <time>2013-04-21T14:22:21Z</time>
      </trkpt>
      <trkpt lat="44.71953" lon="-0.31133">
        <ele>64</ele>
        <time>2013-04-21T14:22:27Z</time>
      </trkpt>
      <trkpt lat="44.71954" lon="-0.31158">
        <ele>63</ele>
        <time>2013-04-21T14:22:31Z</time>
      </trkpt>
      <trkpt lat="44.7195" lon="-0.31206">
        <ele>60</ele>
        <time>2013-04-21T14:22:37Z</time>
      </trkpt>
      <trkpt lat="44.71944" lon="-0.31235">
        <ele>58</ele>
        <time>2013-04-21T14:22:42Z</time>
      </trkpt>
      <trkpt lat="44.71942" lon="-0.31238">
        <ele>57</ele>
        <time>2013-04-21T14:22:43Z</time>
      </trkpt>
      <trkpt lat="44.71915" lon="-0.31242">
        <ele>56</ele>
        <time>2013-04-21T14:22:52Z</time>
      </trkpt>
      <trkpt lat="44.71896" lon="-0.31242">
        <ele>57</ele>
        <time>2013-04-21T14:22:58Z</time>
      </trkpt>
      <trkpt lat="44.71874" lon="-0.31237">
        <ele>58</ele>
        <time>2013-04-21T14:23:06Z</time>
      </trkpt>
      <trkpt lat="44.71861" lon="-0.31235">
        <ele>59</ele>
        <time>2013-04-21T14:23:12Z</time>
      </trkpt>
      <trkpt lat="44.71849" lon="-0.31238">
        <ele>59</ele>
        <time>2013-04-21T14:23:17Z</time>
      </trkpt>
      <trkpt lat="44.7183" lon="-0.31249">
        <ele>60</ele>
        <time>2013-04-21T14:23:24Z</time>
      </trkpt>
      <trkpt lat="44.71804" lon="-0.31258">
        <ele>60</ele>
        <time>2013-04-21T14:23:34Z</time>
      </trkpt>
      <trkpt lat="44.71781" lon="-0.31259">
        <ele>60</ele>
        <time>2013-04-21T14:23:43Z</time>
      </trkpt>
      <trkpt lat="44.71756" lon="-0.31258">
        <ele>60</ele>
        <time>2013-04-21T14:23:52Z</time>
      </trkpt>
      <trkpt lat="44.71737" lon="-0.31257">
        <ele>60</ele>
        <time>2013-04-21T14:24:00Z</time>
      </trkpt>
      <trkpt lat="44.71713" lon="-0.31254">
        <ele>61</ele>
        <time>2013-04-21T14:24:09Z</time>
      </trkpt>
      <trkpt lat="44.71684" lon="-0.3125">
        <ele>62</ele>
        <time>2013-04-21T14:24:20Z</time>
      </trkpt>
      <trkpt lat="44.7167" lon="-0.31248">
        <ele>62</ele>
        <time>2013-04-21T14:24:26Z</time>
      </trkpt>
      <trkpt lat="44.71653" lon="-0.31244">
        <ele>63</ele>
        <time>2013-04-21T14:24:33Z</time>
      </trkpt>
      <trkpt lat="44.71634" lon="-0.31234">
        <ele>64</ele>
        <time>2013-04-21T14:24:40Z</time>
      </trkpt>
      <trkpt lat="44.71611" lon="-0.31224">
        <ele>64</ele>
        <time>2013-04-21T14:24:49Z</time>
      </trkpt>
      <trkpt lat="44.7159" lon="-0.31207">
        <ele>65</ele>
        <time>2013-04-21T14:24:58Z</time>
      </trkpt>
      <trkpt lat="44.71575" lon="-0.31186">
        <ele>65</ele>
        <time>2013-04-21T14:25:06Z</time>
      </trkpt>
      <trkpt lat="44.7156" lon="-0.31165">
        <ele>65</ele>
        <time>2013-04-21T14:25:14Z</time>
      </trkpt>
      <trkpt lat="44.71547" lon="-0.31145">
        <ele>66</ele>
        <time>2013-04-21T14:25:21Z</time>
      </trkpt>
      <trkpt lat="44.71532" lon="-0.31117">
        <ele>66</ele>
        <time>2013-04-21T14:25:29Z</time>
      </trkpt>
      <trkpt lat="44.71518" lon="-0.31092">
        <ele>65</ele>
        <time>2013-04-21T14:25:36Z</time>
      </trkpt>
      <trkpt lat="44.71504" lon="-0.31065">
        <ele>66</ele>
        <time>2013-04-21T14:25:43Z</time>
      </trkpt>
      <trkpt lat="44.7149" lon="-0.31038">
        <ele>65</ele>
        <time>2013-04-21T14:25:51Z</time>
      </trkpt>
      <trkpt lat="44.71479" lon="-0.31022">
        <ele>65</ele>
        <time>2013-04-21T14:25:58Z</time>
      </trkpt>
      <trkpt lat="44.71474" lon="-0.31018">
        <ele>65</ele>
        <time>2013-04-21T14:26:01Z</time>
      </trkpt>
      <trkpt lat="44.71471" lon="-0.31026">
        <ele>64</ele>
        <time>2013-04-21T14:26:07Z</time>
      </trkpt>
      <trkpt lat="44.7147" lon="-0.31035">
        <ele>65</ele>
        <time>2013-04-21T14:26:11Z</time>
      </trkpt>
      <trkpt lat="44.71465" lon="-0.3105">
        <ele>65</ele>
        <time>2013-04-21T14:26:18Z</time>
      </trkpt>
      <trkpt lat="44.71469" lon="-0.31064">
        <ele>66</ele>
        <time>2013-04-21T14:26:24Z</time>
      </trkpt>
      <trkpt lat="44.71465" lon="-0.31074">
        <ele>66</ele>
        <time>2013-04-21T14:26:28Z</time>
      </trkpt>
      <trkpt lat="44.71462" lon="-0.31087">
        <ele>67</ele>
        <time>2013-04-21T14:26:35Z</time>
      </trkpt>
      <trkpt lat="44.71456" lon="-0.31101">
        <ele>69</ele>
        <time>2013-04-21T14:26:43Z</time>
      </trkpt>
      <trkpt lat="44.7145" lon="-0.3111">
        <ele>70</ele>
        <time>2013-04-21T14:26:49Z</time>
      </trkpt>
      <trkpt lat="44.71446" lon="-0.31117">
        <ele>71</ele>
        <time>2013-04-21T14:26:54Z</time>
      </trkpt>
      <trkpt lat="44.71438" lon="-0.31127">
        <ele>73</ele>
        <time>2013-04-21T14:27:02Z</time>
      </trkpt>
      <trkpt lat="44.71434" lon="-0.31137">
        <ele>74</ele>
        <time>2013-04-21T14:27:09Z</time>
      </trkpt>
      <trkpt lat="44.71433" lon="-0.31138">
        <ele>74</ele>
        <time>2013-04-21T14:27:10Z</time>
      </trkpt>
      <trkpt lat="44.71427" lon="-0.31145">
        <ele>76</ele>
        <time>2013-04-21T14:27:15Z</time>
      </trkpt>
      <trkpt lat="44.71421" lon="-0.31153">
        <ele>77</ele>
        <time>2013-04-21T14:27:20Z</time>
      </trkpt>
      <trkpt lat="44.71413" lon="-0.31161">
        <ele>78</ele>
        <time>2013-04-21T14:27:27Z</time>
      </trkpt>
      <trkpt lat="44.71407" lon="-0.31171">
        <ele>79</ele>
        <time>2013-04-21T14:27:34Z</time>
      </trkpt>
      <trkpt lat="44.71402" lon="-0.3118">
        <ele>79</ele>
        <time>2013-04-21T14:27:40Z</time>
      </trkpt>
      <trkpt lat="44.71396" lon="-0.31188">
        <ele>80</ele>
        <time>2013-04-21T14:27:48Z</time>
      </trkpt>
      <trkpt lat="44.71394" lon="-0.31191">
        <ele>81</ele>
        <time>2013-04-21T14:27:50Z</time>
      </trkpt>
      <trkpt lat="44.71391" lon="-0.31194">
        <ele>81</ele>
        <time>2013-04-21T14:27:52Z</time>
      </trkpt>
      <trkpt lat="44.71381" lon="-0.31207">
        <ele>83</ele>
        <time>2013-04-21T14:27:59Z</time>
      </trkpt>
      <trkpt lat="44.71375" lon="-0.31216">
        <ele>84</ele>
        <time>2013-04-21T14:28:06Z</time>
      </trkpt>
      <trkpt lat="44.71372" lon="-0.31223">
        <ele>84</ele>
        <time>2013-04-21T14:28:10Z</time>
      </trkpt>
      <trkpt lat="44.71367" lon="-0.31229">
        <ele>84</ele>
        <time>2013-04-21T14:28:14Z</time>
      </trkpt>
      <trkpt lat="44.71363" lon="-0.31236">
        <ele>85</ele>
        <time>2013-04-21T14:28:18Z</time>
      </trkpt>
      <trkpt lat="44.71353" lon="-0.31252">
        <ele>86</ele>
        <time>2013-04-21T14:28:26Z</time>
      </trkpt>
      <trkpt lat="44.71344" lon="-0.31263">
        <ele>88</ele>
        <time>2013-04-21T14:28:33Z</time>
      </trkpt>
      <trkpt lat="44.71333" lon="-0.31276">
        <ele>89</ele>
        <time>2013-04-21T14:28:41Z</time>
      </trkpt>
      <trkpt lat="44.71329" lon="-0.31283">
        <ele>90</ele>
        <time>2013-04-21T14:28:45Z</time>
      </trkpt>
      <trkpt lat="44.71321" lon="-0.31294">
        <ele>91</ele>
        <time>2013-04-21T14:28:51Z</time>
      </trkpt>
      <trkpt lat="44.7131" lon="-0.31317">
        <ele>92</ele>
        <time>2013-04-21T14:29:02Z</time>
      </trkpt>
      <trkpt lat="44.71299" lon="-0.31335">
        <ele>93</ele>
        <time>2013-04-21T14:29:12Z</time>
      </trkpt>
      <trkpt lat="44.71288" lon="-0.31356">
        <ele>95</ele>
        <time>2013-04-21T14:29:23Z</time>
      </trkpt>
      <trkpt lat="44.71281" lon="-0.31371">
        <ele>96</ele>
        <time>2013-04-21T14:29:31Z</time>
      </trkpt>
      <trkpt lat="44.71273" lon="-0.31389">
        <ele>97</ele>
        <time>2013-04-21T14:29:40Z</time>
      </trkpt>
      <trkpt lat="44.71264" lon="-0.31406">
        <ele>98</ele>
        <time>2013-04-21T14:29:49Z</time>
      </trkpt>
      <trkpt lat="44.71257" lon="-0.31423">
        <ele>99</ele>
        <time>2013-04-21T14:29:57Z</time>
      </trkpt>
      <trkpt lat="44.7125" lon="-0.31439">
        <ele>100</ele>
        <time>2013-04-21T14:30:05Z</time>
      </trkpt>
      <trkpt lat="44.71244" lon="-0.31456">
        <ele>101</ele>
        <time>2013-04-21T14:30:13Z</time>
      </trkpt>
      <trkpt lat="44.71239" lon="-0.31472">
        <ele>101</ele>
        <time>2013-04-21T14:30:20Z</time>
      </trkpt>
      <trkpt lat="44.71235" lon="-0.31486">
        <ele>101</ele>
        <time>2013-04-21T14:30:26Z</time>
      </trkpt>
      <trkpt lat="44.71231" lon="-0.31501">
        <ele>101</ele>
        <time>2013-04-21T14:30:33Z</time>
      </trkpt>
      <trkpt lat="44.7123" lon="-0.31503">
        <ele>100</ele>
        <time>2013-04-21T14:30:38Z</time>
      </trkpt>
      <trkpt lat="44.7123" lon="-0.31503">
        <ele>101</ele>
        <time>2013-04-21T14:30:48Z</time>
      </trkpt>
      <trkpt lat="44.71229" lon="-0.31503">
        <ele>101</ele>
        <time>2013-04-21T14:30:58Z</time>
      </trkpt>
      <trkpt lat="44.7123" lon="-0.31503">
        <ele>101</ele>
        <time>2013-04-21T14:31:10Z</time>
      </trkpt>
      <trkpt lat="44.71229" lon="-0.31504">
        <ele>101</ele>
        <time>2013-04-21T14:31:18Z</time>
      </trkpt>
      <trkpt lat="44.71229" lon="-0.31504">
        <ele>101</ele>
        <time>2013-04-21T14:31:35Z</time>
      </trkpt>
      <trkpt lat="44.71229" lon="-0.31504">
        <ele>101</ele>
        <time>2013-04-21T14:31:44Z</time>
      </trkpt>
      <trkpt lat="44.71229" lon="-0.31504">
        <ele>101</ele>
        <time>2013-04-21T14:31:59Z</time>
      </trkpt>
      <trkpt lat="44.71229" lon="-0.31503">
        <ele>101</ele>
        <time>2013-04-21T14:32:12Z</time>
      </trkpt>
      <trkpt lat="44.7123" lon="-0.31503">
        <ele>101</ele>
        <time>2013-04-21T14:32:20Z</time>
      </trkpt>
      <trkpt lat="44.7123" lon="-0.31503">
        <ele>101</ele>
        <time>2013-04-21T14:32:28Z</time>
      </trkpt>
      <trkpt lat="44.71229" lon="-0.31502">
        <ele>101</ele>
        <time>2013-04-21T14:32:43Z</time>
      </trkpt>
      <trkpt lat="44.71229" lon="-0.31503">
        <ele>101</ele>
        <time>2013-04-21T14:32:56Z</time>
      </trkpt>
      <trkpt lat="44.71229" lon="-0.31503">
        <ele>101</ele>
        <time>2013-04-21T14:33:12Z</time>
      </trkpt>
      <trkpt lat="44.7123" lon="-0.31503">
        <ele>101</ele>
        <time>2013-04-21T14:33:24Z</time>
      </trkpt>
      <trkpt lat="44.7123" lon="-0.31503">
        <ele>101</ele>
        <time>2013-04-21T14:33:37Z</time>
      </trkpt>
      <trkpt lat="44.7123" lon="-0.31503">
        <ele>101</ele>
        <time>2013-04-21T14:33:54Z</time>
      </trkpt>
      <trkpt lat="44.7123" lon="-0.31503">
        <ele>101</ele>
        <time>2013-04-21T14:34:02Z</time>
      </trkpt>
      <trkpt lat="44.7123" lon="-0.31503">
        <ele>100</ele>
        <time>2013-04-21T14:34:11Z</time>
      </trkpt>
      <trkpt lat="44.7123" lon="-0.31503">
        <ele>100</ele>
        <time>2013-04-21T14:34:13Z</time>
      </trkpt>
      <trkpt lat="44.71231" lon="-0.31508">
        <ele>100</ele>
        <time>2013-04-21T14:34:20Z</time>
      </trkpt>
      <trkpt lat="44.71231" lon="-0.31509">
        <ele>100</ele>
        <time>2013-04-21T14:34:33Z</time>
      </trkpt>
      <trkpt lat="44.71236" lon="-0.31512">
        <ele>100</ele>
        <time>2013-04-21T14:34:40Z</time>
      </trkpt>
      <trkpt lat="44.71243" lon="-0.31519">
        <ele>100</ele>
        <time>2013-04-21T14:34:45Z</time>
      </trkpt>
      <trkpt lat="44.71264" lon="-0.31529">
        <ele>100</ele>
        <time>2013-04-21T14:34:55Z</time>
      </trkpt>
      <trkpt lat="44.71281" lon="-0.31538">
        <ele>100</ele>
        <time>2013-04-21T14:35:02Z</time>
      </trkpt>
      <trkpt lat="44.71303" lon="-0.31548">
        <ele>99</ele>
        <time>2013-04-21T14:35:09Z</time>
      </trkpt>
      <trkpt lat="44.71333" lon="-0.31552">
        <ele>99</ele>
        <time>2013-04-21T14:35:17Z</time>
      </trkpt>
      <trkpt lat="44.71337" lon="-0.31553">
        <ele>99</ele>
        <time>2013-04-21T14:35:18Z</time>
      </trkpt>
      <trkpt lat="44.71364" lon="-0.31563">
        <ele>98</ele>
        <time>2013-04-21T14:35:25Z</time>
      </trkpt>
      <trkpt lat="44.71395" lon="-0.31576">
        <ele>97</ele>
        <time>2013-04-21T14:35:33Z</time>
      </trkpt>
      <trkpt lat="44.71404" lon="-0.31579">
        <ele>97</ele>
        <time>2013-04-21T14:35:35Z</time>
      </trkpt>
      <trkpt lat="44.71423" lon="-0.31586">
        <ele>97</ele>
        <time>2013-04-21T14:35:40Z</time>
      </trkpt>
      <trkpt lat="44.71432" lon="-0.31588">
        <ele>96</ele>
        <time>2013-04-21T14:35:42Z</time>
      </trkpt>
      <trkpt lat="44.71441" lon="-0.31591">
        <ele>96</ele>
        <time>2013-04-21T14:35:44Z</time>
      </trkpt>
      <trkpt lat="44.71445" lon="-0.31593">
        <ele>96</ele>
        <time>2013-04-21T14:35:45Z</time>
      </trkpt>
      <trkpt lat="44.71481" lon="-0.31609">
        <ele>96</ele>
        <time>2013-04-21T14:35:53Z</time>
      </trkpt>
      <trkpt lat="44.7151" lon="-0.31625">
        <ele>97</ele>
        <time>2013-04-21T14:36:00Z</time>
      </trkpt>
      <trkpt lat="44.71533" lon="-0.31641">
        <ele>97</ele>
        <time>2013-04-21T14:36:07Z</time>
      </trkpt>
      <trkpt lat="44.71549" lon="-0.31652">
        <ele>98</ele>
        <time>2013-04-21T14:36:12Z</time>
      </trkpt>
      <trkpt lat="44.71566" lon="-0.31667">
        <ele>98</ele>
        <time>2013-04-21T14:36:18Z</time>
      </trkpt>
      <trkpt lat="44.7158" lon="-0.31686">
        <ele>97</ele>
        <time>2013-04-21T14:36:25Z</time>
      </trkpt>
      <trkpt lat="44.71596" lon="-0.31704">
        <ele>97</ele>
        <time>2013-04-21T14:36:32Z</time>
      </trkpt>
      <trkpt lat="44.71606" lon="-0.31717">
        <ele>97</ele>
        <time>2013-04-21T14:36:37Z</time>
      </trkpt>
      <trkpt lat="44.71622" lon="-0.31737">
        <ele>96</ele>
        <time>2013-04-21T14:36:44Z</time>
      </trkpt>
      <trkpt lat="44.71637" lon="-0.3175">
        <ele>96</ele>
        <time>2013-04-21T14:36:50Z</time>
      </trkpt>
      <trkpt lat="44.71647" lon="-0.31759">
        <ele>95</ele>
        <time>2013-04-21T14:36:54Z</time>
      </trkpt>
      <trkpt lat="44.7167" lon="-0.31773">
        <ele>92</ele>
        <time>2013-04-21T14:36:59Z</time>
      </trkpt>
      <trkpt lat="44.7169" lon="-0.31785">
        <ele>89</ele>
        <time>2013-04-21T14:37:04Z</time>
      </trkpt>
      <trkpt lat="44.7171" lon="-0.31799">
        <ele>87</ele>
        <time>2013-04-21T14:37:09Z</time>
      </trkpt>
      <trkpt lat="44.71723" lon="-0.31809">
        <ele>84</ele>
        <time>2013-04-21T14:37:12Z</time>
      </trkpt>
      <trkpt lat="44.71727" lon="-0.31813">
        <ele>84</ele>
        <time>2013-04-21T14:37:13Z</time>
      </trkpt>
      <trkpt lat="44.71731" lon="-0.31817">
        <ele>83</ele>
        <time>2013-04-21T14:37:14Z</time>
      </trkpt>
      <trkpt lat="44.71741" lon="-0.31828">
        <ele>81</ele>
        <time>2013-04-21T14:37:18Z</time>
      </trkpt>
      <trkpt lat="44.71751" lon="-0.31846">
        <ele>80</ele>
        <time>2013-04-21T14:37:24Z</time>
      </trkpt>
      <trkpt lat="44.71761" lon="-0.31875">
        <ele>78</ele>
        <time>2013-04-21T14:37:31Z</time>
      </trkpt>
      <trkpt lat="44.7177" lon="-0.31902">
        <ele>76</ele>
        <time>2013-04-21T14:37:37Z</time>
      </trkpt>
      <trkpt lat="44.71779" lon="-0.31927">
        <ele>74</ele>
        <time>2013-04-21T14:37:43Z</time>
      </trkpt>
      <trkpt lat="44.71788" lon="-0.3195">
        <ele>73</ele>
        <time>2013-04-21T14:37:48Z</time>
      </trkpt>
      <trkpt lat="44.71799" lon="-0.31978">
        <ele>71</ele>
        <time>2013-04-21T14:37:53Z</time>
      </trkpt>
      <trkpt lat="44.71801" lon="-0.31983">
        <ele>71</ele>
        <time>2013-04-21T14:37:54Z</time>
      </trkpt>
      <trkpt lat="44.71804" lon="-0.31987">
        <ele>71</ele>
        <time>2013-04-21T14:37:55Z</time>
      </trkpt>
      <trkpt lat="44.71807" lon="-0.31991">
        <ele>71</ele>
        <time>2013-04-21T14:37:56Z</time>
      </trkpt>
      <trkpt lat="44.7181" lon="-0.31994">
        <ele>71</ele>
        <time>2013-04-21T14:37:57Z</time>
      </trkpt>
      <trkpt lat="44.71812" lon="-0.31997">
        <ele>71</ele>
        <time>2013-04-21T14:37:58Z</time>
      </trkpt>
      <trkpt lat="44.71814" lon="-0.31999">
        <ele>71</ele>
        <time>2013-04-21T14:37:59Z</time>
      </trkpt>
      <trkpt lat="44.71816" lon="-0.32002">
        <ele>70</ele>
        <time>2013-04-21T14:38:00Z</time>
      </trkpt>
      <trkpt lat="44.71825" lon="-0.32017">
        <ele>69</ele>
        <time>2013-04-21T14:38:06Z</time>
      </trkpt>
      <trkpt lat="44.71835" lon="-0.32031">
        <ele>68</ele>
        <time>2013-04-21T14:38:13Z</time>
      </trkpt>
      <trkpt lat="44.71839" lon="-0.32035">
        <ele>68</ele>
        <time>2013-04-21T14:38:15Z</time>
      </trkpt>
      <trkpt lat="44.7184" lon="-0.32038">
        <ele>68</ele>
        <time>2013-04-21T14:38:16Z</time>
      </trkpt>
      <trkpt lat="44.71844" lon="-0.32058">
        <ele>67</ele>
        <time>2013-04-21T14:38:22Z</time>
      </trkpt>
      <trkpt lat="44.71847" lon="-0.32072">
        <ele>65</ele>
        <time>2013-04-21T14:38:28Z</time>
      </trkpt>
      <trkpt lat="44.71855" lon="-0.32095">
        <ele>63</ele>
        <time>2013-04-21T14:38:36Z</time>
      </trkpt>
      <trkpt lat="44.71862" lon="-0.32106">
        <ele>61</ele>
        <time>2013-04-21T14:38:39Z</time>
      </trkpt>
      <trkpt lat="44.71869" lon="-0.32121">
        <ele>60</ele>
        <time>2013-04-21T14:38:42Z</time>
      </trkpt>
      <trkpt lat="44.7188" lon="-0.32148">
        <ele>57</ele>
        <time>2013-04-21T14:38:47Z</time>
      </trkpt>
      <trkpt lat="44.71883" lon="-0.32153">
        <ele>57</ele>
        <time>2013-04-21T14:38:48Z</time>
      </trkpt>
      <trkpt lat="44.71884" lon="-0.32157">
        <ele>56</ele>
        <time>2013-04-21T14:38:49Z</time>
      </trkpt>
      <trkpt lat="44.71885" lon="-0.32163">
        <ele>56</ele>
        <time>2013-04-21T14:38:50Z</time>
      </trkpt>
      <trkpt lat="44.71887" lon="-0.32167">
        <ele>56</ele>
        <time>2013-04-21T14:38:51Z</time>
      </trkpt>
      <trkpt lat="44.71893" lon="-0.32189">
        <ele>55</ele>
        <time>2013-04-21T14:38:55Z</time>
      </trkpt>
      <trkpt lat="44.71895" lon="-0.32195">
        <ele>54</ele>
        <time>2013-04-21T14:38:56Z</time>
      </trkpt>
      <trkpt lat="44.71907" lon="-0.32226">
        <ele>52</ele>
        <time>2013-04-21T14:39:01Z</time>
      </trkpt>
      <trkpt lat="44.7191" lon="-0.32231">
        <ele>52</ele>
        <time>2013-04-21T14:39:02Z</time>
      </trkpt>
      <trkpt lat="44.71921" lon="-0.32252">
        <ele>51</ele>
        <time>2013-04-21T14:39:07Z</time>
      </trkpt>
      <trkpt lat="44.71921" lon="-0.32258">
        <ele>51</ele>
        <time>2013-04-21T14:39:12Z</time>
      </trkpt>
      <trkpt lat="44.71921" lon="-0.32263">
        <ele>51</ele>
        <time>2013-04-21T14:39:18Z</time>
      </trkpt>
      <trkpt lat="44.7192" lon="-0.32265">
        <ele>52</ele>
        <time>2013-04-21T14:39:32Z</time>
      </trkpt>
      <trkpt lat="44.7192" lon="-0.32266">
        <ele>52</ele>
        <time>2013-04-21T14:39:49Z</time>
      </trkpt>
      <trkpt lat="44.71919" lon="-0.32265">
        <ele>52</ele>
        <time>2013-04-21T14:40:01Z</time>
      </trkpt>
      <trkpt lat="44.7192" lon="-0.32265">
        <ele>52</ele>
        <time>2013-04-21T14:40:08Z</time>
      </trkpt>
      <trkpt lat="44.7192" lon="-0.32265">
        <ele>52</ele>
        <time>2013-04-21T14:40:16Z</time>
      </trkpt>
      <trkpt lat="44.71919" lon="-0.32266">
        <ele>52</ele>
        <time>2013-04-21T14:40:28Z</time>
      </trkpt>
      <trkpt lat="44.7192" lon="-0.32265">
        <ele>52</ele>
        <time>2013-04-21T14:40:39Z</time>
      </trkpt>
      <trkpt lat="44.7192" lon="-0.32265">
        <ele>52</ele>
        <time>2013-04-21T14:40:54Z</time>
      </trkpt>
      <trkpt lat="44.7192" lon="-0.32265">
        <ele>52</ele>
        <time>2013-04-21T14:41:11Z</time>
      </trkpt>
      <trkpt lat="44.71921" lon="-0.32267">
        <ele>52</ele>
        <time>2013-04-21T14:41:23Z</time>
      </trkpt>
      <trkpt lat="44.71922" lon="-0.32268">
        <ele>52</ele>
        <time>2013-04-21T14:41:24Z</time>
      </trkpt>
      <trkpt lat="44.71923" lon="-0.32269">
        <ele>52</ele>
        <time>2013-04-21T14:41:25Z</time>
      </trkpt>
      <trkpt lat="44.71924" lon="-0.32268">
        <ele>51</ele>
        <time>2013-04-21T14:41:26Z</time>
      </trkpt>
      <trkpt lat="44.71925" lon="-0.32268">
        <ele>51</ele>
        <time>2013-04-21T14:41:27Z</time>
      </trkpt>
      <trkpt lat="44.71927" lon="-0.32268">
        <ele>51</ele>
        <time>2013-04-21T14:41:28Z</time>
      </trkpt>
      <trkpt lat="44.7193" lon="-0.32268">
        <ele>51</ele>
        <time>2013-04-21T14:41:29Z</time>
      </trkpt>
      <trkpt lat="44.71933" lon="-0.32269">
        <ele>51</ele>
        <time>2013-04-21T14:41:30Z</time>
      </trkpt>
      <trkpt lat="44.71954" lon="-0.32271">
        <ele>50</ele>
        <time>2013-04-21T14:41:36Z</time>
      </trkpt>
      <trkpt lat="44.71982" lon="-0.32268">
        <ele>48</ele>
        <time>2013-04-21T14:41:43Z</time>
      </trkpt>
      <trkpt lat="44.71999" lon="-0.32259">
        <ele>48</ele>
        <time>2013-04-21T14:41:48Z</time>
      </trkpt>
      <trkpt lat="44.72028" lon="-0.32233">
        <ele>48</ele>
        <time>2013-04-21T14:41:57Z</time>
      </trkpt>
      <trkpt lat="44.72048" lon="-0.32216">
        <ele>50</ele>
        <time>2013-04-21T14:42:04Z</time>
      </trkpt>
      <trkpt lat="44.72067" lon="-0.32205">
        <ele>51</ele>
        <time>2013-04-21T14:42:12Z</time>
      </trkpt>
      <trkpt lat="44.7208" lon="-0.32199">
        <ele>52</ele>
        <time>2013-04-21T14:42:19Z</time>
      </trkpt>
      <trkpt lat="44.72096" lon="-0.32191">
        <ele>54</ele>
        <time>2013-04-21T14:42:28Z</time>
      </trkpt>
      <trkpt lat="44.72115" lon="-0.3218">
        <ele>55</ele>
        <time>2013-04-21T14:42:38Z</time>
      </trkpt>
      <trkpt lat="44.72129" lon="-0.32175">
        <ele>57</ele>
        <time>2013-04-21T14:42:46Z</time>
      </trkpt>
      <trkpt lat="44.72132" lon="-0.32174">
        <ele>57</ele>
        <time>2013-04-21T14:42:48Z</time>
      </trkpt>
      <trkpt lat="44.72134" lon="-0.32173">
        <ele>57</ele>
        <time>2013-04-21T14:42:49Z</time>
      </trkpt>
      <trkpt lat="44.72136" lon="-0.32173">
        <ele>57</ele>
        <time>2013-04-21T14:42:50Z</time>
      </trkpt>
      <trkpt lat="44.72138" lon="-0.32172">
        <ele>57</ele>
        <time>2013-04-21T14:42:51Z</time>
      </trkpt>
      <trkpt lat="44.7214" lon="-0.32172">
        <ele>57</ele>
        <time>2013-04-21T14:42:52Z</time>
      </trkpt>
      <trkpt lat="44.72154" lon="-0.32168">
        <ele>58</ele>
        <time>2013-04-21T14:43:00Z</time>
      </trkpt>
      <trkpt lat="44.7217" lon="-0.32163">
        <ele>59</ele>
        <time>2013-04-21T14:43:09Z</time>
      </trkpt>
      <trkpt lat="44.72184" lon="-0.32155">
        <ele>60</ele>
        <time>2013-04-21T14:43:18Z</time>
      </trkpt>
      <trkpt lat="44.7219" lon="-0.32153">
        <ele>60</ele>
        <time>2013-04-21T14:43:22Z</time>
      </trkpt>
      <trkpt lat="44.72192" lon="-0.32152">
        <ele>60</ele>
        <time>2013-04-21T14:43:23Z</time>
      </trkpt>
      <trkpt lat="44.72203" lon="-0.32142">
        <ele>61</ele>
        <time>2013-04-21T14:43:30Z</time>
      </trkpt>
      <trkpt lat="44.72213" lon="-0.32138">
        <ele>62</ele>
        <time>2013-04-21T14:43:36Z</time>
      </trkpt>
      <trkpt lat="44.72227" lon="-0.3213">
        <ele>63</ele>
        <time>2013-04-21T14:43:44Z</time>
      </trkpt>
      <trkpt lat="44.72237" lon="-0.32123">
        <ele>64</ele>
        <time>2013-04-21T14:43:50Z</time>
      </trkpt>
      <trkpt lat="44.72251" lon="-0.32113">
        <ele>65</ele>
        <time>2013-04-21T14:43:57Z</time>
      </trkpt>
      <trkpt lat="44.72252" lon="-0.32113">
        <ele>65</ele>
        <time>2013-04-21T14:43:58Z</time>
      </trkpt>
      <trkpt lat="44.72254" lon="-0.32112">
        <ele>65</ele>
        <time>2013-04-21T14:43:59Z</time>
      </trkpt>
      <trkpt lat="44.72266" lon="-0.32108">
        <ele>67</ele>
        <time>2013-04-21T14:44:07Z</time>
      </trkpt>
      <trkpt lat="44.72281" lon="-0.32105">
        <ele>69</ele>
        <time>2013-04-21T14:44:15Z</time>
      </trkpt>
      <trkpt lat="44.72293" lon="-0.32103">
        <ele>71</ele>
        <time>2013-04-21T14:44:23Z</time>
      </trkpt>
      <trkpt lat="44.72304" lon="-0.32101">
        <ele>73</ele>
        <time>2013-04-21T14:44:32Z</time>
      </trkpt>
      <trkpt lat="44.72306" lon="-0.321">
        <ele>73</ele>
        <time>2013-04-21T14:44:34Z</time>
      </trkpt>
      <trkpt lat="44.7231" lon="-0.32099">
        <ele>73</ele>
        <time>2013-04-21T14:44:38Z</time>
      </trkpt>
      <trkpt lat="44.72312" lon="-0.32099">
        <ele>74</ele>
        <time>2013-04-21T14:44:39Z</time>
      </trkpt>
      <trkpt lat="44.72313" lon="-0.32099">
        <ele>74</ele>
        <time>2013-04-21T14:44:40Z</time>
      </trkpt>
      <trkpt lat="44.72314" lon="-0.32098">
        <ele>74</ele>
        <time>2013-04-21T14:44:41Z</time>
      </trkpt>
      <trkpt lat="44.72315" lon="-0.32097">
        <ele>74</ele>
        <time>2013-04-21T14:44:42Z</time>
      </trkpt>
      <trkpt lat="44.72316" lon="-0.32097">
        <ele>74</ele>
        <time>2013-04-21T14:44:43Z</time>
      </trkpt>
      <trkpt lat="44.72317" lon="-0.32097">
        <ele>74</ele>
        <time>2013-04-21T14:44:44Z</time>
      </trkpt>
      <trkpt lat="44.72322" lon="-0.32095">
        <ele>75</ele>
        <time>2013-04-21T14:44:51Z</time>
      </trkpt>
      <trkpt lat="44.72323" lon="-0.32094">
        <ele>75</ele>
        <time>2013-04-21T14:44:57Z</time>
      </trkpt>
      <trkpt lat="44.72327" lon="-0.32093">
        <ele>76</ele>
        <time>2013-04-21T14:45:05Z</time>
      </trkpt>
      <trkpt lat="44.72331" lon="-0.32091">
        <ele>76</ele>
        <time>2013-04-21T14:45:11Z</time>
      </trkpt>
      <trkpt lat="44.72333" lon="-0.3209">
        <ele>77</ele>
        <time>2013-04-21T14:45:16Z</time>
      </trkpt>
      <trkpt lat="44.72335" lon="-0.32089">
        <ele>77</ele>
        <time>2013-04-21T14:45:22Z</time>
      </trkpt>
      <trkpt lat="44.72337" lon="-0.32088">
        <ele>77</ele>
        <time>2013-04-21T14:45:29Z</time>
      </trkpt>
      <trkpt lat="44.72344" lon="-0.32086">
        <ele>78</ele>
        <time>2013-04-21T14:45:37Z</time>
      </trkpt>
      <trkpt lat="44.72352" lon="-0.32083">
        <ele>79</ele>
        <time>2013-04-21T14:45:45Z</time>
      </trkpt>
      <trkpt lat="44.72354" lon="-0.32082">
        <ele>79</ele>
        <time>2013-04-21T14:45:51Z</time>
      </trkpt>
      <trkpt lat="44.72356" lon="-0.32081">
        <ele>79</ele>
        <time>2013-04-21T14:45:56Z</time>
      </trkpt>
      <trkpt lat="44.72366" lon="-0.32077">
        <ele>80</ele>
        <time>2013-04-21T14:46:04Z</time>
      </trkpt>
      <trkpt lat="44.72375" lon="-0.32074">
        <ele>81</ele>
        <time>2013-04-21T14:46:10Z</time>
      </trkpt>
      <trkpt lat="44.72376" lon="-0.32073">
        <ele>82</ele>
        <time>2013-04-21T14:46:11Z</time>
      </trkpt>
      <trkpt lat="44.72378" lon="-0.32072">
        <ele>82</ele>
        <time>2013-04-21T14:46:12Z</time>
      </trkpt>
      <trkpt lat="44.72379" lon="-0.32072">
        <ele>82</ele>
        <time>2013-04-21T14:46:13Z</time>
      </trkpt>
      <trkpt lat="44.7238" lon="-0.32071">
        <ele>82</ele>
        <time>2013-04-21T14:46:14Z</time>
      </trkpt>
      <trkpt lat="44.72382" lon="-0.32071">
        <ele>82</ele>
        <time>2013-04-21T14:46:15Z</time>
      </trkpt>
      <trkpt lat="44.72383" lon="-0.3207">
        <ele>82</ele>
        <time>2013-04-21T14:46:16Z</time>
      </trkpt>
      <trkpt lat="44.72384" lon="-0.3207">
        <ele>82</ele>
        <time>2013-04-21T14:46:17Z</time>
      </trkpt>
      <trkpt lat="44.72386" lon="-0.32069">
        <ele>83</ele>
        <time>2013-04-21T14:46:18Z</time>
      </trkpt>
      <trkpt lat="44.72388" lon="-0.32069">
        <ele>83</ele>
        <time>2013-04-21T14:46:19Z</time>
      </trkpt>
      <trkpt lat="44.72389" lon="-0.32068">
        <ele>83</ele>
        <time>2013-04-21T14:46:20Z</time>
      </trkpt>
      <trkpt lat="44.72391" lon="-0.32067">
        <ele>83</ele>
        <time>2013-04-21T14:46:21Z</time>
      </trkpt>
      <trkpt lat="44.72405" lon="-0.32061">
        <ele>84</ele>
        <time>2013-04-21T14:46:29Z</time>
      </trkpt>
      <trkpt lat="44.72422" lon="-0.32054">
        <ele>85</ele>
        <time>2013-04-21T14:46:38Z</time>
      </trkpt>
      <trkpt lat="44.72443" lon="-0.32047">
        <ele>87</ele>
        <time>2013-04-21T14:46:48Z</time>
      </trkpt>
      <trkpt lat="44.72458" lon="-0.32042">
        <ele>87</ele>
        <time>2013-04-21T14:46:56Z</time>
      </trkpt>
      <trkpt lat="44.72462" lon="-0.32041">
        <ele>87</ele>
        <time>2013-04-21T14:47:02Z</time>
      </trkpt>
      <trkpt lat="44.72462" lon="-0.32041">
        <ele>87</ele>
        <time>2013-04-21T14:47:10Z</time>
      </trkpt>
      <trkpt lat="44.72462" lon="-0.32041">
        <ele>87</ele>
        <time>2013-04-21T14:47:26Z</time>
      </trkpt>
      <trkpt lat="44.72463" lon="-0.32041">
        <ele>87</ele>
        <time>2013-04-21T14:47:35Z</time>
      </trkpt>
      <trkpt lat="44.72463" lon="-0.32041">
        <ele>87</ele>
        <time>2013-04-21T14:47:49Z</time>
      </trkpt>
      <trkpt lat="44.72464" lon="-0.32041">
        <ele>87</ele>
        <time>2013-04-21T14:48:08Z</time>
      </trkpt>
      <trkpt lat="44.72464" lon="-0.32041">
        <ele>87</ele>
        <time>2013-04-21T14:48:25Z</time>
      </trkpt>
      <trkpt lat="44.72465" lon="-0.32041">
        <ele>87</ele>
        <time>2013-04-21T14:48:37Z</time>
      </trkpt>
      <trkpt lat="44.72471" lon="-0.32038">
        <ele>87</ele>
        <time>2013-04-21T14:48:43Z</time>
      </trkpt>
      <trkpt lat="44.72488" lon="-0.32034">
        <ele>88</ele>
        <time>2013-04-21T14:48:51Z</time>
      </trkpt>
      <trkpt lat="44.72501" lon="-0.32031">
        <ele>88</ele>
        <time>2013-04-21T14:48:58Z</time>
      </trkpt>
      <trkpt lat="44.7251" lon="-0.3203">
        <ele>88</ele>
        <time>2013-04-21T14:49:02Z</time>
      </trkpt>
      <trkpt lat="44.72512" lon="-0.32031">
        <ele>88</ele>
        <time>2013-04-21T14:49:03Z</time>
      </trkpt>
      <trkpt lat="44.72515" lon="-0.32031">
        <ele>88</ele>
        <time>2013-04-21T14:49:04Z</time>
      </trkpt>
      <trkpt lat="44.72517" lon="-0.3203">
        <ele>88</ele>
        <time>2013-04-21T14:49:05Z</time>
      </trkpt>
      <trkpt lat="44.72519" lon="-0.32029">
        <ele>88</ele>
        <time>2013-04-21T14:49:06Z</time>
      </trkpt>
      <trkpt lat="44.72522" lon="-0.32028">
        <ele>89</ele>
        <time>2013-04-21T14:49:07Z</time>
      </trkpt>
      <trkpt lat="44.72524" lon="-0.32027">
        <ele>89</ele>
        <time>2013-04-21T14:49:08Z</time>
      </trkpt>
      <trkpt lat="44.72527" lon="-0.32027">
        <ele>89</ele>
        <time>2013-04-21T14:49:09Z</time>
      </trkpt>
      <trkpt lat="44.72539" lon="-0.32023">
        <ele>89</ele>
        <time>2013-04-21T14:49:16Z</time>
      </trkpt>
      <trkpt lat="44.72555" lon="-0.32016">
        <ele>90</ele>
        <time>2013-04-21T14:49:24Z</time>
      </trkpt>
      <trkpt lat="44.72568" lon="-0.32007">
        <ele>91</ele>
        <time>2013-04-21T14:49:31Z</time>
      </trkpt>
      <trkpt lat="44.72585" lon="-0.32001">
        <ele>91</ele>
        <time>2013-04-21T14:49:38Z</time>
      </trkpt>
      <trkpt lat="44.72609" lon="-0.31992">
        <ele>91</ele>
        <time>2013-04-21T14:49:48Z</time>
      </trkpt>
      <trkpt lat="44.72623" lon="-0.31986">
        <ele>91</ele>
        <time>2013-04-21T14:49:54Z</time>
      </trkpt>
      <trkpt lat="44.7264" lon="-0.31978">
        <ele>91</ele>
        <time>2013-04-21T14:50:01Z</time>
      </trkpt>
      <trkpt lat="44.72655" lon="-0.31969">
        <ele>91</ele>
        <time>2013-04-21T14:50:09Z</time>
      </trkpt>
      <trkpt lat="44.72662" lon="-0.31965">
        <ele>91</ele>
        <time>2013-04-21T14:50:13Z</time>
      </trkpt>
      <trkpt lat="44.72664" lon="-0.31965">
        <ele>90</ele>
        <time>2013-04-21T14:50:14Z</time>
      </trkpt>
      <trkpt lat="44.72667" lon="-0.31964">
        <ele>90</ele>
        <time>2013-04-21T14:50:16Z</time>
      </trkpt>
      <trkpt lat="44.72668" lon="-0.31963">
        <ele>90</ele>
        <time>2013-04-21T14:50:17Z</time>
      </trkpt>
      <trkpt lat="44.72669" lon="-0.31962">
        <ele>90</ele>
        <time>2013-04-21T14:50:18Z</time>
      </trkpt>
      <trkpt lat="44.72675" lon="-0.3196">
        <ele>90</ele>
        <time>2013-04-21T14:50:25Z</time>
      </trkpt>
      <trkpt lat="44.72677" lon="-0.3196">
        <ele>90</ele>
        <time>2013-04-21T14:50:26Z</time>
      </trkpt>
      <trkpt lat="44.72682" lon="-0.3196">
        <ele>90</ele>
        <time>2013-04-21T14:50:29Z</time>
      </trkpt>
      <trkpt lat="44.72684" lon="-0.31959">
        <ele>90</ele>
        <time>2013-04-21T14:50:30Z</time>
      </trkpt>
      <trkpt lat="44.72686" lon="-0.31959">
        <ele>90</ele>
        <time>2013-04-21T14:50:31Z</time>
      </trkpt>
      <trkpt lat="44.72688" lon="-0.31959">
        <ele>90</ele>
        <time>2013-04-21T14:50:32Z</time>
      </trkpt>
      <trkpt lat="44.72691" lon="-0.31959">
        <ele>90</ele>
        <time>2013-04-21T14:50:33Z</time>
      </trkpt>
      <trkpt lat="44.72715" lon="-0.31963">
        <ele>89</ele>
        <time>2013-04-21T14:50:40Z</time>
      </trkpt>
      <trkpt lat="44.7274" lon="-0.31968">
        <ele>89</ele>
        <time>2013-04-21T14:50:47Z</time>
      </trkpt>
      <trkpt lat="44.7276" lon="-0.31972">
        <ele>90</ele>
        <time>2013-04-21T14:50:53Z</time>
      </trkpt>
      <trkpt lat="44.72778" lon="-0.31975">
        <ele>90</ele>
        <time>2013-04-21T14:50:59Z</time>
      </trkpt>
      <trkpt lat="44.72802" lon="-0.3198">
        <ele>90</ele>
        <time>2013-04-21T14:51:08Z</time>
      </trkpt>
      <trkpt lat="44.7281" lon="-0.31979">
        <ele>90</ele>
        <time>2013-04-21T14:51:14Z</time>
      </trkpt>
      <trkpt lat="44.72818" lon="-0.31977">
        <ele>90</ele>
        <time>2013-04-21T14:51:20Z</time>
      </trkpt>
      <trkpt lat="44.72819" lon="-0.31976">
        <ele>90</ele>
        <time>2013-04-21T14:51:21Z</time>
      </trkpt>
      <trkpt lat="44.72827" lon="-0.31968">
        <ele>90</ele>
        <time>2013-04-21T14:51:27Z</time>
      </trkpt>
      <trkpt lat="44.72828" lon="-0.31966">
        <ele>90</ele>
        <time>2013-04-21T14:51:28Z</time>
      </trkpt>
      <trkpt lat="44.7283" lon="-0.31951">
        <ele>91</ele>
        <time>2013-04-21T14:51:34Z</time>
      </trkpt>
      <trkpt lat="44.7283" lon="-0.31935">
        <ele>92</ele>
        <time>2013-04-21T14:51:41Z</time>
      </trkpt>
      <trkpt lat="44.72832" lon="-0.31911">
        <ele>94</ele>
        <time>2013-04-21T14:51:50Z</time>
      </trkpt>
      <trkpt lat="44.72832" lon="-0.31893">
        <ele>95</ele>
        <time>2013-04-21T14:51:59Z</time>
      </trkpt>
      <trkpt lat="44.72831" lon="-0.31884">
        <ele>95</ele>
        <time>2013-04-21T14:52:03Z</time>
      </trkpt>
      <trkpt lat="44.72827" lon="-0.31868">
        <ele>96</ele>
        <time>2013-04-21T14:52:12Z</time>
      </trkpt>
      <trkpt lat="44.72826" lon="-0.31864">
        <ele>97</ele>
        <time>2013-04-21T14:52:14Z</time>
      </trkpt>
      <trkpt lat="44.72823" lon="-0.3186">
        <ele>97</ele>
        <time>2013-04-21T14:52:18Z</time>
      </trkpt>
      <trkpt lat="44.72817" lon="-0.31845">
        <ele>98</ele>
        <time>2013-04-21T14:52:28Z</time>
      </trkpt>
      <trkpt lat="44.72816" lon="-0.31842">
        <ele>98</ele>
        <time>2013-04-21T14:52:30Z</time>
      </trkpt>
      <trkpt lat="44.72812" lon="-0.31831">
        <ele>99</ele>
        <time>2013-04-21T14:52:37Z</time>
      </trkpt>
      <trkpt lat="44.72811" lon="-0.31825">
        <ele>99</ele>
        <time>2013-04-21T14:52:41Z</time>
      </trkpt>
      <trkpt lat="44.72806" lon="-0.31809">
        <ele>100</ele>
        <time>2013-04-21T14:52:49Z</time>
      </trkpt>
      <trkpt lat="44.72801" lon="-0.31796">
        <ele>100</ele>
        <time>2013-04-21T14:52:57Z</time>
      </trkpt>
      <trkpt lat="44.72799" lon="-0.31779">
        <ele>100</ele>
        <time>2013-04-21T14:53:05Z</time>
      </trkpt>
      <trkpt lat="44.72797" lon="-0.31761">
        <ele>100</ele>
        <time>2013-04-21T14:53:12Z</time>
      </trkpt>
      <trkpt lat="44.72795" lon="-0.31739">
        <ele>100</ele>
        <time>2013-04-21T14:53:20Z</time>
      </trkpt>
      <trkpt lat="44.72794" lon="-0.31715">
        <ele>100</ele>
        <time>2013-04-21T14:53:28Z</time>
      </trkpt>
      <trkpt lat="44.72794" lon="-0.31685">
        <ele>100</ele>
        <time>2013-04-21T14:53:38Z</time>
      </trkpt>
      <trkpt lat="44.72793" lon="-0.31658">
        <ele>100</ele>
        <time>2013-04-21T14:53:46Z</time>
      </trkpt>
      <trkpt lat="44.72792" lon="-0.31636">
        <ele>100</ele>
        <time>2013-04-21T14:53:55Z</time>
      </trkpt>
      <trkpt lat="44.72792" lon="-0.31636">
        <ele>100</ele>
        <time>2013-04-21T14:54:02Z</time>
      </trkpt>
      <trkpt lat="44.72792" lon="-0.31635">
        <ele>100</ele>
        <time>2013-04-21T14:54:13Z</time>
      </trkpt>
      <trkpt lat="44.72792" lon="-0.31634">
        <ele>100</ele>
        <time>2013-04-21T14:54:22Z</time>
      </trkpt>
      <trkpt lat="44.72792" lon="-0.31634">
        <ele>100</ele>
        <time>2013-04-21T14:54:35Z</time>
      </trkpt>
      <trkpt lat="44.72792" lon="-0.31634">
        <ele>100</ele>
        <time>2013-04-21T14:54:49Z</time>
      </trkpt>
      <trkpt lat="44.72792" lon="-0.31634">
        <ele>100</ele>
        <time>2013-04-21T14:55:02Z</time>
      </trkpt>
      <trkpt lat="44.72792" lon="-0.31633">
        <ele>100</ele>
        <time>2013-04-21T14:55:13Z</time>
      </trkpt>
      <trkpt lat="44.72792" lon="-0.3163">
        <ele>100</ele>
        <time>2013-04-21T14:55:24Z</time>
      </trkpt>
      <trkpt lat="44.72791" lon="-0.31628">
        <ele>100</ele>
        <time>2013-04-21T14:55:25Z</time>
      </trkpt>
      <trkpt lat="44.72781" lon="-0.31616">
        <ele>101</ele>
        <time>2013-04-21T14:55:32Z</time>
      </trkpt>
      <trkpt lat="44.72775" lon="-0.31606">
        <ele>102</ele>
        <time>2013-04-21T14:55:36Z</time>
      </trkpt>
      <trkpt lat="44.7277" lon="-0.31583">
        <ele>102</ele>
        <time>2013-04-21T14:55:43Z</time>
      </trkpt>
      <trkpt lat="44.7277" lon="-0.31581">
        <ele>102</ele>
        <time>2013-04-21T14:55:44Z</time>
      </trkpt>
      <trkpt lat="44.7277" lon="-0.31554">
        <ele>102</ele>
        <time>2013-04-21T14:55:52Z</time>
      </trkpt>
      <trkpt lat="44.72768" lon="-0.3155">
        <ele>102</ele>
        <time>2013-04-21T14:55:53Z</time>
      </trkpt>
      <trkpt lat="44.72749" lon="-0.31535">
        <ele>102</ele>
        <time>2013-04-21T14:56:00Z</time>
      </trkpt>
      <trkpt lat="44.72726" lon="-0.31519">
        <ele>102</ele>
        <time>2013-04-21T14:56:07Z</time>
      </trkpt>
      <trkpt lat="44.72709" lon="-0.31507">
        <ele>102</ele>
        <time>2013-04-21T14:56:13Z</time>
      </trkpt>
      <trkpt lat="44.72692" lon="-0.31496">
        <ele>101</ele>
        <time>2013-04-21T14:56:17Z</time>
      </trkpt>
      <trkpt lat="44.72684" lon="-0.3149">
        <ele>101</ele>
        <time>2013-04-21T14:56:19Z</time>
      </trkpt>
      <trkpt lat="44.72659" lon="-0.31476">
        <ele>98</ele>
        <time>2013-04-21T14:56:25Z</time>
      </trkpt>
      <trkpt lat="44.72644" lon="-0.31462">
        <ele>97</ele>
        <time>2013-04-21T14:56:32Z</time>
      </trkpt>
      <trkpt lat="44.72642" lon="-0.31456">
        <ele>97</ele>
        <time>2013-04-21T14:56:34Z</time>
      </trkpt>
      <trkpt lat="44.72642" lon="-0.31452">
        <ele>97</ele>
        <time>2013-04-21T14:56:35Z</time>
      </trkpt>
      <trkpt lat="44.72644" lon="-0.31448">
        <ele>97</ele>
        <time>2013-04-21T14:56:36Z</time>
      </trkpt>
      <trkpt lat="44.72646" lon="-0.31445">
        <ele>97</ele>
        <time>2013-04-21T14:56:37Z</time>
      </trkpt>
      <trkpt lat="44.72648" lon="-0.31441">
        <ele>97</ele>
        <time>2013-04-21T14:56:38Z</time>
      </trkpt>
      <trkpt lat="44.72649" lon="-0.31437">
        <ele>97</ele>
        <time>2013-04-21T14:56:39Z</time>
      </trkpt>
      <trkpt lat="44.72651" lon="-0.31433">
        <ele>97</ele>
        <time>2013-04-21T14:56:40Z</time>
      </trkpt>
      <trkpt lat="44.72653" lon="-0.3143">
        <ele>98</ele>
        <time>2013-04-21T14:56:41Z</time>
      </trkpt>
      <trkpt lat="44.72671" lon="-0.31395">
        <ele>100</ele>
        <time>2013-04-21T14:56:50Z</time>
      </trkpt>
      <trkpt lat="44.72691" lon="-0.31356">
        <ele>101</ele>
        <time>2013-04-21T14:57:00Z</time>
      </trkpt>
      <trkpt lat="44.72708" lon="-0.31323">
        <ele>101</ele>
        <time>2013-04-21T14:57:09Z</time>
      </trkpt>
      <trkpt lat="44.7273" lon="-0.31281">
        <ele>102</ele>
        <time>2013-04-21T14:57:20Z</time>
      </trkpt>
      <trkpt lat="44.72747" lon="-0.31243">
        <ele>102</ele>
        <time>2013-04-21T14:57:30Z</time>
      </trkpt>
      <trkpt lat="44.7276" lon="-0.31201">
        <ele>102</ele>
        <time>2013-04-21T14:57:40Z</time>
      </trkpt>
      <trkpt lat="44.72765" lon="-0.31186">
        <ele>102</ele>
        <time>2013-04-21T14:57:44Z</time>
      </trkpt>
      <trkpt lat="44.72767" lon="-0.31185">
        <ele>102</ele>
        <time>2013-04-21T14:57:45Z</time>
      </trkpt>
      <trkpt lat="44.72778" lon="-0.31187">
        <ele>103</ele>
        <time>2013-04-21T14:57:49Z</time>
      </trkpt>
      <trkpt lat="44.72806" lon="-0.312">
        <ele>103</ele>
        <time>2013-04-21T14:57:58Z</time>
      </trkpt>
      <trkpt lat="44.72838" lon="-0.31216">
        <ele>103</ele>
        <time>2013-04-21T14:58:08Z</time>
      </trkpt>
      <trkpt lat="44.72856" lon="-0.31222">
        <ele>102</ele>
        <time>2013-04-21T14:58:14Z</time>
      </trkpt>
      <trkpt lat="44.72884" lon="-0.31221">
        <ele>102</ele>
        <time>2013-04-21T14:58:22Z</time>
      </trkpt>
      <trkpt lat="44.72909" lon="-0.31218">
        <ele>103</ele>
        <time>2013-04-21T14:58:29Z</time>
      </trkpt>
      <trkpt lat="44.72942" lon="-0.31217">
        <ele>104</ele>
        <time>2013-04-21T14:58:38Z</time>
      </trkpt>
      <trkpt lat="44.72964" lon="-0.31214">
        <ele>105</ele>
        <time>2013-04-21T14:58:45Z</time>
      </trkpt>
      <trkpt lat="44.72981" lon="-0.31211">
        <ele>106</ele>
        <time>2013-04-21T14:58:51Z</time>
      </trkpt>
      <trkpt lat="44.72997" lon="-0.31211">
        <ele>107</ele>
        <time>2013-04-21T14:58:58Z</time>
      </trkpt>
      <trkpt lat="44.73018" lon="-0.31213">
        <ele>107</ele>
        <time>2013-04-21T14:59:06Z</time>
      </trkpt>
      <trkpt lat="44.7304" lon="-0.31213">
        <ele>107</ele>
        <time>2013-04-21T14:59:15Z</time>
      </trkpt>
      <trkpt lat="44.73061" lon="-0.31214">
        <ele>107</ele>
        <time>2013-04-21T14:59:22Z</time>
      </trkpt>
      <trkpt lat="44.73071" lon="-0.31215">
        <ele>107</ele>
        <time>2013-04-21T14:59:28Z</time>
      </trkpt>
      <trkpt lat="44.73074" lon="-0.31214">
        <ele>107</ele>
        <time>2013-04-21T14:59:31Z</time>
      </trkpt>
      <trkpt lat="44.73083" lon="-0.31202">
        <ele>107</ele>
        <time>2013-04-21T14:59:37Z</time>
      </trkpt>
      <trkpt lat="44.731" lon="-0.31182">
        <ele>106</ele>
        <time>2013-04-21T14:59:44Z</time>
      </trkpt>
      <trkpt lat="44.73121" lon="-0.31167">
        <ele>104</ele>
        <time>2013-04-21T14:59:50Z</time>
      </trkpt>
      <trkpt lat="44.7313" lon="-0.31161">
        <ele>104</ele>
        <time>2013-04-21T14:59:52Z</time>
      </trkpt>
      <trkpt lat="44.73162" lon="-0.3114">
        <ele>101</ele>
        <time>2013-04-21T15:00:00Z</time>
      </trkpt>
      <trkpt lat="44.73178" lon="-0.31141">
        <ele>100</ele>
        <time>2013-04-21T15:00:06Z</time>
      </trkpt>
      <trkpt lat="44.73204" lon="-0.31139">
        <ele>97</ele>
        <time>2013-04-21T15:00:13Z</time>
      </trkpt>
      <trkpt lat="44.73216" lon="-0.31139">
        <ele>95</ele>
        <time>2013-04-21T15:00:16Z</time>
      </trkpt>
      <trkpt lat="44.7325" lon="-0.31139">
        <ele>92</ele>
        <time>2013-04-21T15:00:23Z</time>
      </trkpt>
      <trkpt lat="44.73296" lon="-0.31137">
        <ele>88</ele>
        <time>2013-04-21T15:00:30Z</time>
      </trkpt>
      <trkpt lat="44.73345" lon="-0.31132">
        <ele>84</ele>
        <time>2013-04-21T15:00:38Z</time>
      </trkpt>
      <trkpt lat="44.73383" lon="-0.31129">
        <ele>81</ele>
        <time>2013-04-21T15:00:45Z</time>
      </trkpt>
      <trkpt lat="44.73404" lon="-0.31135">
        <ele>79</ele>
        <time>2013-04-21T15:00:49Z</time>
      </trkpt>
      <trkpt lat="44.73437" lon="-0.31161">
        <ele>75</ele>
        <time>2013-04-21T15:00:56Z</time>
      </trkpt>
      <trkpt lat="44.73441" lon="-0.31163">
        <ele>75</ele>
        <time>2013-04-21T15:00:57Z</time>
      </trkpt>
      <trkpt lat="44.73458" lon="-0.31145">
        <ele>73</ele>
        <time>2013-04-21T15:01:03Z</time>
      </trkpt>
      <trkpt lat="44.7347" lon="-0.31095">
        <ele>71</ele>
        <time>2013-04-21T15:01:12Z</time>
      </trkpt>
      <trkpt lat="44.73479" lon="-0.31055">
        <ele>67</ele>
        <time>2013-04-21T15:01:20Z</time>
      </trkpt>
      <trkpt lat="44.73488" lon="-0.31032">
        <ele>66</ele>
        <time>2013-04-21T15:01:26Z</time>
      </trkpt>
      <trkpt lat="44.73496" lon="-0.31034">
        <ele>65</ele>
        <time>2013-04-21T15:01:31Z</time>
      </trkpt>
      <trkpt lat="44.73499" lon="-0.31037">
        <ele>65</ele>
        <time>2013-04-21T15:01:38Z</time>
      </trkpt>
      <trkpt lat="44.73499" lon="-0.31038">
        <ele>65</ele>
        <time>2013-04-21T15:01:53Z</time>
      </trkpt>
      <trkpt lat="44.735" lon="-0.31039">
        <ele>65</ele>
        <time>2013-04-21T15:02:02Z</time>
      </trkpt>
      <trkpt lat="44.73502" lon="-0.3104">
        <ele>65</ele>
        <time>2013-04-21T15:02:13Z</time>
      </trkpt>
      <trkpt lat="44.73514" lon="-0.31047">
        <ele>64</ele>
        <time>2013-04-21T15:02:21Z</time>
      </trkpt>
      <trkpt lat="44.73531" lon="-0.31059">
        <ele>62</ele>
        <time>2013-04-21T15:02:28Z</time>
      </trkpt>
      <trkpt lat="44.7356" lon="-0.3108">
        <ele>61</ele>
        <time>2013-04-21T15:02:37Z</time>
      </trkpt>
      <trkpt lat="44.73587" lon="-0.31099">
        <ele>60</ele>
        <time>2013-04-21T15:02:45Z</time>
      </trkpt>
      <trkpt lat="44.73608" lon="-0.31111">
        <ele>59</ele>
        <time>2013-04-21T15:02:51Z</time>
      </trkpt>
      <trkpt lat="44.73625" lon="-0.31124">
        <ele>58</ele>
        <time>2013-04-21T15:02:57Z</time>
      </trkpt>
      <trkpt lat="44.73642" lon="-0.31136">
        <ele>59</ele>
        <time>2013-04-21T15:03:03Z</time>
      </trkpt>
      <trkpt lat="44.73656" lon="-0.31148">
        <ele>60</ele>
        <time>2013-04-21T15:03:09Z</time>
      </trkpt>
      <trkpt lat="44.73666" lon="-0.31158">
        <ele>61</ele>
        <time>2013-04-21T15:03:15Z</time>
      </trkpt>
      <trkpt lat="44.73669" lon="-0.31177">
        <ele>62</ele>
        <time>2013-04-21T15:03:21Z</time>
      </trkpt>
      <trkpt lat="44.73669" lon="-0.31183">
        <ele>62</ele>
        <time>2013-04-21T15:03:23Z</time>
      </trkpt>
      <trkpt lat="44.73665" lon="-0.31205">
        <ele>62</ele>
        <time>2013-04-21T15:03:30Z</time>
      </trkpt>
      <trkpt lat="44.73662" lon="-0.31227">
        <ele>63</ele>
        <time>2013-04-21T15:03:37Z</time>
      </trkpt>
      <trkpt lat="44.73665" lon="-0.31246">
        <ele>63</ele>
        <time>2013-04-21T15:03:43Z</time>
      </trkpt>
      <trkpt lat="44.73675" lon="-0.31252">
        <ele>65</ele>
        <time>2013-04-21T15:03:49Z</time>
      </trkpt>
      <trkpt lat="44.73685" lon="-0.31262">
        <ele>66</ele>
        <time>2013-04-21T15:03:57Z</time>
      </trkpt>
      <trkpt lat="44.73693" lon="-0.31274">
        <ele>67</ele>
        <time>2013-04-21T15:04:04Z</time>
      </trkpt>
      <trkpt lat="44.73702" lon="-0.31288">
        <ele>69</ele>
        <time>2013-04-21T15:04:12Z</time>
      </trkpt>
      <trkpt lat="44.73712" lon="-0.31297">
        <ele>70</ele>
        <time>2013-04-21T15:04:20Z</time>
      </trkpt>
      <trkpt lat="44.73722" lon="-0.31305">
        <ele>71</ele>
        <time>2013-04-21T15:04:28Z</time>
      </trkpt>
      <trkpt lat="44.73724" lon="-0.31308">
        <ele>71</ele>
        <time>2013-04-21T15:04:30Z</time>
      </trkpt>
      <trkpt lat="44.73737" lon="-0.31315">
        <ele>72</ele>
        <time>2013-04-21T15:04:39Z</time>
      </trkpt>
      <trkpt lat="44.73747" lon="-0.31323">
        <ele>74</ele>
        <time>2013-04-21T15:04:47Z</time>
      </trkpt>
      <trkpt lat="44.73752" lon="-0.31329">
        <ele>74</ele>
        <time>2013-04-21T15:04:53Z</time>
      </trkpt>
      <trkpt lat="44.73762" lon="-0.31336">
        <ele>76</ele>
        <time>2013-04-21T15:05:02Z</time>
      </trkpt>
      <trkpt lat="44.7377" lon="-0.31343">
        <ele>77</ele>
        <time>2013-04-21T15:05:10Z</time>
      </trkpt>
      <trkpt lat="44.73781" lon="-0.31353">
        <ele>79</ele>
        <time>2013-04-21T15:05:19Z</time>
      </trkpt>
      <trkpt lat="44.73786" lon="-0.31363">
        <ele>80</ele>
        <time>2013-04-21T15:05:26Z</time>
      </trkpt>
      <trkpt lat="44.73787" lon="-0.3138">
        <ele>81</ele>
        <time>2013-04-21T15:05:34Z</time>
      </trkpt>
      <trkpt lat="44.73787" lon="-0.31395">
        <ele>82</ele>
        <time>2013-04-21T15:05:41Z</time>
      </trkpt>
      <trkpt lat="44.73788" lon="-0.31404">
        <ele>82</ele>
        <time>2013-04-21T15:05:45Z</time>
      </trkpt>
      <trkpt lat="44.73789" lon="-0.31423">
        <ele>84</ele>
        <time>2013-04-21T15:05:53Z</time>
      </trkpt>
      <trkpt lat="44.7379" lon="-0.31442">
        <ele>85</ele>
        <time>2013-04-21T15:06:01Z</time>
      </trkpt>
      <trkpt lat="44.7379" lon="-0.31464">
        <ele>86</ele>
        <time>2013-04-21T15:06:11Z</time>
      </trkpt>
      <trkpt lat="44.73789" lon="-0.31482">
        <ele>88</ele>
        <time>2013-04-21T15:06:19Z</time>
      </trkpt>
      <trkpt lat="44.7379" lon="-0.31498">
        <ele>89</ele>
        <time>2013-04-21T15:06:27Z</time>
      </trkpt>
      <trkpt lat="44.73791" lon="-0.31506">
        <ele>90</ele>
        <time>2013-04-21T15:06:32Z</time>
      </trkpt>
      <trkpt lat="44.73792" lon="-0.31514">
        <ele>91</ele>
        <time>2013-04-21T15:06:36Z</time>
      </trkpt>
      <trkpt lat="44.73794" lon="-0.31527">
        <ele>92</ele>
        <time>2013-04-21T15:06:43Z</time>
      </trkpt>
      <trkpt lat="44.73794" lon="-0.3153">
        <ele>92</ele>
        <time>2013-04-21T15:06:44Z</time>
      </trkpt>
      <trkpt lat="44.738" lon="-0.31551">
        <ele>95</ele>
        <time>2013-04-21T15:06:55Z</time>
      </trkpt>
      <trkpt lat="44.73806" lon="-0.3157">
        <ele>97</ele>
        <time>2013-04-21T15:07:04Z</time>
      </trkpt>
      <trkpt lat="44.73809" lon="-0.3158">
        <ele>98</ele>
        <time>2013-04-21T15:07:09Z</time>
      </trkpt>
      <trkpt lat="44.73816" lon="-0.31599">
        <ele>98</ele>
        <time>2013-04-21T15:07:19Z</time>
      </trkpt>
      <trkpt lat="44.73825" lon="-0.31614">
        <ele>99</ele>
        <time>2013-04-21T15:07:27Z</time>
      </trkpt>
      <trkpt lat="44.73836" lon="-0.31629">
        <ele>99</ele>
        <time>2013-04-21T15:07:34Z</time>
      </trkpt>
      <trkpt lat="44.7385" lon="-0.31641">
        <ele>99</ele>
        <time>2013-04-21T15:07:42Z</time>
      </trkpt>
      <trkpt lat="44.73859" lon="-0.31648">
        <ele>99</ele>
        <time>2013-04-21T15:07:47Z</time>
      </trkpt>
      <trkpt lat="44.73876" lon="-0.31654">
        <ele>99</ele>
        <time>2013-04-21T15:07:55Z</time>
      </trkpt>
      <trkpt lat="44.73892" lon="-0.31648">
        <ele>100</ele>
        <time>2013-04-21T15:08:03Z</time>
      </trkpt>
      <trkpt lat="44.73904" lon="-0.3164">
        <ele>102</ele>
        <time>2013-04-21T15:08:10Z</time>
      </trkpt>
      <trkpt lat="44.73916" lon="-0.31633">
        <ele>103</ele>
        <time>2013-04-21T15:08:17Z</time>
      </trkpt>
      <trkpt lat="44.73932" lon="-0.31626">
        <ele>104</ele>
        <time>2013-04-21T15:08:26Z</time>
      </trkpt>
      <trkpt lat="44.73945" lon="-0.31621">
        <ele>105</ele>
        <time>2013-04-21T15:08:34Z</time>
      </trkpt>
      <trkpt lat="44.73952" lon="-0.31618">
        <ele>106</ele>
        <time>2013-04-21T15:08:39Z</time>
      </trkpt>
      <trkpt lat="44.73955" lon="-0.31614">
        <ele>106</ele>
        <time>2013-04-21T15:08:41Z</time>
      </trkpt>
      <trkpt lat="44.73961" lon="-0.31609">
        <ele>106</ele>
        <time>2013-04-21T15:08:45Z</time>
      </trkpt>
      <trkpt lat="44.73979" lon="-0.31598">
        <ele>107</ele>
        <time>2013-04-21T15:08:56Z</time>
      </trkpt>
      <trkpt lat="44.73991" lon="-0.31594">
        <ele>107</ele>
        <time>2013-04-21T15:09:03Z</time>
      </trkpt>
      <trkpt lat="44.74003" lon="-0.3159">
        <ele>107</ele>
        <time>2013-04-21T15:09:11Z</time>
      </trkpt>
      <trkpt lat="44.74015" lon="-0.31588">
        <ele>107</ele>
        <time>2013-04-21T15:09:18Z</time>
      </trkpt>
      <trkpt lat="44.74017" lon="-0.31588">
        <ele>107</ele>
        <time>2013-04-21T15:09:26Z</time>
      </trkpt>
      <trkpt lat="44.74017" lon="-0.31588">
        <ele>107</ele>
        <time>2013-04-21T15:09:36Z</time>
      </trkpt>
      <trkpt lat="44.74017" lon="-0.31588">
        <ele>107</ele>
        <time>2013-04-21T15:09:47Z</time>
      </trkpt>
      <trkpt lat="44.74017" lon="-0.31588">
        <ele>107</ele>
        <time>2013-04-21T15:09:59Z</time>
      </trkpt>
      <trkpt lat="44.74017" lon="-0.31588">
        <ele>107</ele>
        <time>2013-04-21T15:10:14Z</time>
      </trkpt>
      <trkpt lat="44.74017" lon="-0.31588">
        <ele>107</ele>
        <time>2013-04-21T15:10:27Z</time>
      </trkpt>
      <trkpt lat="44.74017" lon="-0.31588">
        <ele>107</ele>
        <time>2013-04-21T15:10:35Z</time>
      </trkpt>
      <trkpt lat="44.74017" lon="-0.31588">
        <ele>107</ele>
        <time>2013-04-21T15:10:43Z</time>
      </trkpt>
      <trkpt lat="44.74017" lon="-0.31588">
        <ele>107</ele>
        <time>2013-04-21T15:10:53Z</time>
      </trkpt>
      <trkpt lat="44.74017" lon="-0.31588">
        <ele>107</ele>
        <time>2013-04-21T15:11:06Z</time>
      </trkpt>
      <trkpt lat="44.74017" lon="-0.31588">
        <ele>107</ele>
        <time>2013-04-21T15:11:13Z</time>
      </trkpt>
      <trkpt lat="44.74018" lon="-0.31587">
        <ele>107</ele>
        <time>2013-04-21T15:11:19Z</time>
      </trkpt>
      <trkpt lat="44.74022" lon="-0.31583">
        <ele>107</ele>
        <time>2013-04-21T15:11:26Z</time>
      </trkpt>
      <trkpt lat="44.74025" lon="-0.31584">
        <ele>107</ele>
        <time>2013-04-21T15:11:32Z</time>
      </trkpt>
      <trkpt lat="44.74038" lon="-0.31587">
        <ele>107</ele>
        <time>2013-04-21T15:11:40Z</time>
      </trkpt>
      <trkpt lat="44.74045" lon="-0.31586">
        <ele>107</ele>
        <time>2013-04-21T15:11:43Z</time>
      </trkpt>
      <trkpt lat="44.74068" lon="-0.31582">
        <ele>106</ele>
        <time>2013-04-21T15:11:52Z</time>
      </trkpt>
      <trkpt lat="44.74089" lon="-0.31579">
        <ele>106</ele>
        <time>2013-04-21T15:11:59Z</time>
      </trkpt>
      <trkpt lat="44.74119" lon="-0.31574">
        <ele>105</ele>
        <time>2013-04-21T15:12:07Z</time>
      </trkpt>
      <trkpt lat="44.74146" lon="-0.31571">
        <ele>105</ele>
        <time>2013-04-21T15:12:15Z</time>
      </trkpt>
      <trkpt lat="44.74177" lon="-0.31565">
        <ele>106</ele>
        <time>2013-04-21T15:12:24Z</time>
      </trkpt>
      <trkpt lat="44.7418" lon="-0.31568">
        <ele>106</ele>
        <time>2013-04-21T15:12:25Z</time>
      </trkpt>
      <trkpt lat="44.74182" lon="-0.31573">
        <ele>106</ele>
        <time>2013-04-21T15:12:26Z</time>
      </trkpt>
      <trkpt lat="44.74183" lon="-0.31578">
        <ele>106</ele>
        <time>2013-04-21T15:12:27Z</time>
      </trkpt>
      <trkpt lat="44.74187" lon="-0.31629">
        <ele>104</ele>
        <time>2013-04-21T15:12:35Z</time>
      </trkpt>
      <trkpt lat="44.74191" lon="-0.31651">
        <ele>104</ele>
        <time>2013-04-21T15:12:41Z</time>
      </trkpt>
      <trkpt lat="44.74191" lon="-0.31652">
        <ele>104</ele>
        <time>2013-04-21T15:12:51Z</time>
      </trkpt>
      <trkpt lat="44.74191" lon="-0.31651">
        <ele>104</ele>
        <time>2013-04-21T15:13:04Z</time>
      </trkpt>
      <trkpt lat="44.74191" lon="-0.31657">
        <ele>103</ele>
        <time>2013-04-21T15:13:11Z</time>
      </trkpt>
      <trkpt lat="44.74193" lon="-0.3167">
        <ele>103</ele>
        <time>2013-04-21T15:13:19Z</time>
      </trkpt>
      <trkpt lat="44.74193" lon="-0.31672">
        <ele>103</ele>
        <time>2013-04-21T15:13:20Z</time>
      </trkpt>
      <trkpt lat="44.74193" lon="-0.31674">
        <ele>103</ele>
        <time>2013-04-21T15:13:21Z</time>
      </trkpt>
      <trkpt lat="44.74193" lon="-0.31681">
        <ele>102</ele>
        <time>2013-04-21T15:13:26Z</time>
      </trkpt>
      <trkpt lat="44.7419" lon="-0.31712">
        <ele>100</ele>
        <time>2013-04-21T15:13:35Z</time>
      </trkpt>
      <trkpt lat="44.7419" lon="-0.31718">
        <ele>100</ele>
        <time>2013-04-21T15:13:36Z</time>
      </trkpt>
      <trkpt lat="44.74191" lon="-0.31723">
        <ele>100</ele>
        <time>2013-04-21T15:13:37Z</time>
      </trkpt>
      <trkpt lat="44.74199" lon="-0.31769">
        <ele>98</ele>
        <time>2013-04-21T15:13:45Z</time>
      </trkpt>
      <trkpt lat="44.74211" lon="-0.31838">
        <ele>96</ele>
        <time>2013-04-21T15:13:56Z</time>
      </trkpt>
      <trkpt lat="44.7422" lon="-0.31891">
        <ele>95</ele>
        <time>2013-04-21T15:14:04Z</time>
      </trkpt>
      <trkpt lat="44.74231" lon="-0.31924">
        <ele>94</ele>
        <time>2013-04-21T15:14:11Z</time>
      </trkpt>
      <trkpt lat="44.74245" lon="-0.31961">
        <ele>91</ele>
        <time>2013-04-21T15:14:19Z</time>
      </trkpt>
      <trkpt lat="44.74257" lon="-0.31991">
        <ele>86</ele>
        <time>2013-04-21T15:14:26Z</time>
      </trkpt>
      <trkpt lat="44.74269" lon="-0.32022">
        <ele>81</ele>
        <time>2013-04-21T15:14:33Z</time>
      </trkpt>
      <trkpt lat="44.74276" lon="-0.32039">
        <ele>79</ele>
        <time>2013-04-21T15:14:40Z</time>
      </trkpt>
      <trkpt lat="44.74276" lon="-0.32038">
        <ele>79</ele>
        <time>2013-04-21T15:14:48Z</time>
      </trkpt>
      <trkpt lat="44.74276" lon="-0.32038">
        <ele>79</ele>
        <time>2013-04-21T15:15:10Z</time>
      </trkpt>
      <trkpt lat="44.74277" lon="-0.32038">
        <ele>79</ele>
        <time>2013-04-21T15:15:38Z</time>
      </trkpt>
      <trkpt lat="44.74277" lon="-0.32038">
        <ele>79</ele>
        <time>2013-04-21T15:16:04Z</time>
      </trkpt>
      <trkpt lat="44.74277" lon="-0.32038">
        <ele>79</ele>
        <time>2013-04-21T15:16:34Z</time>
      </trkpt>
      <trkpt lat="44.74278" lon="-0.32037">
        <ele>79</ele>
        <time>2013-04-21T15:17:03Z</time>
      </trkpt>
      <trkpt lat="44.74278" lon="-0.32037">
        <ele>79</ele>
        <time>2013-04-21T15:17:33Z</time>
      </trkpt>
      <trkpt lat="44.74278" lon="-0.32037">
        <ele>79</ele>
        <time>2013-04-21T15:17:45Z</time>
      </trkpt>
      <trkpt lat="44.74278" lon="-0.32039">
        <ele>79</ele>
        <time>2013-04-21T15:17:57Z</time>
      </trkpt>
      <trkpt lat="44.74278" lon="-0.3204">
        <ele>79</ele>
        <time>2013-04-21T15:18:08Z</time>
      </trkpt>
      <trkpt lat="44.74278" lon="-0.32039">
        <ele>79</ele>
        <time>2013-04-21T15:18:13Z</time>
      </trkpt>
      <trkpt lat="44.74277" lon="-0.3204">
        <ele>79</ele>
        <time>2013-04-21T15:18:24Z</time>
      </trkpt>
      <trkpt lat="44.74277" lon="-0.32039">
        <ele>79</ele>
        <time>2013-04-21T15:18:41Z</time>
      </trkpt>
      <trkpt lat="44.74277" lon="-0.3204">
        <ele>79</ele>
        <time>2013-04-21T15:18:51Z</time>
      </trkpt>
      <trkpt lat="44.74277" lon="-0.3204">
        <ele>79</ele>
        <time>2013-04-21T15:18:57Z</time>
      </trkpt>
      <trkpt lat="44.74277" lon="-0.32039">
        <ele>79</ele>
        <time>2013-04-21T15:19:05Z</time>
      </trkpt>
      <trkpt lat="44.74276" lon="-0.32039">
        <ele>79</ele>
        <time>2013-04-21T15:19:33Z</time>
      </trkpt>
      <trkpt lat="44.74276" lon="-0.32038">
        <ele>79</ele>
        <time>2013-04-21T15:20:01Z</time>
      </trkpt>
      <trkpt lat="44.74276" lon="-0.32038">
        <ele>79</ele>
        <time>2013-04-21T15:20:27Z</time>
      </trkpt>
      <trkpt lat="44.74276" lon="-0.32039">
        <ele>79</ele>
        <time>2013-04-21T15:20:52Z</time>
      </trkpt>
      <trkpt lat="44.74276" lon="-0.32039">
        <ele>79</ele>
        <time>2013-04-21T15:21:17Z</time>
      </trkpt>
      <trkpt lat="44.74277" lon="-0.32038">
        <ele>79</ele>
        <time>2013-04-21T15:21:40Z</time>
      </trkpt>
      <trkpt lat="44.74277" lon="-0.32039">
        <ele>79</ele>
        <time>2013-04-21T15:22:10Z</time>
      </trkpt>
      <trkpt lat="44.74276" lon="-0.32039">
        <ele>79</ele>
        <time>2013-04-21T15:22:35Z</time>
      </trkpt>
      <trkpt lat="44.74276" lon="-0.32039">
        <ele>79</ele>
        <time>2013-04-21T15:23:01Z</time>
      </trkpt>
      <trkpt lat="44.74277" lon="-0.32038">
        <ele>79</ele>
        <time>2013-04-21T15:23:29Z</time>
      </trkpt>
      <trkpt lat="44.74277" lon="-0.32038">
        <ele>79</ele>
        <time>2013-04-21T15:23:56Z</time>
      </trkpt>
      <trkpt lat="44.74276" lon="-0.32038">
        <ele>79</ele>
        <time>2013-04-21T15:24:25Z</time>
      </trkpt>
      <trkpt lat="44.74276" lon="-0.32038">
        <ele>79</ele>
        <time>2013-04-21T15:24:59Z</time>
      </trkpt>
      <trkpt lat="44.74276" lon="-0.32038">
        <ele>79</ele>
        <time>2013-04-21T15:25:25Z</time>
      </trkpt>
      <trkpt lat="44.74277" lon="-0.3204">
        <ele>79</ele>
        <time>2013-04-21T15:25:37Z</time>
      </trkpt>
      <trkpt lat="44.74278" lon="-0.3204">
        <ele>79</ele>
        <time>2013-04-21T15:25:44Z</time>
      </trkpt>
      <trkpt lat="44.74278" lon="-0.32041">
        <ele>78</ele>
        <time>2013-04-21T15:26:04Z</time>
      </trkpt>
      <trkpt lat="44.74279" lon="-0.32041">
        <ele>78</ele>
        <time>2013-04-21T15:26:29Z</time>
      </trkpt>
      <trkpt lat="44.74279" lon="-0.32041">
        <ele>79</ele>
        <time>2013-04-21T15:26:56Z</time>
      </trkpt>
      <trkpt lat="44.74279" lon="-0.3204">
        <ele>79</ele>
        <time>2013-04-21T15:27:22Z</time>
      </trkpt>
      <trkpt lat="44.74279" lon="-0.3204">
        <ele>79</ele>
        <time>2013-04-21T15:27:45Z</time>
      </trkpt>
      <trkpt lat="44.74279" lon="-0.32041">
        <ele>78</ele>
        <time>2013-04-21T15:28:06Z</time>
      </trkpt>
      <trkpt lat="44.7428" lon="-0.32041">
        <ele>78</ele>
        <time>2013-04-21T15:28:31Z</time>
      </trkpt>
      <trkpt lat="44.7428" lon="-0.32041">
        <ele>78</ele>
        <time>2013-04-21T15:28:53Z</time>
      </trkpt>
      <trkpt lat="44.7428" lon="-0.32041">
        <ele>78</ele>
        <time>2013-04-21T15:29:14Z</time>
      </trkpt>
      <trkpt lat="44.7428" lon="-0.32041">
        <ele>78</ele>
        <time>2013-04-21T15:29:34Z</time>
      </trkpt>
      <trkpt lat="44.7428" lon="-0.32041">
        <ele>78</ele>
        <time>2013-04-21T15:29:56Z</time>
      </trkpt>
      <trkpt lat="44.7428" lon="-0.32041">
        <ele>78</ele>
        <time>2013-04-21T15:30:19Z</time>
      </trkpt>
      <trkpt lat="44.74279" lon="-0.32041">
        <ele>78</ele>
        <time>2013-04-21T15:30:45Z</time>
      </trkpt>
      <trkpt lat="44.74279" lon="-0.3204">
        <ele>79</ele>
        <time>2013-04-21T15:31:04Z</time>
      </trkpt>
      <trkpt lat="44.74279" lon="-0.3204">
        <ele>79</ele>
        <time>2013-04-21T15:31:25Z</time>
      </trkpt>
      <trkpt lat="44.7428" lon="-0.3204">
        <ele>79</ele>
        <time>2013-04-21T15:31:48Z</time>
      </trkpt>
      <trkpt lat="44.7428" lon="-0.3204">
        <ele>79</ele>
        <time>2013-04-21T15:32:13Z</time>
      </trkpt>
      <trkpt lat="44.74279" lon="-0.3204">
        <ele>79</ele>
        <time>2013-04-21T15:32:38Z</time>
      </trkpt>
      <trkpt lat="44.74279" lon="-0.3204">
        <ele>79</ele>
        <time>2013-04-21T15:33:04Z</time>
      </trkpt>
      <trkpt lat="44.74279" lon="-0.32039">
        <ele>79</ele>
        <time>2013-04-21T15:33:27Z</time>
      </trkpt>
      <trkpt lat="44.7428" lon="-0.3204">
        <ele>79</ele>
        <time>2013-04-21T15:33:50Z</time>
      </trkpt>
      <trkpt lat="44.74281" lon="-0.32041">
        <ele>78</ele>
        <time>2013-04-21T15:34:13Z</time>
      </trkpt>
      <trkpt lat="44.7428" lon="-0.32042">
        <ele>78</ele>
        <time>2013-04-21T15:34:38Z</time>
      </trkpt>
      <trkpt lat="44.7428" lon="-0.32041">
        <ele>78</ele>
        <time>2013-04-21T15:35:01Z</time>
      </trkpt>
      <trkpt lat="44.7428" lon="-0.32041">
        <ele>78</ele>
        <time>2013-04-21T15:35:23Z</time>
      </trkpt>
      <trkpt lat="44.7428" lon="-0.3204">
        <ele>79</ele>
        <time>2013-04-21T15:35:49Z</time>
      </trkpt>
      <trkpt lat="44.74279" lon="-0.32041">
        <ele>78</ele>
        <time>2013-04-21T15:36:11Z</time>
      </trkpt>
      <trkpt lat="44.7428" lon="-0.32041">
        <ele>78</ele>
        <time>2013-04-21T15:36:32Z</time>
      </trkpt>
      <trkpt lat="44.7428" lon="-0.32041">
        <ele>78</ele>
        <time>2013-04-21T15:36:53Z</time>
      </trkpt>
      <trkpt lat="44.7428" lon="-0.32041">
        <ele>78</ele>
        <time>2013-04-21T15:37:14Z</time>
      </trkpt>
      <trkpt lat="44.7428" lon="-0.32041">
        <ele>78</ele>
        <time>2013-04-21T15:37:39Z</time>
      </trkpt>
      <trkpt lat="44.7428" lon="-0.32041">
        <ele>78</ele>
        <time>2013-04-21T15:37:58Z</time>
      </trkpt>
      <trkpt lat="44.7428" lon="-0.32041">
        <ele>78</ele>
        <time>2013-04-21T15:38:25Z</time>
      </trkpt>
      <trkpt lat="44.7428" lon="-0.32041">
        <ele>78</ele>
        <time>2013-04-21T15:38:45Z</time>
      </trkpt>
      <trkpt lat="44.74281" lon="-0.32041">
        <ele>78</ele>
        <time>2013-04-21T15:39:11Z</time>
      </trkpt>
      <trkpt lat="44.7428" lon="-0.32042">
        <ele>78</ele>
        <time>2013-04-21T15:39:34Z</time>
      </trkpt>
      <trkpt lat="44.7428" lon="-0.32042">
        <ele>78</ele>
        <time>2013-04-21T15:39:58Z</time>
      </trkpt>
      <trkpt lat="44.7428" lon="-0.32041">
        <ele>78</ele>
        <time>2013-04-21T15:40:18Z</time>
      </trkpt>
      <trkpt lat="44.7428" lon="-0.32041">
        <ele>78</ele>
        <time>2013-04-21T15:40:41Z</time>
      </trkpt>
      <trkpt lat="44.74281" lon="-0.32041">
        <ele>78</ele>
        <time>2013-04-21T15:41:03Z</time>
      </trkpt>
      <trkpt lat="44.74281" lon="-0.32041">
        <ele>78</ele>
        <time>2013-04-21T15:41:27Z</time>
      </trkpt>
      <trkpt lat="44.74281" lon="-0.32041">
        <ele>78</ele>
        <time>2013-04-21T15:41:48Z</time>
      </trkpt>
      <trkpt lat="44.7428" lon="-0.32041">
        <ele>78</ele>
        <time>2013-04-21T15:42:12Z</time>
      </trkpt>
      <trkpt lat="44.7428" lon="-0.32041">
        <ele>78</ele>
        <time>2013-04-21T15:42:39Z</time>
      </trkpt>
      <trkpt lat="44.7428" lon="-0.32041">
        <ele>78</ele>
        <time>2013-04-21T15:43:06Z</time>
      </trkpt>
      <trkpt lat="44.7428" lon="-0.32041">
        <ele>78</ele>
        <time>2013-04-21T15:43:35Z</time>
      </trkpt>
      <trkpt lat="44.74281" lon="-0.32041">
        <ele>78</ele>
        <time>2013-04-21T15:44:02Z</time>
      </trkpt>
      <trkpt lat="44.74281" lon="-0.32041">
        <ele>78</ele>
        <time>2013-04-21T15:44:26Z</time>
      </trkpt>
      <trkpt lat="44.7428" lon="-0.32041">
        <ele>78</ele>
        <time>2013-04-21T15:44:57Z</time>
      </trkpt>
      <trkpt lat="44.74281" lon="-0.32041">
        <ele>78</ele>
        <time>2013-04-21T15:45:24Z</time>
      </trkpt>
      <trkpt lat="44.7428" lon="-0.32041">
        <ele>78</ele>
        <time>2013-04-21T15:45:49Z</time>
      </trkpt>
      <trkpt lat="44.7428" lon="-0.3204">
        <ele>79</ele>
        <time>2013-04-21T15:46:16Z</time>
      </trkpt>
      <trkpt lat="44.7428" lon="-0.32041">
        <ele>78</ele>
        <time>2013-04-21T15:46:42Z</time>
      </trkpt>
      <trkpt lat="44.74279" lon="-0.32041">
        <ele>78</ele>
        <time>2013-04-21T15:47:08Z</time>
      </trkpt>
      <trkpt lat="44.74279" lon="-0.3204">
        <ele>79</ele>
        <time>2013-04-21T15:47:32Z</time>
      </trkpt>
      <trkpt lat="44.7428" lon="-0.32041">
        <ele>78</ele>
        <time>2013-04-21T15:47:55Z</time>
      </trkpt>
      <trkpt lat="44.7428" lon="-0.32041">
        <ele>78</ele>
        <time>2013-04-21T15:48:23Z</time>
      </trkpt>
      <trkpt lat="44.74279" lon="-0.32041">
        <ele>78</ele>
        <time>2013-04-21T15:48:49Z</time>
      </trkpt>
      <trkpt lat="44.7428" lon="-0.32041">
        <ele>78</ele>
        <time>2013-04-21T15:49:10Z</time>
      </trkpt>
      <trkpt lat="44.7428" lon="-0.3204">
        <ele>79</ele>
        <time>2013-04-21T15:49:37Z</time>
      </trkpt>
      <trkpt lat="44.7428" lon="-0.3204">
        <ele>79</ele>
        <time>2013-04-21T15:50:03Z</time>
      </trkpt>
      <trkpt lat="44.7428" lon="-0.3204">
        <ele>79</ele>
        <time>2013-04-21T15:50:30Z</time>
      </trkpt>
      <trkpt lat="44.7428" lon="-0.32041">
        <ele>78</ele>
        <time>2013-04-21T15:50:57Z</time>
      </trkpt>
      <trkpt lat="44.7428" lon="-0.3204">
        <ele>79</ele>
        <time>2013-04-21T15:51:26Z</time>
      </trkpt>
      <trkpt lat="44.7428" lon="-0.3204">
        <ele>79</ele>
        <time>2013-04-21T15:51:53Z</time>
      </trkpt>
      <trkpt lat="44.7428" lon="-0.32041">
        <ele>78</ele>
        <time>2013-04-21T15:52:20Z</time>
      </trkpt>
      <trkpt lat="44.7428" lon="-0.32041">
        <ele>78</ele>
        <time>2013-04-21T15:52:45Z</time>
      </trkpt>
      <trkpt lat="44.7428" lon="-0.3204">
        <ele>79</ele>
        <time>2013-04-21T15:53:11Z</time>
      </trkpt>
      <trkpt lat="44.74279" lon="-0.3204">
        <ele>79</ele>
        <time>2013-04-21T15:53:36Z</time>
      </trkpt>
      <trkpt lat="44.74281" lon="-0.3204">
        <ele>78</ele>
        <time>2013-04-21T15:54:03Z</time>
      </trkpt>
      <trkpt lat="44.74281" lon="-0.32041">
        <ele>78</ele>
        <time>2013-04-21T15:54:28Z</time>
      </trkpt>
      <trkpt lat="44.74281" lon="-0.32041">
        <ele>78</ele>
        <time>2013-04-21T15:54:51Z</time>
      </trkpt>
      <trkpt lat="44.74281" lon="-0.32041">
        <ele>78</ele>
        <time>2013-04-21T15:55:15Z</time>
      </trkpt>
      <trkpt lat="44.7428" lon="-0.32041">
        <ele>78</ele>
        <time>2013-04-21T15:55:42Z</time>
      </trkpt>
      <trkpt lat="44.7428" lon="-0.32041">
        <ele>78</ele>
        <time>2013-04-21T15:56:09Z</time>
      </trkpt>
      <trkpt lat="44.7428" lon="-0.32041">
        <ele>78</ele>
        <time>2013-04-21T15:56:32Z</time>
      </trkpt>
      <trkpt lat="44.7428" lon="-0.32041">
        <ele>78</ele>
        <time>2013-04-21T15:56:59Z</time>
      </trkpt>
      <trkpt lat="44.74279" lon="-0.3204">
        <ele>79</ele>
        <time>2013-04-21T15:57:23Z</time>
      </trkpt>
      <trkpt lat="44.74279" lon="-0.3204">
        <ele>79</ele>
        <time>2013-04-21T15:57:46Z</time>
      </trkpt>
      <trkpt lat="44.74279" lon="-0.32041">
        <ele>78</ele>
        <time>2013-04-21T15:58:06Z</time>
      </trkpt>
      <trkpt lat="44.74279" lon="-0.32041">
        <ele>78</ele>
        <time>2013-04-21T15:58:33Z</time>
      </trkpt>
      <trkpt lat="44.74279" lon="-0.32041">
        <ele>78</ele>
        <time>2013-04-21T15:58:59Z</time>
      </trkpt>
      <trkpt lat="44.7428" lon="-0.32041">
        <ele>78</ele>
        <time>2013-04-21T15:59:24Z</time>
      </trkpt>
      <trkpt lat="44.7428" lon="-0.32041">
        <ele>78</ele>
        <time>2013-04-21T15:59:47Z</time>
      </trkpt>
      <trkpt lat="44.7428" lon="-0.32041">
        <ele>78</ele>
        <time>2013-04-21T16:00:09Z</time>
      </trkpt>
      <trkpt lat="44.74279" lon="-0.32041">
        <ele>78</ele>
        <time>2013-04-21T16:00:29Z</time>
      </trkpt>
      <trkpt lat="44.74279" lon="-0.32041">
        <ele>79</ele>
        <time>2013-04-21T16:00:55Z</time>
      </trkpt>
      <trkpt lat="44.74278" lon="-0.3204">
        <ele>79</ele>
        <time>2013-04-21T16:01:19Z</time>
      </trkpt>
      <trkpt lat="44.74278" lon="-0.3204">
        <ele>79</ele>
        <time>2013-04-21T16:01:41Z</time>
      </trkpt>
      <trkpt lat="44.74278" lon="-0.3204">
        <ele>79</ele>
        <time>2013-04-21T16:02:03Z</time>
      </trkpt>
      <trkpt lat="44.74278" lon="-0.32041">
        <ele>78</ele>
        <time>2013-04-21T16:02:11Z</time>
      </trkpt>
      <trkpt lat="44.74279" lon="-0.32046">
        <ele>78</ele>
        <time>2013-04-21T16:02:17Z</time>
      </trkpt>
      <trkpt lat="44.74279" lon="-0.32048">
        <ele>78</ele>
        <time>2013-04-21T16:02:22Z</time>
      </trkpt>
      <trkpt lat="44.74281" lon="-0.32053">
        <ele>77</ele>
        <time>2013-04-21T16:02:29Z</time>
      </trkpt>
      <trkpt lat="44.74286" lon="-0.32066">
        <ele>76</ele>
        <time>2013-04-21T16:02:33Z</time>
      </trkpt>
      <trkpt lat="44.74293" lon="-0.32083">
        <ele>73</ele>
        <time>2013-04-21T16:02:41Z</time>
      </trkpt>
      <trkpt lat="44.74292" lon="-0.32083">
        <ele>73</ele>
        <time>2013-04-21T16:02:53Z</time>
      </trkpt>
      <trkpt lat="44.74292" lon="-0.32083">
        <ele>73</ele>
        <time>2013-04-21T16:03:03Z</time>
      </trkpt>
      <trkpt lat="44.74293" lon="-0.32085">
        <ele>73</ele>
        <time>2013-04-21T16:03:04Z</time>
      </trkpt>
      <trkpt lat="44.74301" lon="-0.32106">
        <ele>71</ele>
        <time>2013-04-21T16:03:09Z</time>
      </trkpt>
      <trkpt lat="44.7431" lon="-0.32128">
        <ele>68</ele>
        <time>2013-04-21T16:03:15Z</time>
      </trkpt>
      <trkpt lat="44.74312" lon="-0.32135">
        <ele>68</ele>
        <time>2013-04-21T16:03:21Z</time>
      </trkpt>
      <trkpt lat="44.74313" lon="-0.32138">
        <ele>68</ele>
        <time>2013-04-21T16:03:29Z</time>
      </trkpt>
      <trkpt lat="44.74314" lon="-0.32138">
        <ele>68</ele>
        <time>2013-04-21T16:03:39Z</time>
      </trkpt>
      <trkpt lat="44.7432" lon="-0.32136">
        <ele>68</ele>
        <time>2013-04-21T16:03:45Z</time>
      </trkpt>
      <trkpt lat="44.74327" lon="-0.3213">
        <ele>68</ele>
        <time>2013-04-21T16:03:54Z</time>
      </trkpt>
      <trkpt lat="44.74331" lon="-0.32129">
        <ele>68</ele>
        <time>2013-04-21T16:03:58Z</time>
      </trkpt>
      <trkpt lat="44.74338" lon="-0.3212">
        <ele>68</ele>
        <time>2013-04-21T16:04:05Z</time>
      </trkpt>
      <trkpt lat="44.74341" lon="-0.32113">
        <ele>69</ele>
        <time>2013-04-21T16:04:09Z</time>
      </trkpt>
      <trkpt lat="44.74343" lon="-0.32109">
        <ele>69</ele>
        <time>2013-04-21T16:04:12Z</time>
      </trkpt>
      <trkpt lat="44.74346" lon="-0.32108">
        <ele>69</ele>
        <time>2013-04-21T16:04:14Z</time>
      </trkpt>
      <trkpt lat="44.74346" lon="-0.32105">
        <ele>69</ele>
        <time>2013-04-21T16:04:16Z</time>
      </trkpt>
      <trkpt lat="44.74352" lon="-0.321">
        <ele>69</ele>
        <time>2013-04-21T16:04:21Z</time>
      </trkpt>
      <trkpt lat="44.74364" lon="-0.32101">
        <ele>69</ele>
        <time>2013-04-21T16:04:29Z</time>
      </trkpt>
      <trkpt lat="44.74367" lon="-0.32099">
        <ele>69</ele>
        <time>2013-04-21T16:04:32Z</time>
      </trkpt>
      <trkpt lat="44.74377" lon="-0.32092">
        <ele>69</ele>
        <time>2013-04-21T16:04:40Z</time>
      </trkpt>
      <trkpt lat="44.74381" lon="-0.3209">
        <ele>69</ele>
        <time>2013-04-21T16:04:43Z</time>
      </trkpt>
      <trkpt lat="44.74389" lon="-0.32087">
        <ele>69</ele>
        <time>2013-04-21T16:04:50Z</time>
      </trkpt>
      <trkpt lat="44.74392" lon="-0.32085">
        <ele>69</ele>
        <time>2013-04-21T16:04:52Z</time>
      </trkpt>
      <trkpt lat="44.74397" lon="-0.3208">
        <ele>69</ele>
        <time>2013-04-21T16:05:00Z</time>
      </trkpt>
      <trkpt lat="44.74402" lon="-0.32077">
        <ele>69</ele>
        <time>2013-04-21T16:05:07Z</time>
      </trkpt>
      <trkpt lat="44.74404" lon="-0.32078">
        <ele>69</ele>
        <time>2013-04-21T16:05:10Z</time>
      </trkpt>
      <trkpt lat="44.74406" lon="-0.32086">
        <ele>68</ele>
        <time>2013-04-21T16:05:17Z</time>
      </trkpt>
      <trkpt lat="44.74409" lon="-0.3209">
        <ele>68</ele>
        <time>2013-04-21T16:05:22Z</time>
      </trkpt>
      <trkpt lat="44.74409" lon="-0.32096">
        <ele>68</ele>
        <time>2013-04-21T16:05:29Z</time>
      </trkpt>
      <trkpt lat="44.74413" lon="-0.32112">
        <ele>67</ele>
        <time>2013-04-21T16:05:36Z</time>
      </trkpt>
      <trkpt lat="44.74415" lon="-0.32121">
        <ele>67</ele>
        <time>2013-04-21T16:05:42Z</time>
      </trkpt>
      <trkpt lat="44.74416" lon="-0.32127">
        <ele>67</ele>
        <time>2013-04-21T16:05:45Z</time>
      </trkpt>
      <trkpt lat="44.74421" lon="-0.32142">
        <ele>67</ele>
        <time>2013-04-21T16:05:53Z</time>
      </trkpt>
      <trkpt lat="44.74427" lon="-0.32153">
        <ele>66</ele>
        <time>2013-04-21T16:06:01Z</time>
      </trkpt>
      <trkpt lat="44.74427" lon="-0.32154">
        <ele>66</ele>
        <time>2013-04-21T16:06:02Z</time>
      </trkpt>
      <trkpt lat="44.74432" lon="-0.32158">
        <ele>66</ele>
        <time>2013-04-21T16:06:06Z</time>
      </trkpt>
      <trkpt lat="44.74443" lon="-0.3216">
        <ele>65</ele>
        <time>2013-04-21T16:06:13Z</time>
      </trkpt>
      <trkpt lat="44.74453" lon="-0.32164">
        <ele>65</ele>
        <time>2013-04-21T16:06:20Z</time>
      </trkpt>
      <trkpt lat="44.74457" lon="-0.32165">
        <ele>65</ele>
        <time>2013-04-21T16:06:27Z</time>
      </trkpt>
      <trkpt lat="44.74463" lon="-0.32165">
        <ele>64</ele>
        <time>2013-04-21T16:06:35Z</time>
      </trkpt>
      <trkpt lat="44.74468" lon="-0.3216">
        <ele>64</ele>
        <time>2013-04-21T16:06:41Z</time>
      </trkpt>
      <trkpt lat="44.74471" lon="-0.32161">
        <ele>64</ele>
        <time>2013-04-21T16:06:44Z</time>
      </trkpt>
      <trkpt lat="44.74477" lon="-0.32159">
        <ele>64</ele>
        <time>2013-04-21T16:06:48Z</time>
      </trkpt>
      <trkpt lat="44.7449" lon="-0.32158">
        <ele>63</ele>
        <time>2013-04-21T16:06:54Z</time>
      </trkpt>
      <trkpt lat="44.74498" lon="-0.32157">
        <ele>63</ele>
        <time>2013-04-21T16:07:01Z</time>
      </trkpt>
      <trkpt lat="44.745" lon="-0.32156">
        <ele>63</ele>
        <time>2013-04-21T16:07:04Z</time>
      </trkpt>
      <trkpt lat="44.74501" lon="-0.32152">
        <ele>63</ele>
        <time>2013-04-21T16:07:07Z</time>
      </trkpt>
      <trkpt lat="44.7451" lon="-0.32139">
        <ele>64</ele>
        <time>2013-04-21T16:07:15Z</time>
      </trkpt>
      <trkpt lat="44.74516" lon="-0.32131">
        <ele>64</ele>
        <time>2013-04-21T16:07:21Z</time>
      </trkpt>
      <trkpt lat="44.74519" lon="-0.32125">
        <ele>64</ele>
        <time>2013-04-21T16:07:25Z</time>
      </trkpt>
      <trkpt lat="44.7452" lon="-0.32123">
        <ele>64</ele>
        <time>2013-04-21T16:07:27Z</time>
      </trkpt>
      <trkpt lat="44.74523" lon="-0.32116">
        <ele>65</ele>
        <time>2013-04-21T16:07:33Z</time>
      </trkpt>
      <trkpt lat="44.74527" lon="-0.3211">
        <ele>65</ele>
        <time>2013-04-21T16:07:38Z</time>
      </trkpt>
      <trkpt lat="44.74528" lon="-0.32109">
        <ele>65</ele>
        <time>2013-04-21T16:07:39Z</time>
      </trkpt>
      <trkpt lat="44.74533" lon="-0.32104">
        <ele>65</ele>
        <time>2013-04-21T16:07:44Z</time>
      </trkpt>
      <trkpt lat="44.74535" lon="-0.32102">
        <ele>65</ele>
        <time>2013-04-21T16:07:46Z</time>
      </trkpt>
      <trkpt lat="44.74536" lon="-0.32099">
        <ele>65</ele>
        <time>2013-04-21T16:07:48Z</time>
      </trkpt>
      <trkpt lat="44.74539" lon="-0.32091">
        <ele>66</ele>
        <time>2013-04-21T16:07:55Z</time>
      </trkpt>
      <trkpt lat="44.74539" lon="-0.32077">
        <ele>67</ele>
        <time>2013-04-21T16:08:03Z</time>
      </trkpt>
      <trkpt lat="44.74542" lon="-0.32071">
        <ele>67</ele>
        <time>2013-04-21T16:08:07Z</time>
      </trkpt>
      <trkpt lat="44.74544" lon="-0.32061">
        <ele>68</ele>
        <time>2013-04-21T16:08:13Z</time>
      </trkpt>
      <trkpt lat="44.74548" lon="-0.32056">
        <ele>68</ele>
        <time>2013-04-21T16:08:17Z</time>
      </trkpt>
      <trkpt lat="44.74563" lon="-0.32056">
        <ele>67</ele>
        <time>2013-04-21T16:08:24Z</time>
      </trkpt>
      <trkpt lat="44.74566" lon="-0.32043">
        <ele>67</ele>
        <time>2013-04-21T16:08:32Z</time>
      </trkpt>
      <trkpt lat="44.74567" lon="-0.32042">
        <ele>67</ele>
        <time>2013-04-21T16:08:33Z</time>
      </trkpt>
      <trkpt lat="44.7457" lon="-0.32028">
        <ele>68</ele>
        <time>2013-04-21T16:08:41Z</time>
      </trkpt>
      <trkpt lat="44.74572" lon="-0.32025">
        <ele>68</ele>
        <time>2013-04-21T16:08:43Z</time>
      </trkpt>
      <trkpt lat="44.74579" lon="-0.32008">
        <ele>68</ele>
        <time>2013-04-21T16:08:51Z</time>
      </trkpt>
      <trkpt lat="44.7459" lon="-0.31985">
        <ele>68</ele>
        <time>2013-04-21T16:09:01Z</time>
      </trkpt>
      <trkpt lat="44.746" lon="-0.31972">
        <ele>67</ele>
        <time>2013-04-21T16:09:09Z</time>
      </trkpt>
      <trkpt lat="44.74755" lon="-0.31994">
        <ele>73</ele>
        <time>2013-04-21T16:09:17Z</time>
      </trkpt>
      <trkpt lat="44.7482" lon="-0.32107">
        <ele>88</ele>
        <time>2013-04-21T16:09:22Z</time>
      </trkpt>
      <trkpt lat="44.75246" lon="-0.32421">
        <ele>105</ele>
        <time>2013-04-21T16:09:24Z</time>
      </trkpt>
      <trkpt lat="44.75217" lon="-0.32246">
        <ele>97</ele>
        <time>2013-04-21T16:09:26Z</time>
      </trkpt>
      <trkpt lat="44.75206" lon="-0.32132">
        <ele>89</ele>
        <time>2013-04-21T16:09:33Z</time>
      </trkpt>
      <trkpt lat="44.75222" lon="-0.32025">
        <ele>77</ele>
        <time>2013-04-21T16:09:40Z</time>
      </trkpt>
      <trkpt lat="44.75206" lon="-0.31958">
        <ele>72</ele>
        <time>2013-04-21T16:09:47Z</time>
      </trkpt>
      <trkpt lat="44.75202" lon="-0.31933">
        <ele>74</ele>
        <time>2013-04-21T16:09:53Z</time>
      </trkpt>
      <trkpt lat="44.7522" lon="-0.31905">
        <ele>74</ele>
        <time>2013-04-21T16:10:00Z</time>
      </trkpt>
      <trkpt lat="44.75244" lon="-0.31777">
        <ele>85</ele>
        <time>2013-04-21T16:10:04Z</time>
      </trkpt>
      <trkpt lat="44.75241" lon="-0.31685">
        <ele>96</ele>
        <time>2013-04-21T16:10:11Z</time>
      </trkpt>
      <trkpt lat="44.75297" lon="-0.31612">
        <ele>93</ele>
        <time>2013-04-21T16:10:17Z</time>
      </trkpt>
      <trkpt lat="44.75348" lon="-0.3164">
        <ele>82</ele>
        <time>2013-04-21T16:10:26Z</time>
      </trkpt>
      <trkpt lat="44.75354" lon="-0.31479">
        <ele>82</ele>
        <time>2013-04-21T16:10:36Z</time>
      </trkpt>
      <trkpt lat="44.75352" lon="-0.31394">
        <ele>83</ele>
        <time>2013-04-21T16:10:43Z</time>
      </trkpt>
      <trkpt lat="44.75394" lon="-0.31385">
        <ele>84</ele>
        <time>2013-04-21T16:17:22Z</time>
      </trkpt>
      <trkpt lat="44.75417" lon="-0.31391">
        <ele>88</ele>
        <time>2013-04-21T16:17:26Z</time>
      </trkpt>
      <trkpt lat="44.75422" lon="-0.31391">
        <ele>89</ele>
        <time>2013-04-21T16:17:27Z</time>
      </trkpt>
      <trkpt lat="44.75426" lon="-0.31392">
        <ele>90</ele>
        <time>2013-04-21T16:17:28Z</time>
      </trkpt>
      <trkpt lat="44.7543" lon="-0.31392">
        <ele>90</ele>
        <time>2013-04-21T16:17:29Z</time>
      </trkpt>
      <trkpt lat="44.75434" lon="-0.31392">
        <ele>90</ele>
        <time>2013-04-21T16:17:30Z</time>
      </trkpt>
      <trkpt lat="44.75452" lon="-0.31393">
        <ele>91</ele>
        <time>2013-04-21T16:17:36Z</time>
      </trkpt>
      <trkpt lat="44.75464" lon="-0.31391">
        <ele>92</ele>
        <time>2013-04-21T16:17:41Z</time>
      </trkpt>
      <trkpt lat="44.75484" lon="-0.31383">
        <ele>94</ele>
        <time>2013-04-21T16:17:49Z</time>
      </trkpt>
      <trkpt lat="44.75502" lon="-0.31374">
        <ele>96</ele>
        <time>2013-04-21T16:17:57Z</time>
      </trkpt>
      <trkpt lat="44.75504" lon="-0.31372">
        <ele>96</ele>
        <time>2013-04-21T16:17:58Z</time>
      </trkpt>
      <trkpt lat="44.75507" lon="-0.3137">
        <ele>96</ele>
        <time>2013-04-21T16:18:00Z</time>
      </trkpt>
      <trkpt lat="44.75509" lon="-0.31369">
        <ele>96</ele>
        <time>2013-04-21T16:18:01Z</time>
      </trkpt>
      <trkpt lat="44.75511" lon="-0.31368">
        <ele>97</ele>
        <time>2013-04-21T16:18:02Z</time>
      </trkpt>
      <trkpt lat="44.75513" lon="-0.31367">
        <ele>97</ele>
        <time>2013-04-21T16:18:03Z</time>
      </trkpt>
      <trkpt lat="44.75516" lon="-0.31366">
        <ele>97</ele>
        <time>2013-04-21T16:18:04Z</time>
      </trkpt>
      <trkpt lat="44.75518" lon="-0.31365">
        <ele>97</ele>
        <time>2013-04-21T16:18:05Z</time>
      </trkpt>
      <trkpt lat="44.75519" lon="-0.31363">
        <ele>97</ele>
        <time>2013-04-21T16:18:06Z</time>
      </trkpt>
      <trkpt lat="44.75521" lon="-0.31362">
        <ele>98</ele>
        <time>2013-04-21T16:18:07Z</time>
      </trkpt>
      <trkpt lat="44.75533" lon="-0.31352">
        <ele>99</ele>
        <time>2013-04-21T16:18:14Z</time>
      </trkpt>
      <trkpt lat="44.75535" lon="-0.31351">
        <ele>99</ele>
        <time>2013-04-21T16:18:15Z</time>
      </trkpt>
      <trkpt lat="44.75537" lon="-0.3135">
        <ele>99</ele>
        <time>2013-04-21T16:18:16Z</time>
      </trkpt>
      <trkpt lat="44.75541" lon="-0.31347">
        <ele>99</ele>
        <time>2013-04-21T16:18:19Z</time>
      </trkpt>
      <trkpt lat="44.75542" lon="-0.31346">
        <ele>99</ele>
        <time>2013-04-21T16:18:20Z</time>
      </trkpt>
      <trkpt lat="44.75544" lon="-0.31345">
        <ele>99</ele>
        <time>2013-04-21T16:18:21Z</time>
      </trkpt>
      <trkpt lat="44.75559" lon="-0.31335">
        <ele>99</ele>
        <time>2013-04-21T16:18:29Z</time>
      </trkpt>
      <trkpt lat="44.75577" lon="-0.31326">
        <ele>100</ele>
        <time>2013-04-21T16:18:37Z</time>
      </trkpt>
      <trkpt lat="44.75597" lon="-0.31315">
        <ele>100</ele>
        <time>2013-04-21T16:18:45Z</time>
      </trkpt>
      <trkpt lat="44.75617" lon="-0.3131">
        <ele>101</ele>
        <time>2013-04-21T16:18:52Z</time>
      </trkpt>
      <trkpt lat="44.75632" lon="-0.31303">
        <ele>101</ele>
        <time>2013-04-21T16:18:59Z</time>
      </trkpt>
      <trkpt lat="44.75632" lon="-0.313">
        <ele>102</ele>
        <time>2013-04-21T16:19:00Z</time>
      </trkpt>
      <trkpt lat="44.75632" lon="-0.31298">
        <ele>102</ele>
        <time>2013-04-21T16:19:01Z</time>
      </trkpt>
      <trkpt lat="44.75632" lon="-0.31296">
        <ele>102</ele>
        <time>2013-04-21T16:19:02Z</time>
      </trkpt>
      <trkpt lat="44.7563" lon="-0.31295">
        <ele>102</ele>
        <time>2013-04-21T16:19:03Z</time>
      </trkpt>
      <trkpt lat="44.75628" lon="-0.31294">
        <ele>102</ele>
        <time>2013-04-21T16:19:04Z</time>
      </trkpt>
      <trkpt lat="44.75612" lon="-0.31285">
        <ele>102</ele>
        <time>2013-04-21T16:19:12Z</time>
      </trkpt>
      <trkpt lat="44.75606" lon="-0.31284">
        <ele>102</ele>
        <time>2013-04-21T16:19:15Z</time>
      </trkpt>
      <trkpt lat="44.75604" lon="-0.31282">
        <ele>102</ele>
        <time>2013-04-21T16:19:16Z</time>
      </trkpt>
      <trkpt lat="44.75602" lon="-0.31281">
        <ele>102</ele>
        <time>2013-04-21T16:19:17Z</time>
      </trkpt>
      <trkpt lat="44.756" lon="-0.3128">
        <ele>102</ele>
        <time>2013-04-21T16:19:18Z</time>
      </trkpt>
      <trkpt lat="44.75598" lon="-0.31279">
        <ele>102</ele>
        <time>2013-04-21T16:19:19Z</time>
      </trkpt>
      <trkpt lat="44.75595" lon="-0.31278">
        <ele>102</ele>
        <time>2013-04-21T16:19:20Z</time>
      </trkpt>
      <trkpt lat="44.75576" lon="-0.31271">
        <ele>102</ele>
        <time>2013-04-21T16:19:29Z</time>
      </trkpt>
    </trkseg>
  </trk>
</gpx>